Wetterdaten: Samstag, 15.07.2017
Datum Zeit Temp. A. Pool Temp. Feuchte A. Luftdruck Regen Wind Richtung Richtung Sonnenschein ET UV Solar Taupunkt Windchill Windben Empfang
15.07.2017 00:00 14,0 C 22,8 C 89 % 1016,2 hPa 0,0 l/m 12,4 km/h (3 Bft) W-SW 253 0 min 0,000 mm 0,0 UV-I 0 W/m 12,2 C 11,0 C 17,7 km/h (3 Bft) 97,37 %
15.07.2017 00:02 14,0 C 22,8 C 89 % 1016,3 hPa 0,0 l/m 9,7 km/h (2 Bft) W-SW 242 0 min 0,000 mm 0,0 UV-I 0 W/m 12,2 C 12,2 C 14,5 km/h (3 Bft) 93,18 %
15.07.2017 00:04 14,0 C 22,8 C 89 % 1016,2 hPa 0,2 l/m 10,2 km/h (2 Bft) W 262 0 min 0,000 mm 0,0 UV-I 0 W/m 12,2 C 11,9 C 17,7 km/h (3 Bft) 97,56 %
15.07.2017 00:06 13,9 C 22,8 C 89 % 1016,2 hPa 0,0 l/m 11,0 km/h (2 Bft) W 274 0 min 0,000 mm 0,0 UV-I 0 W/m 12,1 C 11,4 C 14,5 km/h (3 Bft) 96,23 %
15.07.2017 00:08 13,9 C 22,8 C 89 % 1016,0 hPa 0,0 l/m 9,1 km/h (2 Bft) SW 231 0 min 0,000 mm 0,0 UV-I 0 W/m 12,1 C 12,4 C 16,1 km/h (3 Bft) 94,74 %
15.07.2017 00:10 13,9 C 22,8 C 90 % 1016,0 hPa 0,0 l/m 12,6 km/h (3 Bft) SW 235 0 min 0,000 mm 0,0 UV-I 0 W/m 12,3 C 10,8 C 17,7 km/h (3 Bft) 98,00 %
15.07.2017 00:12 13,8 C 22,8 C 90 % 1015,9 hPa 0,0 l/m 12,0 km/h (2 Bft) SW 227 0 min 0,000 mm 0,0 UV-I 0 W/m 12,2 C 10,9 C 17,7 km/h (3 Bft) 95,56 %
15.07.2017 00:14 13,8 C 22,8 C 90 % 1015,9 hPa 0,0 l/m 9,7 km/h (2 Bft) W-SW 240 0 min 0,000 mm 0,0 UV-I 0 W/m 12,2 C 11,9 C 12,9 km/h (3 Bft) 96,15 %
15.07.2017 00:16 13,8 C 22,8 C 90 % 1015,9 hPa 0,0 l/m 10,5 km/h (2 Bft) SW 229 0 min 0,000 mm 0,0 UV-I 0 W/m 12,2 C 11,6 C 16,1 km/h (3 Bft) 96,00 %
15.07.2017 00:18 13,8 C 22,8 C 90 % 1015,9 hPa 0,0 l/m 10,5 km/h (2 Bft) SW 227 0 min 0,000 mm 0,0 UV-I 0 W/m 12,2 C 11,6 C 19,3 km/h (3 Bft) 97,44 %
15.07.2017 00:20 13,8 C 22,8 C 90 % 1015,9 hPa 0,0 l/m 7,5 km/h (2 Bft) S-SW 202 0 min 0,000 mm 0,0 UV-I 0 W/m 12,2 C 13,1 C 12,9 km/h (3 Bft) 95,12 %
15.07.2017 00:22 13,8 C 22,8 C 90 % 1015,9 hPa 0,0 l/m 9,4 km/h (2 Bft) SW 235 0 min 0,000 mm 0,0 UV-I 0 W/m 12,2 C 12,1 C 16,1 km/h (3 Bft) 94,92 %
15.07.2017 00:24 13,7 C 22,8 C 90 % 1015,8 hPa 0,0 l/m 8,7 km/h (2 Bft) SW 233 0 min 0,000 mm 0,0 UV-I 0 W/m 12,1 C 12,3 C 11,3 km/h (2 Bft) 98,00 %
15.07.2017 00:26 13,7 C 22,8 C 91 % 1015,9 hPa 0,0 l/m 8,7 km/h (2 Bft) W-SW 253 0 min 0,000 mm 0,0 UV-I 0 W/m 12,3 C 12,3 C 12,9 km/h (3 Bft) 92,68 %
15.07.2017 00:28 13,7 C 22,8 C 91 % 1015,9 hPa 0,0 l/m 8,9 km/h (2 Bft) W-SW 243 0 min 0,000 mm 0,0 UV-I 0 W/m 12,3 C 12,2 C 12,9 km/h (3 Bft) 100,00 %
15.07.2017 00:30 13,6 C 22,8 C 91 % 1015,8 hPa 0,0 l/m 7,1 km/h (2 Bft) W-SW 238 0 min 0,000 mm 0,0 UV-I 0 W/m 12,2 C 13,2 C 11,3 km/h (2 Bft) 98,39 %
15.07.2017 00:32 13,6 C 22,8 C 91 % 1015,7 hPa 0,0 l/m 7,8 km/h (2 Bft) SW 217 0 min 0,000 mm 0,0 UV-I 0 W/m 12,2 C 12,7 C 11,3 km/h (2 Bft) 96,23 %
15.07.2017 00:34 13,6 C 22,8 C 91 % 1015,8 hPa 0,0 l/m 7,1 km/h (2 Bft) W-SW 244 0 min 0,000 mm 0,0 UV-I 0 W/m 12,2 C 13,2 C 11,3 km/h (2 Bft) 95,24 %
15.07.2017 00:36 13,5 C 22,8 C 91 % 1015,8 hPa 0,0 l/m 6,0 km/h (2 Bft) W-SW 243 0 min 0,000 mm 0,0 UV-I 0 W/m 12,1 C 13,5 C 9,7 km/h (2 Bft) 96,00 %
15.07.2017 00:38 13,4 C 22,8 C 91 % 1015,8 hPa 0,0 l/m 7,5 km/h (2 Bft) SW 228 0 min 0,000 mm 0,0 UV-I 0 W/m 12,0 C 12,7 C 11,3 km/h (2 Bft) 97,73 %
15.07.2017 00:40 13,4 C 22,8 C 91 % 1015,9 hPa 0,0 l/m 6,3 km/h (2 Bft) SW 227 0 min 0,000 mm 0,0 UV-I 0 W/m 12,0 C 13,4 C 9,7 km/h (2 Bft) 97,87 %
15.07.2017 00:42 13,4 C 22,8 C 92 % 1015,9 hPa 0,0 l/m 6,4 km/h (2 Bft) SW 236 0 min 0,000 mm 0,0 UV-I 0 W/m 12,1 C 13,4 C 9,7 km/h (2 Bft) 95,74 %
15.07.2017 00:44 13,3 C 22,8 C 92 % 1015,9 hPa 0,0 l/m 6,1 km/h (2 Bft) W-SW 238 0 min 0,000 mm 0,0 UV-I 0 W/m 12,0 C 13,3 C 8,0 km/h (2 Bft) 98,04 %
15.07.2017 00:46 13,3 C 22,8 C 92 % 1015,9 hPa 0,0 l/m 6,9 km/h (2 Bft) SW 227 0 min 0,000 mm 0,0 UV-I 0 W/m 12,0 C 13,0 C 9,7 km/h (2 Bft) 100,00 %
15.07.2017 00:48 13,3 C 22,8 C 92 % 1015,8 hPa 0,0 l/m 6,7 km/h (2 Bft) SW 217 0 min 0,000 mm 0,0 UV-I 0 W/m 12,0 C 13,1 C 9,7 km/h (2 Bft) 100,00 %
15.07.2017 00:50 13,3 C 22,8 C 92 % 1015,8 hPa 0,0 l/m 6,4 km/h (2 Bft) SW 223 0 min 0,000 mm 0,0 UV-I 0 W/m 12,0 C 13,3 C 8,0 km/h (2 Bft) 98,00 %
15.07.2017 00:52 13,3 C 22,8 C 92 % 1015,8 hPa 0,0 l/m 7,0 km/h (2 Bft) SW 231 0 min 0,000 mm 0,0 UV-I 0 W/m 12,0 C 12,9 C 9,7 km/h (2 Bft) 94,87 %
15.07.2017 00:54 13,3 C 22,8 C 92 % 1015,8 hPa 0,0 l/m 7,8 km/h (2 Bft) SW 223 0 min 0,000 mm 0,0 UV-I 0 W/m 12,0 C 12,4 C 11,3 km/h (2 Bft) 100,00 %
15.07.2017 00:56 13,3 C 22,8 C 92 % 1015,8 hPa 0,0 l/m 6,1 km/h (2 Bft) SW 227 0 min 0,000 mm 0,0 UV-I 0 W/m 12,0 C 13,3 C 9,7 km/h (2 Bft) 98,11 %
15.07.2017 00:58 13,3 C 22,8 C 92 % 1015,7 hPa 0,0 l/m 4,6 km/h (1 Bft) SW 227 0 min 0,000 mm 0,0 UV-I 0 W/m 12,0 C 13,3 C 8,0 km/h (2 Bft) 97,56 %
15.07.2017 01:00 13,3 C 22,8 C 92 % 1015,8 hPa 0,0 l/m 4,5 km/h (1 Bft) W-SW 249 0 min 0,000 mm 0,0 UV-I 0 W/m 12,0 C 13,3 C 6,4 km/h (2 Bft) 100,00 %
15.07.2017 01:02 13,3 C 22,8 C 92 % 1015,7 hPa 0,0 l/m 5,0 km/h (1 Bft) W-SW 249 0 min 0,000 mm 0,0 UV-I 0 W/m 12,0 C 13,3 C 6,4 km/h (2 Bft) 97,87 %
15.07.2017 01:04 13,3 C 22,8 C 92 % 1015,7 hPa 0,0 l/m 3,9 km/h (1 Bft) W-SW 249 0 min 0,000 mm 0,0 UV-I 0 W/m 12,0 C 13,3 C 4,8 km/h (1 Bft) 98,00 %
15.07.2017 01:06 13,3 C 22,8 C 92 % 1015,7 hPa 0,0 l/m 4,3 km/h (1 Bft) SW 235 0 min 0,000 mm 0,0 UV-I 0 W/m 12,0 C 13,3 C 6,4 km/h (2 Bft) 100,00 %
15.07.2017 01:08 13,3 C 22,8 C 93 % 1015,7 hPa 0,0 l/m 3,9 km/h (1 Bft) S-SW 203 0 min 0,000 mm 0,0 UV-I 0 W/m 12,2 C 13,3 C 6,4 km/h (2 Bft) 97,87 %
15.07.2017 01:10 13,2 C 22,8 C 93 % 1015,7 hPa 0,0 l/m 7,4 km/h (2 Bft) SW 215 0 min 0,000 mm 0,0 UV-I 0 W/m 12,1 C 12,6 C 11,3 km/h (2 Bft) 100,00 %
15.07.2017 01:12 13,2 C 22,8 C 93 % 1015,7 hPa 0,0 l/m 8,6 km/h (2 Bft) S-SW 211 0 min 0,000 mm 0,0 UV-I 0 W/m 12,1 C 11,9 C 11,3 km/h (2 Bft) 97,37 %
15.07.2017 01:14 13,2 C 22,8 C 93 % 1015,7 hPa 0,0 l/m 6,9 km/h (2 Bft) W-SW 246 0 min 0,000 mm 0,0 UV-I 0 W/m 12,1 C 12,9 C 9,7 km/h (2 Bft) 96,00 %
15.07.2017 01:16 13,2 C 22,8 C 93 % 1015,7 hPa 0,0 l/m 7,1 km/h (2 Bft) SW 235 0 min 0,000 mm 0,0 UV-I 0 W/m 12,1 C 12,8 C 11,3 km/h (2 Bft) 98,00 %
15.07.2017 01:18 13,2 C 22,8 C 93 % 1015,7 hPa 0,0 l/m 7,8 km/h (2 Bft) SW 228 0 min 0,000 mm 0,0 UV-I 0 W/m 12,1 C 12,3 C 11,3 km/h (2 Bft) 98,00 %
15.07.2017 01:20 13,2 C 22,8 C 93 % 1015,6 hPa 0,0 l/m 8,7 km/h (2 Bft) SW 235 0 min 0,000 mm 0,0 UV-I 0 W/m 12,1 C 11,8 C 14,5 km/h (3 Bft) 97,87 %
15.07.2017 01:22 13,2 C 22,8 C 93 % 1015,6 hPa 0,0 l/m 7,8 km/h (2 Bft) SW 231 0 min 0,000 mm 0,0 UV-I 0 W/m 12,1 C 12,3 C 9,7 km/h (2 Bft) 97,87 %
15.07.2017 01:24 13,2 C 22,8 C 93 % 1015,7 hPa 0,0 l/m 7,8 km/h (2 Bft) SW 235 0 min 0,000 mm 0,0 UV-I 0 W/m 12,1 C 12,3 C 9,7 km/h (2 Bft) 100,00 %
15.07.2017 01:26 13,2 C 22,8 C 93 % 1015,7 hPa 0,0 l/m 5,7 km/h (1 Bft) SW 234 0 min 0,000 mm 0,0 UV-I 0 W/m 12,1 C 13,2 C 11,3 km/h (2 Bft) 97,87 %
15.07.2017 01:28 13,1 C 22,8 C 92 % 1015,7 hPa 0,0 l/m 6,4 km/h (2 Bft) SW 234 0 min 0,000 mm 0,0 UV-I 0 W/m 11,8 C 13,1 C 9,7 km/h (2 Bft) 100,00 %
15.07.2017 01:30 13,1 C 22,8 C 93 % 1015,7 hPa 0,0 l/m 6,6 km/h (2 Bft) SW 229 0 min 0,000 mm 0,0 UV-I 0 W/m 12,0 C 13,0 C 9,7 km/h (2 Bft) 100,00 %
15.07.2017 01:32 13,1 C 22,8 C 93 % 1015,7 hPa 0,0 l/m 6,5 km/h (2 Bft) SW 223 0 min 0,000 mm 0,0 UV-I 0 W/m 12,0 C 13,1 C 11,3 km/h (2 Bft) 100,00 %
15.07.2017 01:34 13,1 C 22,8 C 93 % 1015,7 hPa 0,0 l/m 6,6 km/h (2 Bft) W-SW 257 0 min 0,000 mm 0,0 UV-I 0 W/m 12,0 C 13,0 C 11,3 km/h (2 Bft) 97,73 %
15.07.2017 01:36 13,1 C 22,8 C 93 % 1015,7 hPa 0,0 l/m 6,9 km/h (2 Bft) W-SW 246 0 min 0,000 mm 0,0 UV-I 0 W/m 12,0 C 12,8 C 12,9 km/h (3 Bft) 100,00 %
15.07.2017 01:38 13,1 C 22,8 C 93 % 1015,7 hPa 0,0 l/m 8,4 km/h (2 Bft) W 259 0 min 0,000 mm 0,0 UV-I 0 W/m 12,0 C 11,9 C 12,9 km/h (3 Bft) 100,00 %
15.07.2017 01:40 13,1 C 22,8 C 93 % 1015,7 hPa 0,0 l/m 9,7 km/h (2 Bft) SW 229 0 min 0,000 mm 0,0 UV-I 0 W/m 12,0 C 11,2 C 12,9 km/h (3 Bft) 100,00 %
15.07.2017 01:42 13,1 C 22,8 C 93 % 1015,7 hPa 0,0 l/m 7,3 km/h (2 Bft) W-SW 244 0 min 0,000 mm 0,0 UV-I 0 W/m 12,0 C 12,5 C 14,5 km/h (3 Bft) 98,00 %
15.07.2017 01:44 13,1 C 22,8 C 93 % 1015,7 hPa 0,0 l/m 7,9 km/h (2 Bft) W-SW 237 0 min 0,000 mm 0,0 UV-I 0 W/m 12,0 C 12,2 C 12,9 km/h (3 Bft) 94,74 %
15.07.2017 01:46 13,1 C 22,8 C 93 % 1015,7 hPa 0,0 l/m 9,7 km/h (2 Bft) SW 217 0 min 0,000 mm 0,0 UV-I 0 W/m 12,0 C 11,2 C 14,5 km/h (3 Bft) 98,00 %
15.07.2017 01:48 13,2 C 22,8 C 93 % 1015,6 hPa 0,0 l/m 8,9 km/h (2 Bft) S-SW 208 0 min 0,000 mm 0,0 UV-I 0 W/m 12,1 C 11,7 C 14,5 km/h (3 Bft) 98,00 %
15.07.2017 01:50 13,2 C 22,8 C 93 % 1015,6 hPa 0,0 l/m 8,3 km/h (2 Bft) SW 232 0 min 0,000 mm 0,0 UV-I 0 W/m 12,1 C 12,0 C 12,9 km/h (3 Bft) 97,56 %
15.07.2017 01:52 13,2 C 22,8 C 93 % 1015,6 hPa 0,0 l/m 9,2 km/h (2 Bft) SW 227 0 min 0,000 mm 0,0 UV-I 0 W/m 12,1 C 11,5 C 14,5 km/h (3 Bft) 98,00 %
15.07.2017 01:54 13,2 C 22,8 C 93 % 1015,6 hPa 0,0 l/m 8,4 km/h (2 Bft) SW 222 0 min 0,000 mm 0,0 UV-I 0 W/m 12,1 C 12,0 C 11,3 km/h (2 Bft) 96,00 %
15.07.2017 01:56 13,2 C 22,8 C 93 % 1015,6 hPa 0,0 l/m 8,6 km/h (2 Bft) SW 233 0 min 0,000 mm 0,0 UV-I 0 W/m 12,1 C 11,9 C 12,9 km/h (3 Bft) 97,37 %
15.07.2017 01:58 13,2 C 22,8 C 93 % 1015,6 hPa 0,0 l/m 8,1 km/h (2 Bft) SW 235 0 min 0,000 mm 0,0 UV-I 0 W/m 12,1 C 12,2 C 12,9 km/h (3 Bft) 96,43 %
15.07.2017 02:00 13,1 C 22,8 C 93 % 1015,5 hPa 0,0 l/m 7,8 km/h (2 Bft) W-SW 241 0 min 0,000 mm 0,0 UV-I 0 W/m 12,0 C 12,2 C 11,3 km/h (2 Bft) 92,11 %
15.07.2017 02:02 13,1 C 22,8 C 92 % 1015,5 hPa 0,0 l/m 7,3 km/h (2 Bft) S-SW 206 0 min 0,000 mm 0,0 UV-I 0 W/m 11,8 C 12,5 C 9,7 km/h (2 Bft) 90,91 %
15.07.2017 02:04 13,1 C 22,2 C 92 % 1015,5 hPa 0,0 l/m 7,8 km/h (2 Bft) SW 232 0 min 0,000 mm 0,0 UV-I 0 W/m 11,8 C 12,2 C 11,3 km/h (2 Bft) 96,43 %
15.07.2017 02:06 13,1 C 22,2 C 93 % 1015,5 hPa 0,0 l/m 6,9 km/h (2 Bft) SW 217 0 min 0,000 mm 0,0 UV-I 0 W/m 12,0 C 12,8 C 11,3 km/h (2 Bft) 95,45 %
15.07.2017 02:08 13,1 C 22,2 C 93 % 1015,5 hPa 0,0 l/m 5,7 km/h (1 Bft) SW 214 0 min 0,000 mm 0,0 UV-I 0 W/m 12,0 C 13,1 C 9,7 km/h (2 Bft) 94,00 %
15.07.2017 02:10 13,0 C 22,2 C 93 % 1015,5 hPa 0,0 l/m 8,4 km/h (2 Bft) W-SW 249 0 min 0,000 mm 0,0 UV-I 0 W/m 11,9 C 11,8 C 12,9 km/h (3 Bft) 97,87 %
15.07.2017 02:12 13,0 C 22,2 C 93 % 1015,4 hPa 0,0 l/m 7,7 km/h (2 Bft) S-SW 193 0 min 0,000 mm 0,0 UV-I 0 W/m 11,9 C 12,2 C 12,9 km/h (3 Bft) 96,00 %
15.07.2017 02:14 13,0 C 22,2 C 93 % 1015,4 hPa 0,0 l/m 9,6 km/h (2 Bft) SW 217 0 min 0,000 mm 0,0 UV-I 0 W/m 11,9 C 11,1 C 12,9 km/h (3 Bft) 97,62 %
15.07.2017 02:16 13,0 C 22,2 C 93 % 1015,4 hPa 0,0 l/m 6,5 km/h (2 Bft) SW 224 0 min 0,000 mm 0,0 UV-I 0 W/m 11,9 C 13,0 C 9,7 km/h (2 Bft) 94,34 %
15.07.2017 02:18 12,9 C 22,2 C 93 % 1015,4 hPa 0,0 l/m 6,4 km/h (2 Bft) S-SW 201 0 min 0,000 mm 0,0 UV-I 0 W/m 11,8 C 12,9 C 11,3 km/h (2 Bft) 97,37 %
15.07.2017 02:20 13,0 C 22,2 C 93 % 1015,3 hPa 0,0 l/m 3,7 km/h (1 Bft) S-SW 200 0 min 0,000 mm 0,0 UV-I 0 W/m 11,9 C 13,0 C 11,3 km/h (2 Bft) 96,23 %
15.07.2017 02:22 13,0 C 22,2 C 93 % 1015,4 hPa 0,0 l/m 4,1 km/h (1 Bft) S-SW 213 0 min 0,000 mm 0,0 UV-I 0 W/m 11,9 C 13,0 C 6,4 km/h (2 Bft) 98,00 %
15.07.2017 02:24 13,0 C 22,2 C 93 % 1015,4 hPa 0,0 l/m 3,1 km/h (1 Bft) W-SW 239 0 min 0,000 mm 0,0 UV-I 0 W/m 11,9 C 13,0 C 6,4 km/h (2 Bft) 97,87 %
15.07.2017 02:26 13,0 C 22,2 C 93 % 1015,3 hPa 0,0 l/m 4,5 km/h (1 Bft) S-SW 212 0 min 0,000 mm 0,0 UV-I 0 W/m 11,9 C 13,0 C 8,0 km/h (2 Bft) 97,14 %
15.07.2017 02:28 13,1 C 22,2 C 93 % 1015,3 hPa 0,0 l/m 1,3 km/h (1 Bft) S-SW 212 0 min 0,000 mm 0,0 UV-I 0 W/m 12,0 C 13,1 C 3,2 km/h (1 Bft) 96,00 %
15.07.2017 02:30 13,1 C 22,2 C 93 % 1015,3 hPa 0,0 l/m 0,1 km/h (0 Bft) S-SW 212 0 min 0,000 mm 0,0 UV-I 0 W/m 12,0 C 13,1 C 1,6 km/h (1 Bft) 100,00 %
15.07.2017 02:32 13,0 C 22,2 C 93 % 1015,2 hPa 0,0 l/m 0,9 km/h (0 Bft) NW 309 0 min 0,000 mm 0,0 UV-I 0 W/m 11,9 C 13,0 C 3,2 km/h (1 Bft) 98,11 %
15.07.2017 02:34 13,0 C 22,2 C 93 % 1015,3 hPa 0,0 l/m 0,8 km/h (0 Bft) NW 309 0 min 0,000 mm 0,0 UV-I 0 W/m 11,9 C 13,0 C 3,2 km/h (1 Bft) 97,37 %
15.07.2017 02:36 12,9 C 22,2 C 93 % 1015,4 hPa 0,0 l/m 0,5 km/h (0 Bft) NW 309 0 min 0,000 mm 0,0 UV-I 0 W/m 11,8 C 12,9 C 1,6 km/h (1 Bft) 98,00 %
15.07.2017 02:38 12,9 C 22,2 C 93 % 1015,3 hPa 0,0 l/m 0,0 km/h (0 Bft) NW 309 0 min 0,000 mm 0,0 UV-I 0 W/m 11,8 C 12,9 C 0,0 km/h (0 Bft) 93,62 %
15.07.2017 02:40 12,9 C 22,2 C 93 % 1015,4 hPa 0,0 l/m 0,1 km/h (0 Bft) NW 309 0 min 0,000 mm 0,0 UV-I 0 W/m 11,8 C 12,9 C 1,6 km/h (1 Bft) 95,74 %
15.07.2017 02:42 12,9 C 22,2 C 93 % 1015,3 hPa 0,0 l/m 0,0 km/h (0 Bft) NW 309 0 min 0,000 mm 0,0 UV-I 0 W/m 11,8 C 12,9 C 0,0 km/h (0 Bft) 96,00 %
15.07.2017 02:44 12,8 C 22,2 C 93 % 1015,2 hPa 0,0 l/m 0,0 km/h (0 Bft) NW 309 0 min 0,000 mm 0,0 UV-I 0 W/m 11,7 C 12,8 C 1,6 km/h (1 Bft) 95,74 %
15.07.2017 02:46 12,8 C 22,2 C 93 % 1015,2 hPa 0,0 l/m 0,1 km/h (0 Bft) NW 309 0 min 0,000 mm 0,0 UV-I 0 W/m 11,7 C 12,8 C 1,6 km/h (1 Bft) 97,56 %
15.07.2017 02:48 12,8 C 22,2 C 93 % 1015,2 hPa 0,0 l/m 0,4 km/h (0 Bft) NW 309 0 min 0,000 mm 0,0 UV-I 0 W/m 11,7 C 12,8 C 1,6 km/h (1 Bft) 96,00 %
15.07.2017 02:50 12,8 C 22,2 C 93 % 1015,2 hPa 0,0 l/m 1,8 km/h (1 Bft) NW 309 0 min 0,000 mm 0,0 UV-I 0 W/m 11,7 C 12,8 C 3,2 km/h (1 Bft) 98,00 %
15.07.2017 02:52 12,8 C 22,2 C 93 % 1015,3 hPa 0,0 l/m 1,3 km/h (1 Bft) NW 309 0 min 0,000 mm 0,0 UV-I 0 W/m 11,7 C 12,8 C 3,2 km/h (1 Bft) 95,00 %
15.07.2017 02:54 12,8 C 22,2 C 93 % 1015,3 hPa 0,0 l/m 0,6 km/h (0 Bft) NW 309 0 min 0,000 mm 0,0 UV-I 0 W/m 11,7 C 12,8 C 1,6 km/h (1 Bft) 96,00 %
15.07.2017 02:56 12,8 C 22,2 C 93 % 1015,3 hPa 0,0 l/m 0,0 km/h (0 Bft) NW 309 0 min 0,000 mm 0,0 UV-I 0 W/m 11,7 C 12,8 C 1,6 km/h (1 Bft) 92,45 %
15.07.2017 02:58 12,8 C 22,2 C 93 % 1015,4 hPa 0,0 l/m 1,4 km/h (1 Bft) NW 309 0 min 0,000 mm 0,0 UV-I 0 W/m 11,7 C 12,8 C 3,2 km/h (1 Bft) 94,74 %
15.07.2017 03:00 12,8 C 22,2 C 93 % 1015,4 hPa 0,0 l/m 2,2 km/h (1 Bft) NW 309 0 min 0,000 mm 0,0 UV-I 0 W/m 11,7 C 12,8 C 3,2 km/h (1 Bft) 97,73 %
15.07.2017 03:02 12,8 C 22,2 C 93 % 1015,4 hPa 0,0 l/m 2,1 km/h (1 Bft) NW 309 0 min 0,000 mm 0,0 UV-I 0 W/m 11,7 C 12,8 C 3,2 km/h (1 Bft) 96,43 %
15.07.2017 03:04 12,8 C 22,2 C 94 % 1015,4 hPa 0,0 l/m 0,9 km/h (0 Bft) NW 309 0 min 0,000 mm 0,0 UV-I 0 W/m 11,9 C 12,8 C 3,2 km/h (1 Bft) 98,00 %
15.07.2017 03:06 12,8 C 22,2 C 94 % 1015,4 hPa 0,0 l/m 1,8 km/h (1 Bft) W-NW 293 0 min 0,000 mm 0,0 UV-I 0 W/m 11,9 C 12,8 C 3,2 km/h (1 Bft) 97,14 %
15.07.2017 03:08 12,9 C 22,2 C 94 % 1015,4 hPa 0,0 l/m 2,8 km/h (1 Bft) W-NW 288 0 min 0,000 mm 0,0 UV-I 0 W/m 12,0 C 12,9 C 4,8 km/h (1 Bft) 96,23 %
15.07.2017 03:10 12,9 C 22,2 C 94 % 1015,4 hPa 0,0 l/m 2,5 km/h (1 Bft) W-SW 257 0 min 0,000 mm 0,0 UV-I 0 W/m 12,0 C 12,9 C 4,8 km/h (1 Bft) 98,11 %
15.07.2017 03:12 12,9 C 22,2 C 94 % 1015,4 hPa 0,0 l/m 1,0 km/h (0 Bft) W-SW 257 0 min 0,000 mm 0,0 UV-I 0 W/m 12,0 C 12,9 C 3,2 km/h (1 Bft) 92,68 %
15.07.2017 03:14 12,9 C 22,2 C 94 % 1015,5 hPa 0,0 l/m 0,5 km/h (0 Bft) W-SW 257 0 min 0,000 mm 0,0 UV-I 0 W/m 12,0 C 12,9 C 3,2 km/h (1 Bft) 98,00 %
15.07.2017 03:16 12,9 C 22,2 C 94 % 1015,5 hPa 0,0 l/m 0,1 km/h (0 Bft) W-SW 257 0 min 0,000 mm 0,0 UV-I 0 W/m 12,0 C 12,9 C 1,6 km/h (1 Bft) 95,74 %
15.07.2017 03:18 12,9 C 22,2 C 94 % 1015,5 hPa 0,0 l/m 0,0 km/h (0 Bft) W-SW 257 0 min 0,000 mm 0,0 UV-I 0 W/m 12,0 C 12,9 C 0,0 km/h (0 Bft) 93,62 %
15.07.2017 03:20 13,0 C 22,2 C 94 % 1015,5 hPa 0,0 l/m 0,0 km/h (0 Bft) W-SW 257 0 min 0,000 mm 0,0 UV-I 0 W/m 12,1 C 13,0 C 0,0 km/h (0 Bft) 97,87 %
15.07.2017 03:22 13,1 C 22,2 C 94 % 1015,5 hPa 0,0 l/m 0,8 km/h (0 Bft) W-SW 257 0 min 0,000 mm 0,0 UV-I 0 W/m 12,2 C 13,1 C 4,8 km/h (1 Bft) 97,37 %
15.07.2017 03:24 13,1 C 22,2 C 94 % 1015,5 hPa 0,0 l/m 3,0 km/h (1 Bft) W-SW 257 0 min 0,000 mm 0,0 UV-I 0 W/m 12,2 C 13,1 C 4,8 km/h (1 Bft) 94,00 %
15.07.2017 03:26 13,2 C 22,2 C 94 % 1015,5 hPa 0,0 l/m 2,7 km/h (1 Bft) SW 233 0 min 0,000 mm 0,0 UV-I 0 W/m 12,3 C 13,2 C 6,4 km/h (2 Bft) 97,62 %
15.07.2017 03:28 13,2 C 22,2 C 93 % 1015,5 hPa 0,0 l/m 3,9 km/h (1 Bft) SW 215 0 min 0,000 mm 0,0 UV-I 0 W/m 12,1 C 13,2 C 8,0 km/h (2 Bft) 96,00 %
15.07.2017 03:30 13,2 C 22,2 C 93 % 1015,5 hPa 0,0 l/m 4,0 km/h (1 Bft) SW 215 0 min 0,000 mm 0,0 UV-I 0 W/m 12,1 C 13,2 C 8,0 km/h (2 Bft) 96,00 %
15.07.2017 03:32 13,3 C 22,2 C 93 % 1015,6 hPa 0,0 l/m 4,3 km/h (1 Bft) S-SW 205 0 min 0,000 mm 0,0 UV-I 0 W/m 12,2 C 13,3 C 8,0 km/h (2 Bft) 96,15 %
15.07.2017 03:34 13,3 C 22,2 C 93 % 1015,6 hPa 0,0 l/m 3,9 km/h (1 Bft) SW 232 0 min 0,000 mm 0,0 UV-I 0 W/m 12,2 C 13,3 C 6,4 km/h (2 Bft) 94,44 %
15.07.2017 03:36 13,3 C 22,2 C 93 % 1015,6 hPa 0,0 l/m 3,8 km/h (1 Bft) SW 233 0 min 0,000 mm 0,0 UV-I 0 W/m 12,2 C 13,3 C 6,4 km/h (2 Bft) 98,00 %
15.07.2017 03:38 13,3 C 22,2 C 93 % 1015,6 hPa 0,0 l/m 3,5 km/h (1 Bft) SW 233 0 min 0,000 mm 0,0 UV-I 0 W/m 12,2 C 13,3 C 6,4 km/h (2 Bft) 96,00 %
15.07.2017 03:40 13,3 C 22,2 C 93 % 1015,6 hPa 0,0 l/m 4,4 km/h (1 Bft) W-SW 239 0 min 0,000 mm 0,0 UV-I 0 W/m 12,2 C 13,3 C 6,4 km/h (2 Bft) 100,00 %
15.07.2017 03:42 13,3 C 22,2 C 93 % 1015,6 hPa 0,0 l/m 4,7 km/h (1 Bft) W-SW 248 0 min 0,000 mm 0,0 UV-I 0 W/m 12,2 C 13,3 C 6,4 km/h (2 Bft) 98,11 %
15.07.2017 03:44 13,3 C 22,2 C 92 % 1015,6 hPa 0,0 l/m 5,2 km/h (1 Bft) W-SW 246 0 min 0,000 mm 0,0 UV-I 0 W/m 12,0 C 13,3 C 8,0 km/h (2 Bft) 97,87 %
15.07.2017 03:46 13,4 C 22,2 C 92 % 1015,6 hPa 0,0 l/m 8,0 km/h (2 Bft) W-SW 241 0 min 0,000 mm 0,0 UV-I 0 W/m 12,1 C 12,4 C 12,9 km/h (3 Bft) 100,00 %
15.07.2017 03:48 13,4 C 22,2 C 92 % 1015,7 hPa 0,0 l/m 6,2 km/h (2 Bft) W-SW 238 0 min 0,000 mm 0,0 UV-I 0 W/m 12,1 C 13,4 C 8,0 km/h (2 Bft) 97,87 %
15.07.2017 03:50 13,5 C 22,2 C 92 % 1015,6 hPa 0,0 l/m 8,5 km/h (2 Bft) W 263 0 min 0,000 mm 0,0 UV-I 0 W/m 12,2 C 12,2 C 12,9 km/h (3 Bft) 93,62 %
15.07.2017 03:52 13,6 C 22,2 C 92 % 1015,6 hPa 0,0 l/m 9,4 km/h (2 Bft) SW 232 0 min 0,000 mm 0,0 UV-I 0 W/m 12,3 C 11,9 C 16,1 km/h (3 Bft) 97,87 %
15.07.2017 03:54 13,6 C 22,2 C 92 % 1015,6 hPa 0,0 l/m 10,6 km/h (2 Bft) SW 219 0 min 0,000 mm 0,0 UV-I 0 W/m 12,3 C 11,3 C 17,7 km/h (3 Bft) 100,00 %
15.07.2017 03:56 13,7 C 22,2 C 91 % 1015,5 hPa 0,0 l/m 8,6 km/h (2 Bft) SW 235 0 min 0,000 mm 0,0 UV-I 0 W/m 12,3 C 12,4 C 14,5 km/h (3 Bft) 95,12 %
15.07.2017 03:58 13,8 C 22,2 C 91 % 1015,6 hPa 0,0 l/m 14,1 km/h (3 Bft) SW 236 0 min 0,000 mm 0,0 UV-I 0 W/m 12,4 C 10,1 C 24,1 km/h (4 Bft) 98,11 %
15.07.2017 04:00 13,9 C 22,2 C 91 % 1015,6 hPa 0,0 l/m 13,7 km/h (3 Bft) W 265 0 min 0,000 mm 0,0 UV-I 0 W/m 12,5 C 10,3 C 20,9 km/h (4 Bft) 98,11 %
15.07.2017 04:02 13,9 C 22,2 C 90 % 1015,6 hPa 0,0 l/m 11,3 km/h (2 Bft) W-SW 238 0 min 0,000 mm 0,0 UV-I 0 W/m 12,3 C 11,3 C 16,1 km/h (3 Bft) 97,06 %
15.07.2017 04:04 14,1 C 22,2 C 90 % 1015,6 hPa 0,0 l/m 9,8 km/h (2 Bft) W-SW 251 0 min 0,000 mm 0,0 UV-I 0 W/m 12,5 C 12,2 C 14,5 km/h (3 Bft) 95,12 %
15.07.2017 04:06 14,1 C 22,2 C 90 % 1015,6 hPa 0,0 l/m 10,3 km/h (2 Bft) W-SW 258 0 min 0,000 mm 0,0 UV-I 0 W/m 12,5 C 12,0 C 16,1 km/h (3 Bft) 94,34 %
15.07.2017 04:08 14,1 C 22,2 C 90 % 1015,7 hPa 0,0 l/m 6,0 km/h (2 Bft) W-SW 242 0 min 0,000 mm 0,0 UV-I 0 W/m 12,5 C 14,1 C 11,3 km/h (2 Bft) 100,00 %
15.07.2017 04:10 14,2 C 22,2 C 89 % 1015,7 hPa 0,0 l/m 9,7 km/h (2 Bft) W-SW 242 0 min 0,000 mm 0,0 UV-I 0 W/m 12,4 C 12,4 C 14,5 km/h (3 Bft) 96,61 %
15.07.2017 04:12 14,2 C 22,2 C 89 % 1015,7 hPa 0,0 l/m 5,4 km/h (1 Bft) W-SW 254 0 min 0,000 mm 0,0 UV-I 0 W/m 12,4 C 14,2 C 8,0 km/h (2 Bft) 95,74 %
15.07.2017 04:14 14,2 C 22,2 C 89 % 1015,8 hPa 0,0 l/m 5,4 km/h (1 Bft) W-SW 248 0 min 0,000 mm 0,0 UV-I 0 W/m 12,4 C 14,2 C 11,3 km/h (2 Bft) 92,86 %
15.07.2017 04:16 14,2 C 22,2 C 89 % 1015,8 hPa 0,0 l/m 8,5 km/h (2 Bft) W 259 0 min 0,000 mm 0,0 UV-I 0 W/m 12,4 C 13,0 C 12,9 km/h (3 Bft) 97,56 %
15.07.2017 04:18 14,2 C 22,2 C 89 % 1015,8 hPa 0,0 l/m 6,6 km/h (2 Bft) W-SW 250 0 min 0,000 mm 0,0 UV-I 0 W/m 12,4 C 14,1 C 12,9 km/h (3 Bft) 96,00 %
15.07.2017 04:20 14,2 C 22,2 C 89 % 1015,9 hPa 0,0 l/m 10,6 km/h (2 Bft) SW 225 0 min 0,000 mm 0,0 UV-I 0 W/m 12,4 C 12,0 C 17,7 km/h (3 Bft) 95,45 %
15.07.2017 04:22 14,2 C 22,2 C 89 % 1015,9 hPa 0,0 l/m 10,6 km/h (2 Bft) W-SW 240 0 min 0,000 mm 0,0 UV-I 0 W/m 12,4 C 12,0 C 14,5 km/h (3 Bft) 93,62 %
15.07.2017 04:24 14,1 C 22,2 C 89 % 1015,9 hPa 0,0 l/m 13,3 km/h (3 Bft) W-SW 238 0 min 0,000 mm 0,0 UV-I 0 W/m 12,3 C 10,7 C 19,3 km/h (3 Bft) 98,00 %
15.07.2017 04:26 14,1 C 22,2 C 89 % 1015,8 hPa 0,0 l/m 17,7 km/h (3 Bft) S 191 0 min 0,000 mm 0,0 UV-I 0 W/m 12,3 C 9,2 C 27,4 km/h (4 Bft) 97,56 %
15.07.2017 04:28 14,1 C 22,2 C 89 % 1015,8 hPa 0,0 l/m 15,9 km/h (3 Bft) W-SW 238 0 min 0,000 mm 0,0 UV-I 0 W/m 12,3 C 9,8 C 22,5 km/h (4 Bft) 96,43 %
15.07.2017 04:30 14,0 C 22,2 C 90 % 1015,9 hPa 0,0 l/m 16,3 km/h (3 Bft) SW 235 0 min 0,000 mm 0,0 UV-I 0 W/m 12,4 C 9,5 C 20,9 km/h (4 Bft) 97,87 %
15.07.2017 04:32 13,9 C 22,2 C 90 % 1015,8 hPa 0,0 l/m 16,9 km/h (3 Bft) SW 221 0 min 0,000 mm 0,0 UV-I 0 W/m 12,3 C 9,2 C 25,7 km/h (4 Bft) 97,14 %
15.07.2017 04:34 13,8 C 22,2 C 90 % 1015,9 hPa 0,0 l/m 15,2 km/h (3 Bft) W-SW 239 0 min 0,000 mm 0,0 UV-I 0 W/m 12,2 C 9,7 C 20,9 km/h (4 Bft) 100,00 %
15.07.2017 04:36 13,8 C 22,2 C 90 % 1015,9 hPa 0,2 l/m 14,2 km/h (3 Bft) W-SW 247 0 min 0,000 mm 0,0 UV-I 0 W/m 12,2 C 10,0 C 20,9 km/h (4 Bft) 100,00 %
15.07.2017 04:38 13,8 C 22,2 C 91 % 1015,9 hPa 0,0 l/m 17,2 km/h (3 Bft) W 259 0 min 0,000 mm 0,0 UV-I 0 W/m 12,4 C 9,0 C 22,5 km/h (4 Bft) 100,00 %
15.07.2017 04:40 13,7 C 22,2 C 91 % 1016,0 hPa 0,0 l/m 20,0 km/h (4 Bft) W-SW 246 0 min 0,000 mm 0,0 UV-I 0 W/m 12,3 C 8,1 C 25,7 km/h (4 Bft) 100,00 %
15.07.2017 04:42 13,7 C 22,2 C 91 % 1016,0 hPa 0,2 l/m 18,7 km/h (3 Bft) SW 235 0 min 0,000 mm 0,0 UV-I 0 W/m 12,3 C 8,4 C 25,7 km/h (4 Bft) 100,00 %
15.07.2017 04:44 13,6 C 22,2 C 92 % 1016,1 hPa 0,2 l/m 17,5 km/h (3 Bft) W 259 0 min 0,000 mm 0,0 UV-I 0 W/m 12,3 C 8,7 C 27,4 km/h (4 Bft) 95,24 %
15.07.2017 04:46 13,6 C 22,2 C 92 % 1016,2 hPa 1,0 l/m 15,8 km/h (3 Bft) W-SW 250 0 min 0,000 mm 0,0 UV-I 0 W/m 12,3 C 9,2 C 24,1 km/h (4 Bft) 97,87 %
15.07.2017 04:48 13,6 C 22,2 C 92 % 1016,1 hPa 0,2 l/m 13,9 km/h (3 Bft) SW 221 0 min 0,000 mm 0,0 UV-I 0 W/m 12,3 C 9,9 C 19,3 km/h (3 Bft) 100,00 %
15.07.2017 04:50 13,5 C 22,2 C 92 % 1016,1 hPa 0,0 l/m 13,1 km/h (3 Bft) W-SW 247 0 min 0,000 mm 0,0 UV-I 0 W/m 12,2 C 10,1 C 20,9 km/h (4 Bft) 98,11 %
15.07.2017 04:52 13,4 C 22,2 C 92 % 1016,2 hPa 0,4 l/m 16,1 km/h (3 Bft) W-SW 257 0 min 0,000 mm 0,0 UV-I 0 W/m 12,1 C 8,9 C 25,7 km/h (4 Bft) 100,00 %
15.07.2017 04:54 13,4 C 22,2 C 92 % 1016,2 hPa 0,8 l/m 13,8 km/h (3 Bft) W 273 0 min 0,000 mm 0,0 UV-I 0 W/m 12,1 C 9,7 C 22,5 km/h (4 Bft) 97,37 %
15.07.2017 04:56 13,4 C 22,2 C 92 % 1016,2 hPa 0,4 l/m 12,9 km/h (3 Bft) S-SW 205 0 min 0,000 mm 0,0 UV-I 0 W/m 12,1 C 10,1 C 17,7 km/h (3 Bft) 100,00 %
15.07.2017 04:58 13,4 C 22,2 C 92 % 1016,1 hPa 0,2 l/m 13,3 km/h (3 Bft) S-SW 213 0 min 0,000 mm 0,0 UV-I 0 W/m 12,1 C 9,9 C 19,3 km/h (3 Bft) 98,31 %
15.07.2017 05:00 13,3 C 22,2 C 92 % 1016,2 hPa 0,2 l/m 13,3 km/h (3 Bft) SW 231 0 min 0,025 mm 0,0 UV-I 0 W/m 12,0 C 9,8 C 19,3 km/h (3 Bft) 97,37 %
15.07.2017 05:02 13,3 C 22,2 C 92 % 1016,1 hPa 0,0 l/m 11,9 km/h (2 Bft) SW 235 0 min 0,000 mm 0,0 UV-I 0 W/m 12,0 C 10,4 C 20,9 km/h (4 Bft) 100,00 %
15.07.2017 05:04 13,3 C 22,2 C 92 % 1016,0 hPa 0,6 l/m 12,6 km/h (3 Bft) S 177 0 min 0,000 mm 0,0 UV-I 0 W/m 12,0 C 10,1 C 20,9 km/h (4 Bft) 97,56 %
15.07.2017 05:06 13,2 C 22,2 C 92 % 1015,9 hPa 0,2 l/m 12,1 km/h (2 Bft) SW 220 0 min 0,000 mm 0,0 UV-I 0 W/m 11,9 C 10,2 C 20,9 km/h (4 Bft) 100,00 %
15.07.2017 05:08 13,2 C 22,2 C 92 % 1015,9 hPa 0,0 l/m 11,2 km/h (2 Bft) W 265 0 min 0,000 mm 0,0 UV-I 0 W/m 11,9 C 10,6 C 16,1 km/h (3 Bft) 98,00 %
15.07.2017 05:10 13,1 C 22,2 C 92 % 1015,9 hPa 0,2 l/m 11,8 km/h (2 Bft) SW 215 0 min 0,000 mm 0,0 UV-I 0 W/m 11,8 C 10,2 C 17,7 km/h (3 Bft) 98,00 %
15.07.2017 05:12 13,1 C 22,2 C 91 % 1015,9 hPa 0,0 l/m 9,9 km/h (2 Bft) SW 227 0 min 0,000 mm 0,0 UV-I 0 W/m 11,7 C 11,1 C 16,1 km/h (3 Bft) 100,00 %
15.07.2017 05:14 13,1 C 22,2 C 91 % 1016,0 hPa 0,0 l/m 8,9 km/h (2 Bft) S-SW 213 0 min 0,000 mm 0,0 UV-I 0 W/m 11,7 C 11,6 C 12,9 km/h (3 Bft) 96,00 %
15.07.2017 05:16 13,0 C 22,2 C 91 % 1016,0 hPa 0,0 l/m 10,6 km/h (2 Bft) SW 223 0 min 0,000 mm 0,0 UV-I 0 W/m 11,6 C 10,6 C 16,1 km/h (3 Bft) 100,00 %
15.07.2017 05:18 13,0 C 22,2 C 92 % 1016,1 hPa 0,0 l/m 9,6 km/h (2 Bft) SW 221 0 min 0,000 mm 0,0 UV-I 3 W/m 11,7 C 11,1 C 14,5 km/h (3 Bft) 95,74 %
15.07.2017 05:20 13,0 C 22,2 C 92 % 1016,1 hPa 0,0 l/m 9,1 km/h (2 Bft) SW 224 0 min 0,000 mm 0,0 UV-I 5 W/m 11,7 C 11,4 C 14,5 km/h (3 Bft) 96,00 %
15.07.2017 05:22 13,0 C 22,2 C 92 % 1016,1 hPa 0,0 l/m 10,3 km/h (2 Bft) SW 229 0 min 0,000 mm 0,0 UV-I 5 W/m 11,7 C 10,8 C 16,1 km/h (3 Bft) 98,00 %
15.07.2017 05:24 12,9 C 22,2 C 92 % 1016,0 hPa 0,0 l/m 10,3 km/h (2 Bft) SW 220 0 min 0,000 mm 0,0 UV-I 5 W/m 11,6 C 10,6 C 16,1 km/h (3 Bft) 100,00 %
15.07.2017 05:26 12,9 C 22,2 C 92 % 1016,1 hPa 0,0 l/m 11,8 km/h (2 Bft) SW 235 0 min 0,000 mm 0,0 UV-I 5 W/m 11,6 C 9,9 C 16,1 km/h (3 Bft) 97,62 %
15.07.2017 05:28 12,9 C 22,2 C 92 % 1016,3 hPa 0,0 l/m 10,4 km/h (2 Bft) SW 229 0 min 0,000 mm 0,0 UV-I 5 W/m 11,6 C 10,6 C 14,5 km/h (3 Bft) 100,00 %
15.07.2017 05:30 12,9 C 22,2 C 92 % 1016,3 hPa 0,0 l/m 8,2 km/h (2 Bft) W-SW 237 0 min 0,000 mm 0,0 UV-I 5 W/m 11,6 C 11,8 C 12,9 km/h (3 Bft) 97,22 %
15.07.2017 05:32 12,9 C 22,2 C 92 % 1016,3 hPa 0,0 l/m 8,9 km/h (2 Bft) S-SW 207 0 min 0,000 mm 0,0 UV-I 5 W/m 11,6 C 11,4 C 16,1 km/h (3 Bft) 100,00 %
15.07.2017 05:34 12,9 C 22,2 C 92 % 1016,4 hPa 0,0 l/m 10,5 km/h (2 Bft) W-SW 240 0 min 0,000 mm 0,0 UV-I 5 W/m 11,6 C 10,5 C 14,5 km/h (3 Bft) 96,55 %
15.07.2017 05:36 12,9 C 22,2 C 92 % 1016,5 hPa 0,0 l/m 9,1 km/h (2 Bft) SW 216 0 min 0,000 mm 0,0 UV-I 7 W/m 11,6 C 11,3 C 14,5 km/h (3 Bft) 98,21 %
15.07.2017 05:38 12,8 C 22,2 C 92 % 1016,5 hPa 0,0 l/m 7,7 km/h (2 Bft) W-SW 240 0 min 0,000 mm 0,0 UV-I 7 W/m 11,5 C 12,0 C 11,3 km/h (2 Bft) 100,00 %
15.07.2017 05:40 12,8 C 22,2 C 92 % 1016,5 hPa 0,0 l/m 6,9 km/h (2 Bft) SW 235 0 min 0,000 mm 0,0 UV-I 8 W/m 11,5 C 12,5 C 11,3 km/h (2 Bft) 97,56 %
15.07.2017 05:42 12,8 C 22,2 C 92 % 1016,5 hPa 0,0 l/m 7,0 km/h (2 Bft) SW 232 0 min 0,000 mm 0,0 UV-I 9 W/m 11,5 C 12,4 C 12,9 km/h (3 Bft) 100,00 %
15.07.2017 05:44 12,8 C 22,2 C 93 % 1016,6 hPa 0,0 l/m 6,0 km/h (2 Bft) W-SW 238 0 min 0,000 mm 0,0 UV-I 7 W/m 11,7 C 12,8 C 11,3 km/h (2 Bft) 98,00 %
15.07.2017 05:46 12,8 C 22,2 C 93 % 1016,6 hPa 0,0 l/m 6,8 km/h (2 Bft) W-SW 256 0 min 0,000 mm 0,0 UV-I 7 W/m 11,7 C 12,6 C 12,9 km/h (3 Bft) 97,73 %
15.07.2017 05:48 12,8 C 22,2 C 93 % 1016,6 hPa 0,0 l/m 9,5 km/h (2 Bft) W-SW 252 0 min 0,000 mm 0,0 UV-I 7 W/m 11,7 C 10,9 C 12,9 km/h (3 Bft) 100,00 %
15.07.2017 05:50 12,8 C 22,2 C 93 % 1016,7 hPa 0,0 l/m 7,9 km/h (2 Bft) W 266 0 min 0,000 mm 0,0 UV-I 7 W/m 11,7 C 11,9 C 11,3 km/h (2 Bft) 100,00 %
15.07.2017 05:52 12,8 C 22,2 C 93 % 1016,7 hPa 0,0 l/m 8,6 km/h (2 Bft) SW 218 0 min 0,000 mm 0,0 UV-I 9 W/m 11,7 C 11,4 C 11,3 km/h (2 Bft) 98,00 %
15.07.2017 05:54 12,8 C 22,2 C 93 % 1016,7 hPa 0,0 l/m 7,4 km/h (2 Bft) SW 232 0 min 0,000 mm 0,0 UV-I 9 W/m 11,7 C 12,2 C 11,3 km/h (2 Bft) 100,00 %
15.07.2017 05:56 12,8 C 22,2 C 93 % 1016,6 hPa 0,0 l/m 7,8 km/h (2 Bft) SW 224 0 min 0,000 mm 0,0 UV-I 9 W/m 11,7 C 11,9 C 11,3 km/h (2 Bft) 94,74 %
15.07.2017 05:58 12,8 C 22,2 C 93 % 1016,6 hPa 0,0 l/m 6,8 km/h (2 Bft) SW 225 0 min 0,000 mm 0,0 UV-I 10 W/m 11,7 C 12,6 C 11,3 km/h (2 Bft) 100,00 %
15.07.2017 06:00 12,8 C 22,2 C 93 % 1016,7 hPa 0,0 l/m 7,9 km/h (2 Bft) SW 228 0 min 0,000 mm 0,0 UV-I 11 W/m 11,7 C 11,9 C 12,9 km/h (3 Bft) 96,00 %
15.07.2017 06:02 12,8 C 22,2 C 93 % 1016,7 hPa 0,0 l/m 6,8 km/h (2 Bft) W-SW 250 0 min 0,000 mm 0,0 UV-I 11 W/m 11,7 C 12,6 C 11,3 km/h (2 Bft) 95,74 %
15.07.2017 06:04 12,8 C 22,2 C 93 % 1016,7 hPa 0,0 l/m 8,4 km/h (2 Bft) SW 229 0 min 0,000 mm 0,0 UV-I 13 W/m 11,7 C 11,6 C 11,3 km/h (2 Bft) 94,00 %
15.07.2017 06:06 12,8 C 22,2 C 92 % 1016,7 hPa 0,0 l/m 7,1 km/h (2 Bft) SW 227 0 min 0,000 mm 0,0 UV-I 16 W/m 11,5 C 12,4 C 9,7 km/h (2 Bft) 97,44 %
15.07.2017 06:08 12,8 C 22,2 C 92 % 1016,7 hPa 0,0 l/m 7,3 km/h (2 Bft) W-SW 239 0 min 0,000 mm 0,0 UV-I 19 W/m 11,5 C 12,2 C 11,3 km/h (2 Bft) 96,23 %
15.07.2017 06:10 12,8 C 22,2 C 92 % 1016,7 hPa 0,0 l/m 8,2 km/h (2 Bft) SW 219 0 min 0,000 mm 0,0 UV-I 24 W/m 11,5 C 11,7 C 12,9 km/h (3 Bft) 97,37 %
15.07.2017 06:12 12,8 C 22,2 C 92 % 1016,7 hPa 0,0 l/m 7,7 km/h (2 Bft) SW 236 0 min 0,000 mm 0,0 UV-I 29 W/m 11,5 C 12,0 C 12,9 km/h (3 Bft) 98,21 %
15.07.2017 06:14 12,8 C 22,2 C 92 % 1016,8 hPa 0,0 l/m 8,2 km/h (2 Bft) SW 229 0 min 0,000 mm 0,0 UV-I 33 W/m 11,5 C 11,7 C 12,9 km/h (3 Bft) 95,74 %
15.07.2017 06:16 12,8 C 22,2 C 92 % 1016,9 hPa 0,0 l/m 8,7 km/h (2 Bft) SW 216 0 min 0,000 mm 0,0 UV-I 32 W/m 11,5 C 11,4 C 12,9 km/h (3 Bft) 94,74 %
15.07.2017 06:18 12,8 C 22,2 C 92 % 1016,9 hPa 0,0 l/m 5,8 km/h (2 Bft) SW 225 0 min 0,000 mm 0,0 UV-I 32 W/m 11,5 C 12,8 C 9,7 km/h (2 Bft) 98,00 %
15.07.2017 06:20 12,8 C 22,2 C 92 % 1016,9 hPa 0,0 l/m 9,2 km/h (2 Bft) SW 229 0 min 0,000 mm 0,0 UV-I 41 W/m 11,5 C 11,1 C 12,9 km/h (3 Bft) 96,23 %
15.07.2017 06:22 12,8 C 22,2 C 92 % 1016,9 hPa 0,0 l/m 7,9 km/h (2 Bft) W-SW 238 0 min 0,000 mm 0,0 UV-I 44 W/m 11,5 C 11,9 C 11,3 km/h (2 Bft) 86,36 %
15.07.2017 06:24 12,9 C 21,7 C 92 % 1017,0 hPa 0,0 l/m 6,8 km/h (2 Bft) W-SW 248 0 min 0,000 mm 0,0 UV-I 42 W/m 11,6 C 12,7 C 11,3 km/h (2 Bft) 95,12 %
15.07.2017 06:26 12,9 C 21,7 C 92 % 1016,9 hPa 0,0 l/m 7,1 km/h (2 Bft) S-SW 199 0 min 0,000 mm 0,0 UV-I 48 W/m 11,6 C 12,5 C 12,9 km/h (3 Bft) 92,86 %
15.07.2017 06:28 12,9 C 21,7 C 92 % 1017,0 hPa 0,0 l/m 6,9 km/h (2 Bft) S-SW 207 0 min 0,000 mm 0,0 UV-I 54 W/m 11,6 C 12,6 C 11,3 km/h (2 Bft) 97,56 %
15.07.2017 06:30 12,9 C 21,7 C 92 % 1017,0 hPa 0,0 l/m 7,5 km/h (2 Bft) W-SW 240 0 min 0,000 mm 0,0 UV-I 52 W/m 11,6 C 12,2 C 12,9 km/h (3 Bft) 91,49 %
15.07.2017 06:32 12,9 C 21,7 C 92 % 1016,9 hPa 0,0 l/m 7,4 km/h (2 Bft) SW 229 0 min 0,000 mm 0,0 UV-I 47 W/m 11,6 C 12,3 C 12,9 km/h (3 Bft) 92,00 %
15.07.2017 06:34 12,9 C 21,7 C 92 % 1016,9 hPa 0,0 l/m 8,3 km/h (2 Bft) SW 224 0 min 0,000 mm 0,0 UV-I 40 W/m 11,6 C 11,7 C 11,3 km/h (2 Bft) 95,12 %
15.07.2017 06:36 12,9 C 21,7 C 92 % 1016,9 hPa 0,0 l/m 9,3 km/h (2 Bft) W-SW 244 0 min 0,000 mm 0,0 UV-I 43 W/m 11,6 C 11,2 C 11,3 km/h (2 Bft) 98,21 %
15.07.2017 06:38 12,9 C 21,7 C 92 % 1017,0 hPa 0,0 l/m 9,3 km/h (2 Bft) SW 225 0 min 0,000 mm 0,0 UV-I 47 W/m 11,6 C 11,2 C 12,9 km/h (3 Bft) 96,30 %
15.07.2017 06:40 12,9 C 21,7 C 92 % 1017,0 hPa 0,0 l/m 8,3 km/h (2 Bft) SW 228 0 min 0,000 mm 0,0 UV-I 50 W/m 11,6 C 11,7 C 11,3 km/h (2 Bft) 95,52 %
15.07.2017 06:42 13,0 C 21,7 C 92 % 1017,0 hPa 0,0 l/m 6,4 km/h (2 Bft) S 182 0 min 0,000 mm 0,0 UV-I 46 W/m 11,7 C 13,0 C 11,3 km/h (2 Bft) 93,62 %
15.07.2017 06:44 13,0 C 21,7 C 92 % 1017,0 hPa 0,0 l/m 8,3 km/h (2 Bft) W-SW 246 0 min 0,000 mm 0,0 UV-I 38 W/m 11,7 C 11,8 C 12,9 km/h (3 Bft) 94,44 %
15.07.2017 06:46 13,0 C 21,7 C 92 % 1017,0 hPa 0,0 l/m 9,9 km/h (2 Bft) W-SW 244 0 min 0,000 mm 0,0 UV-I 38 W/m 11,7 C 11,0 C 16,1 km/h (3 Bft) 94,34 %
15.07.2017 06:48 13,0 C 21,7 C 91 % 1017,0 hPa 0,0 l/m 7,9 km/h (2 Bft) SW 236 0 min 0,000 mm 0,0 UV-I 39 W/m 11,6 C 12,1 C 12,9 km/h (3 Bft) 94,23 %
15.07.2017 06:50 13,0 C 21,7 C 91 % 1017,1 hPa 0,0 l/m 9,7 km/h (2 Bft) W-SW 238 0 min 0,000 mm 0,0 UV-I 41 W/m 11,6 C 11,1 C 16,1 km/h (3 Bft) 100,00 %
15.07.2017 06:52 13,0 C 21,7 C 91 % 1017,0 hPa 0,0 l/m 9,6 km/h (2 Bft) SW 228 0 min 0,000 mm 0,0 UV-I 52 W/m 11,6 C 11,1 C 14,5 km/h (3 Bft) 94,34 %
15.07.2017 06:54 13,0 C 21,7 C 91 % 1017,0 hPa 0,0 l/m 8,8 km/h (2 Bft) SW 225 0 min 0,000 mm 0,0 UV-I 55 W/m 11,6 C 11,5 C 14,5 km/h (3 Bft) 97,73 %
15.07.2017 06:56 13,0 C 21,7 C 91 % 1017,0 hPa 0,0 l/m 11,3 km/h (2 Bft) SW 226 0 min 0,000 mm 0,0 UV-I 51 W/m 11,6 C 10,3 C 17,7 km/h (3 Bft) 97,56 %
15.07.2017 06:58 13,0 C 21,7 C 91 % 1017,0 hPa 0,0 l/m 13,3 km/h (3 Bft) SW 215 0 min 0,000 mm 0,0 UV-I 51 W/m 11,6 C 9,4 C 19,3 km/h (3 Bft) 95,74 %
15.07.2017 07:00 12,9 C 21,7 C 91 % 1017,1 hPa 0,0 l/m 11,2 km/h (2 Bft) SW 219 0 min 0,000 mm 0,0 UV-I 63 W/m 11,5 C 10,2 C 16,1 km/h (3 Bft) 93,18 %
15.07.2017 07:02 12,9 C 21,7 C 91 % 1017,2 hPa 0,0 l/m 9,4 km/h (2 Bft) W 271 0 min 0,026 mm 0,0 UV-I 60 W/m 11,5 C 11,1 C 16,1 km/h (3 Bft) 92,45 %
15.07.2017 07:04 12,9 C 21,7 C 92 % 1017,2 hPa 0,0 l/m 10,0 km/h (2 Bft) SW 217 0 min 0,000 mm 0,0 UV-I 62 W/m 11,6 C 10,8 C 16,1 km/h (3 Bft) 95,45 %
15.07.2017 07:06 12,9 C 21,7 C 92 % 1017,2 hPa 0,0 l/m 8,3 km/h (2 Bft) W 267 0 min 0,000 mm 0,0 UV-I 74 W/m 11,6 C 11,7 C 12,9 km/h (3 Bft) 92,11 %
15.07.2017 07:08 12,9 C 21,7 C 92 % 1017,2 hPa 0,0 l/m 8,2 km/h (2 Bft) SW 228 0 min 0,000 mm 0,0 UV-I 77 W/m 11,6 C 11,8 C 12,9 km/h (3 Bft) 98,11 %
15.07.2017 07:10 12,9 C 21,7 C 92 % 1017,2 hPa 0,2 l/m 7,8 km/h (2 Bft) SW 227 0 min 0,000 mm 0,0 UV-I 70 W/m 11,6 C 12,0 C 11,3 km/h (2 Bft) 92,86 %
15.07.2017 07:12 12,9 C 21,7 C 92 % 1017,2 hPa 0,0 l/m 5,7 km/h (1 Bft) SW 229 0 min 0,000 mm 0,0 UV-I 61 W/m 11,6 C 12,9 C 9,7 km/h (2 Bft) 94,00 %
15.07.2017 07:14 12,9 C 21,7 C 92 % 1017,2 hPa 0,0 l/m 9,8 km/h (2 Bft) SW 235 0 min 0,000 mm 0,0 UV-I 45 W/m 11,6 C 10,9 C 17,7 km/h (3 Bft) 97,56 %
15.07.2017 07:16 12,9 C 21,7 C 92 % 1017,2 hPa 0,0 l/m 6,9 km/h (2 Bft) S-SW 211 0 min 0,000 mm 0,0 UV-I 41 W/m 11,6 C 12,6 C 12,9 km/h (3 Bft) 96,00 %
15.07.2017 07:18 12,9 C 21,7 C 92 % 1017,2 hPa 0,0 l/m 9,3 km/h (2 Bft) W-SW 238 0 min 0,000 mm 0,0 UV-I 37 W/m 11,6 C 11,2 C 14,5 km/h (3 Bft) 95,12 %
15.07.2017 07:20 12,9 C 21,7 C 92 % 1017,2 hPa 0,0 l/m 8,3 km/h (2 Bft) W-SW 252 0 min 0,000 mm 0,0 UV-I 42 W/m 11,6 C 11,7 C 12,9 km/h (3 Bft) 98,00 %
15.07.2017 07:22 12,8 C 21,7 C 92 % 1017,2 hPa 0,0 l/m 9,9 km/h (2 Bft) W-SW 246 0 min 0,000 mm 0,0 UV-I 42 W/m 11,5 C 10,7 C 14,5 km/h (3 Bft) 96,00 %
15.07.2017 07:24 12,8 C 21,7 C 92 % 1017,3 hPa 0,0 l/m 11,8 km/h (2 Bft) W-SW 245 0 min 0,000 mm 0,0 UV-I 26 W/m 11,5 C 9,8 C 20,9 km/h (4 Bft) 94,87 %
15.07.2017 07:26 12,9 C 21,7 C 92 % 1017,3 hPa 0,0 l/m 11,9 km/h (2 Bft) W-SW 248 0 min 0,000 mm 0,0 UV-I 25 W/m 11,6 C 9,9 C 17,7 km/h (3 Bft) 97,87 %
15.07.2017 07:28 12,8 C 21,7 C 92 % 1017,3 hPa 0,0 l/m 10,1 km/h (2 Bft) W-SW 254 0 min 0,000 mm 0,0 UV-I 29 W/m 11,5 C 10,6 C 14,5 km/h (3 Bft) 98,00 %
15.07.2017 07:30 12,8 C 21,7 C 92 % 1017,4 hPa 0,0 l/m 9,4 km/h (2 Bft) SW 215 0 min 0,000 mm 0,0 UV-I 35 W/m 11,5 C 11,0 C 14,5 km/h (3 Bft) 97,87 %
15.07.2017 07:32 12,8 C 21,7 C 92 % 1017,3 hPa 0,0 l/m 11,4 km/h (2 Bft) SW 231 0 min 0,000 mm 0,0 UV-I 33 W/m 11,5 C 10,0 C 19,3 km/h (3 Bft) 96,00 %
15.07.2017 07:34 12,8 C 21,7 C 93 % 1017,4 hPa 0,0 l/m 9,1 km/h (2 Bft) SW 219 0 min 0,000 mm 0,0 UV-I 37 W/m 11,7 C 11,2 C 14,5 km/h (3 Bft) 100,00 %
15.07.2017 07:36 12,8 C 21,7 C 93 % 1017,4 hPa 0,0 l/m 11,1 km/h (2 Bft) W-SW 248 0 min 0,000 mm 0,0 UV-I 39 W/m 11,7 C 10,1 C 20,9 km/h (4 Bft) 97,56 %
15.07.2017 07:38 12,7 C 21,7 C 93 % 1017,4 hPa 0,0 l/m 9,7 km/h (2 Bft) S-SW 204 0 min 0,000 mm 0,0 UV-I 35 W/m 11,6 C 10,7 C 14,5 km/h (3 Bft) 98,21 %
15.07.2017 07:40 12,7 C 21,7 C 93 % 1017,4 hPa 0,0 l/m 8,9 km/h (2 Bft) SW 232 0 min 0,000 mm 0,0 UV-I 30 W/m 11,6 C 11,2 C 14,5 km/h (3 Bft) 97,87 %
15.07.2017 07:42 12,7 C 21,7 C 93 % 1017,5 hPa 0,0 l/m 9,5 km/h (2 Bft) SW 235 0 min 0,000 mm 0,0 UV-I 31 W/m 11,6 C 10,8 C 14,5 km/h (3 Bft) 97,56 %
15.07.2017 07:44 12,7 C 21,7 C 93 % 1017,4 hPa 0,0 l/m 9,4 km/h (2 Bft) W-SW 246 0 min 0,000 mm 0,0 UV-I 33 W/m 11,6 C 10,9 C 14,5 km/h (3 Bft) 100,00 %
15.07.2017 07:46 12,7 C 21,7 C 93 % 1017,3 hPa 0,2 l/m 12,2 km/h (2 Bft) SW 221 0 min 0,000 mm 0,0 UV-I 38 W/m 11,6 C 9,5 C 17,7 km/h (3 Bft) 100,00 %
15.07.2017 07:48 12,7 C 21,7 C 93 % 1017,4 hPa 0,0 l/m 11,2 km/h (2 Bft) SW 232 0 min 0,000 mm 0,0 UV-I 39 W/m 11,6 C 10,0 C 17,7 km/h (3 Bft) 100,00 %
15.07.2017 07:50 12,7 C 21,7 C 93 % 1017,4 hPa 0,0 l/m 9,9 km/h (2 Bft) W-SW 239 0 min 0,000 mm 0,0 UV-I 41 W/m 11,6 C 10,6 C 16,1 km/h (3 Bft) 100,00 %
15.07.2017 07:52 12,7 C 21,7 C 93 % 1017,4 hPa 0,0 l/m 8,7 km/h (2 Bft) S 186 0 min 0,000 mm 0,0 UV-I 48 W/m 11,6 C 11,3 C 14,5 km/h (3 Bft) 97,56 %
15.07.2017 07:54 12,7 C 21,7 C 94 % 1017,3 hPa 0,0 l/m 11,5 km/h (2 Bft) S-SW 194 0 min 0,000 mm 0,0 UV-I 62 W/m 11,8 C 9,8 C 17,7 km/h (3 Bft) 92,00 %
15.07.2017 07:56 12,6 C 21,7 C 94 % 1017,3 hPa 0,2 l/m 13,4 km/h (3 Bft) S-SW 208 0 min 0,000 mm 0,0 UV-I 68 W/m 11,7 C 8,9 C 19,3 km/h (3 Bft) 95,74 %
15.07.2017 07:58 12,6 C 21,7 C 94 % 1017,3 hPa 0,0 l/m 10,0 km/h (2 Bft) SW 223 0 min 0,000 mm 0,0 UV-I 63 W/m 11,7 C 10,5 C 14,5 km/h (3 Bft) 95,74 %
15.07.2017 08:00 12,6 C 21,7 C 94 % 1017,3 hPa 0,2 l/m 9,4 km/h (2 Bft) S-SW 192 0 min 0,025 mm 0,0 UV-I 60 W/m 11,7 C 10,8 C 17,7 km/h (3 Bft) 96,30 %
15.07.2017 08:02 12,6 C 21,7 C 94 % 1017,3 hPa 0,0 l/m 6,6 km/h (2 Bft) W-SW 244 0 min 0,000 mm 0,0 UV-I 61 W/m 11,7 C 12,5 C 12,9 km/h (3 Bft) 100,00 %
15.07.2017 08:04 12,6 C 21,7 C 94 % 1017,4 hPa 0,2 l/m 10,4 km/h (2 Bft) W-SW 250 0 min 0,000 mm 0,0 UV-I 62 W/m 11,7 C 10,3 C 14,5 km/h (3 Bft) 97,73 %
15.07.2017 08:06 12,6 C 21,7 C 94 % 1017,5 hPa 0,0 l/m 10,4 km/h (2 Bft) W-SW 246 0 min 0,000 mm 0,0 UV-I 52 W/m 11,7 C 10,3 C 14,5 km/h (3 Bft) 96,23 %
15.07.2017 08:08 12,6 C 21,7 C 94 % 1017,5 hPa 0,0 l/m 7,0 km/h (2 Bft) W-SW 242 0 min 0,000 mm 0,0 UV-I 47 W/m 11,7 C 12,2 C 12,9 km/h (3 Bft) 96,23 %
15.07.2017 08:10 12,6 C 21,7 C 94 % 1017,5 hPa 0,0 l/m 7,3 km/h (2 Bft) SW 227 0 min 0,000 mm 0,0 UV-I 46 W/m 11,7 C 12,0 C 12,9 km/h (3 Bft) 95,74 %
15.07.2017 08:13 12,5 C 21,7 C 94 % 1017,5 hPa 0,0 l/m 8,9 km/h (2 Bft) SW 232 0 min 0,000 mm 0,0 UV-I 42 W/m 11,6 C 11,0 C 14,5 km/h (3 Bft) 96,55 %
15.07.2017 08:14 12,5 C 21,7 C 94 % 1017,5 hPa 0,0 l/m 10,5 km/h (2 Bft) W-SW 242 0 min 0,000 mm 0,0 UV-I 47 W/m 11,6 C 10,1 C 17,7 km/h (3 Bft) 93,33 %
15.07.2017 08:16 12,5 C 21,7 C 94 % 1017,6 hPa 0,0 l/m 8,2 km/h (2 Bft) SW 225 0 min 0,000 mm 0,0 UV-I 61 W/m 11,6 C 11,4 C 14,5 km/h (3 Bft) 96,00 %
15.07.2017 08:18 12,6 C 21,7 C 95 % 1017,6 hPa 0,0 l/m 8,1 km/h (2 Bft) SW 222 0 min 0,000 mm 0,0 UV-I 74 W/m 11,8 C 11,5 C 14,5 km/h (3 Bft) 95,12 %
15.07.2017 08:20 12,6 C 21,7 C 94 % 1017,6 hPa 0,0 l/m 6,3 km/h (2 Bft) SW 230 0 min 0,000 mm 0,0 UV-I 80 W/m 11,7 C 12,6 C 12,9 km/h (3 Bft) 96,00 %
15.07.2017 08:22 12,6 C 21,7 C 94 % 1017,6 hPa 0,0 l/m 11,2 km/h (2 Bft) SW 220 0 min 0,000 mm 0,0 UV-I 87 W/m 11,7 C 9,9 C 16,1 km/h (3 Bft) 95,45 %
15.07.2017 08:24 12,6 C 21,7 C 95 % 1017,6 hPa 0,0 l/m 10,5 km/h (2 Bft) SW 229 0 min 0,000 mm 0,0 UV-I 95 W/m 11,8 C 10,2 C 14,5 km/h (3 Bft) 96,00 %
15.07.2017 08:26 12,6 C 21,7 C 95 % 1017,6 hPa 0,0 l/m 7,5 km/h (2 Bft) SW 219 0 min 0,000 mm 0,5 UV-I 122 W/m 11,8 C 11,9 C 11,3 km/h (2 Bft) 98,00 %
15.07.2017 08:28 12,7 C 21,7 C 95 % 1017,7 hPa 0,0 l/m 10,6 km/h (2 Bft) W-SW 255 0 min 0,000 mm 0,6 UV-I 132 W/m 11,9 C 10,3 C 16,1 km/h (3 Bft) 97,56 %
15.07.2017 08:30 12,7 C 21,7 C 95 % 1017,7 hPa 0,0 l/m 11,7 km/h (2 Bft) W-SW 242 0 min 0,000 mm 0,6 UV-I 129 W/m 11,9 C 9,8 C 17,7 km/h (3 Bft) 88,00 %
15.07.2017 08:32 12,8 C 21,7 C 95 % 1017,7 hPa 0,0 l/m 12,4 km/h (3 Bft) S-SW 207 0 min 0,000 mm 0,6 UV-I 131 W/m 12,0 C 9,6 C 16,1 km/h (3 Bft) 95,12 %
15.07.2017 08:34 12,8 C 21,7 C 95 % 1017,7 hPa 0,0 l/m 15,6 km/h (3 Bft) W-SW 238 0 min 0,000 mm 0,7 UV-I 156 W/m 12,0 C 8,3 C 20,9 km/h (4 Bft) 95,74 %
15.07.2017 08:36 12,8 C 21,7 C 95 % 1017,7 hPa 0,0 l/m 12,9 km/h (3 Bft) S-SW 213 0 min 0,000 mm 0,7 UV-I 181 W/m 12,0 C 9,4 C 19,3 km/h (3 Bft) 100,00 %
15.07.2017 08:38 12,9 C 21,7 C 95 % 1017,7 hPa 0,0 l/m 12,6 km/h (3 Bft) SW 224 0 min 0,000 mm 0,7 UV-I 181 W/m 12,1 C 9,6 C 17,7 km/h (3 Bft) 95,83 %
15.07.2017 08:40 13,0 C 21,7 C 95 % 1017,7 hPa 0,0 l/m 10,0 km/h (2 Bft) SW 220 0 min 0,000 mm 0,6 UV-I 156 W/m 12,2 C 10,9 C 19,3 km/h (3 Bft) 98,44 %
15.07.2017 08:43 13,1 C 21,7 C 94 % 1017,8 hPa 0,0 l/m 18,0 km/h (3 Bft) SW 223 0 min 0,000 mm 0,3 UV-I 125 W/m 12,2 C 7,9 C 29,0 km/h (5 Bft) 100,00 %
15.07.2017 08:44 13,1 C 21,7 C 94 % 1017,8 hPa 0,0 l/m 19,4 km/h (3 Bft) W-SW 254 0 min 0,000 mm 0,0 UV-I 101 W/m 12,2 C 7,5 C 20,9 km/h (4 Bft) 95,83 %
15.07.2017 08:46 13,1 C 21,7 C 94 % 1017,8 hPa 0,0 l/m 13,2 km/h (3 Bft) W 268 0 min 0,000 mm 0,0 UV-I 102 W/m 12,2 C 9,6 C 19,3 km/h (3 Bft) 100,00 %
15.07.2017 08:48 13,1 C 21,7 C 94 % 1017,8 hPa 0,0 l/m 11,1 km/h (2 Bft) SW 235 0 min 0,000 mm 0,0 UV-I 104 W/m 12,2 C 10,5 C 17,7 km/h (3 Bft) 100,00 %
15.07.2017 08:50 13,1 C 21,7 C 94 % 1017,8 hPa 0,0 l/m 18,0 km/h (3 Bft) SW 235 0 min 0,000 mm 0,0 UV-I 92 W/m 12,2 C 7,9 C 24,1 km/h (4 Bft) 97,73 %
15.07.2017 08:52 13,1 C 21,7 C 94 % 1018,0 hPa 0,0 l/m 13,4 km/h (3 Bft) W 276 0 min 0,000 mm 0,0 UV-I 76 W/m 12,2 C 9,5 C 20,9 km/h (4 Bft) 97,87 %
15.07.2017 08:54 13,1 C 21,7 C 94 % 1018,0 hPa 0,0 l/m 13,8 km/h (3 Bft) S-SW 197 0 min 0,000 mm 0,0 UV-I 63 W/m 12,2 C 9,3 C 17,7 km/h (3 Bft) 100,00 %
15.07.2017 08:56 13,1 C 21,7 C 94 % 1018,0 hPa 0,0 l/m 13,3 km/h (3 Bft) SW 229 0 min 0,000 mm 0,0 UV-I 67 W/m 12,2 C 9,5 C 24,1 km/h (4 Bft) 97,87 %
15.07.2017 08:58 13,1 C 21,7 C 94 % 1018,1 hPa 0,0 l/m 11,0 km/h (2 Bft) SW 233 0 min 0,000 mm 0,2 UV-I 96 W/m 12,2 C 10,5 C 17,7 km/h (3 Bft) 100,00 %
15.07.2017 09:00 13,1 C 21,7 C 94 % 1018,1 hPa 0,0 l/m 12,9 km/h (3 Bft) W-SW 258 0 min 0,051 mm 0,0 UV-I 76 W/m 12,2 C 9,7 C 20,9 km/h (4 Bft) 98,00 %
15.07.2017 09:02 13,2 C 21,7 C 94 % 1018,1 hPa 0,0 l/m 11,0 km/h (2 Bft) W-SW 254 0 min 0,000 mm 0,0 UV-I 60 W/m 12,3 C 10,6 C 17,7 km/h (3 Bft) 98,00 %
15.07.2017 09:04 13,2 C 21,7 C 94 % 1018,2 hPa 0,0 l/m 10,8 km/h (2 Bft) W-SW 240 0 min 0,000 mm 0,0 UV-I 62 W/m 12,3 C 10,7 C 17,7 km/h (3 Bft) 97,73 %
15.07.2017 09:06 13,2 C 21,7 C 93 % 1018,2 hPa 0,0 l/m 12,6 km/h (3 Bft) W-SW 248 0 min 0,000 mm 0,0 UV-I 78 W/m 12,1 C 9,9 C 22,5 km/h (4 Bft) 100,00 %
15.07.2017 09:08 13,2 C 21,7 C 94 % 1018,2 hPa 0,0 l/m 12,7 km/h (3 Bft) W-SW 244 0 min 0,000 mm 0,4 UV-I 115 W/m 12,3 C 9,9 C 16,1 km/h (3 Bft) 98,00 %
15.07.2017 09:10 13,3 C 21,7 C 94 % 1018,3 hPa 0,0 l/m 11,1 km/h (2 Bft) W-SW 247 0 min 0,000 mm 0,7 UV-I 164 W/m 12,4 C 10,7 C 17,7 km/h (3 Bft) 100,00 %
15.07.2017 09:12 13,3 C 21,7 C 94 % 1018,3 hPa 0,0 l/m 14,0 km/h (3 Bft) W 262 0 min 0,000 mm 0,9 UV-I 201 W/m 12,4 C 9,5 C 22,5 km/h (4 Bft) 97,37 %
15.07.2017 09:14 13,4 C 21,7 C 94 % 1018,3 hPa 0,0 l/m 15,0 km/h (3 Bft) W-SW 246 0 min 0,000 mm 0,7 UV-I 152 W/m 12,5 C 9,3 C 20,9 km/h (4 Bft) 98,31 %
15.07.2017 09:16 13,4 C 21,7 C 94 % 1018,4 hPa 0,0 l/m 14,7 km/h (3 Bft) W-SW 244 0 min 0,000 mm 0,5 UV-I 116 W/m 12,5 C 9,4 C 22,5 km/h (4 Bft) 100,00 %
15.07.2017 09:18 13,4 C 21,7 C 93 % 1018,4 hPa 0,0 l/m 11,4 km/h (2 Bft) W-SW 257 0 min 0,000 mm 0,5 UV-I 123 W/m 12,3 C 10,7 C 17,7 km/h (3 Bft) 100,00 %
15.07.2017 09:20 13,5 C 21,7 C 93 % 1018,4 hPa 0,0 l/m 14,6 km/h (3 Bft) W-SW 244 0 min 0,000 mm 0,5 UV-I 112 W/m 12,4 C 9,5 C 17,7 km/h (3 Bft) 100,00 %
15.07.2017 09:22 13,4 C 21,7 C 93 % 1018,4 hPa 0,0 l/m 10,6 km/h (2 Bft) W-SW 244 0 min 0,000 mm 0,5 UV-I 102 W/m 12,3 C 11,1 C 17,7 km/h (3 Bft) 100,00 %
15.07.2017 09:24 13,5 C 21,7 C 93 % 1018,5 hPa 0,0 l/m 11,1 km/h (2 Bft) SW 232 0 min 0,000 mm 0,5 UV-I 105 W/m 12,4 C 10,9 C 17,7 km/h (3 Bft) 100,00 %
15.07.2017 09:26 13,5 C 21,7 C 93 % 1018,5 hPa 0,0 l/m 12,4 km/h (3 Bft) W-SW 254 0 min 0,000 mm 0,6 UV-I 128 W/m 12,4 C 10,4 C 20,9 km/h (4 Bft) 100,00 %
15.07.2017 09:28 13,5 C 21,7 C 93 % 1018,5 hPa 0,0 l/m 9,9 km/h (2 Bft) W-SW 247 0 min 0,000 mm 0,6 UV-I 124 W/m 12,4 C 11,5 C 14,5 km/h (3 Bft) 97,56 %
15.07.2017 09:30 13,6 C 21,7 C 93 % 1018,5 hPa 0,0 l/m 9,7 km/h (2 Bft) W-SW 247 0 min 0,000 mm 0,5 UV-I 114 W/m 12,5 C 11,7 C 14,5 km/h (3 Bft) 94,74 %
15.07.2017 09:35 13,5 C 21,7 C 93 % 1018,5 hPa 0,0 l/m 9,7 km/h (2 Bft) W-SW 247 0 min 0,000 mm 0,3 UV-I 91 W/m 12,4 C 11,6 C 14,5 km/h (3 Bft) 94,74 %
15.07.2017 09:40 13,5 C 21,7 C 92 % 1018,5 hPa 0,0 l/m 8,0 km/h (2 Bft) W-SW 247 0 min 0,000 mm 0,5 UV-I 105 W/m 12,2 C 12,5 C 17,7 km/h (3 Bft) 98,25 %
15.07.2017 09:45 13,6 C 21,7 C 92 % 1018,5 hPa 0,0 l/m 6,4 km/h (2 Bft) W 270 0 min 0,000 mm 0,7 UV-I 147 W/m 12,3 C 13,6 C 12,9 km/h (3 Bft) 95,61 %
15.07.2017 09:50 13,8 C 21,7 C 92 % 1018,4 hPa 0,0 l/m 8,0 km/h (2 Bft) W-SW 247 0 min 0,000 mm 1,7 UV-I 263 W/m 12,5 C 12,8 C 12,9 km/h (3 Bft) 98,25 %
15.07.2017 09:58 14,6 C 21,7 C 90 % 1018,3 hPa 0,0 l/m 10,6 km/h (2 Bft) S-SW 213 8 min 0,000 mm 2,7 UV-I 658 W/m 13,0 C 12,4 C 17,7 km/h (3 Bft) 95,12 %
15.07.2017 10:00 14,8 C 21,7 C 89 % 1018,2 hPa 0,0 l/m 8,4 km/h (2 Bft) W-SW 258 2 min 0,127 mm 2,9 UV-I 776 W/m 13,0 C 13,7 C 12,9 km/h (3 Bft) 92,00 %
15.07.2017 10:02 15,0 C 21,7 C 89 % 1018,3 hPa 0,0 l/m 8,0 km/h (2 Bft) SW 227 2 min 0,000 mm 2,8 UV-I 647 W/m 13,2 C 14,1 C 12,9 km/h (3 Bft) 96,67 %
15.07.2017 10:04 15,2 C 21,7 C 88 % 1018,3 hPa 0,0 l/m 10,3 km/h (2 Bft) S-SW 205 2 min 0,000 mm 3,0 UV-I 654 W/m 13,2 C 13,2 C 19,3 km/h (3 Bft) 96,23 %
15.07.2017 10:06 15,3 C 21,7 C 88 % 1018,3 hPa 0,0 l/m 13,2 km/h (3 Bft) SW 234 2 min 0,000 mm 2,9 UV-I 782 W/m 13,3 C 12,2 C 19,3 km/h (3 Bft) 96,00 %
15.07.2017 10:08 15,5 C 21,7 C 88 % 1018,4 hPa 0,0 l/m 17,3 km/h (3 Bft) W-SW 242 2 min 0,000 mm 2,6 UV-I 424 W/m 13,5 C 11,1 C 25,7 km/h (4 Bft) 94,34 %
15.07.2017 10:10 15,5 C 21,7 C 86 % 1018,5 hPa 0,0 l/m 16,6 km/h (3 Bft) W-SW 251 0 min 0,000 mm 1,5 UV-I 350 W/m 13,2 C 11,3 C 20,9 km/h (4 Bft) 92,68 %
15.07.2017 10:12 15,3 C 21,7 C 86 % 1018,4 hPa 0,0 l/m 14,8 km/h (3 Bft) W-SW 248 0 min 0,000 mm 1,2 UV-I 225 W/m 13,0 C 11,6 C 20,9 km/h (4 Bft) 97,56 %
15.07.2017 10:14 15,2 C 21,7 C 86 % 1018,4 hPa 0,0 l/m 11,6 km/h (2 Bft) W-SW 250 0 min 0,000 mm 1,0 UV-I 175 W/m 12,9 C 12,7 C 16,1 km/h (3 Bft) 95,45 %
15.07.2017 10:16 15,1 C 21,7 C 87 % 1018,4 hPa 0,0 l/m 15,2 km/h (3 Bft) W 262 0 min 0,000 mm 1,3 UV-I 183 W/m 13,0 C 11,2 C 20,9 km/h (4 Bft) 94,00 %
15.07.2017 10:18 15,0 C 21,7 C 87 % 1018,4 hPa 0,0 l/m 12,4 km/h (3 Bft) W-SW 246 0 min 0,000 mm 1,5 UV-I 244 W/m 12,9 C 12,1 C 19,3 km/h (3 Bft) 92,00 %
15.07.2017 10:20 14,9 C 21,7 C 88 % 1018,4 hPa 0,0 l/m 10,6 km/h (2 Bft) W-SW 249 0 min 0,000 mm 1,4 UV-I 201 W/m 12,9 C 12,7 C 19,3 km/h (3 Bft) 96,00 %
15.07.2017 10:22 14,8 C 21,7 C 89 % 1018,4 hPa 0,0 l/m 12,8 km/h (3 Bft) W-SW 256 0 min 0,000 mm 1,5 UV-I 219 W/m 13,0 C 11,7 C 20,9 km/h (4 Bft) 98,11 %
15.07.2017 10:24 14,8 C 21,7 C 89 % 1018,4 hPa 0,0 l/m 13,0 km/h (3 Bft) SW 223 0 min 0,000 mm 2,0 UV-I 296 W/m 13,0 C 11,7 C 19,3 km/h (3 Bft) 95,12 %
15.07.2017 10:26 14,8 C 21,7 C 89 % 1018,4 hPa 0,0 l/m 15,2 km/h (3 Bft) SW 219 0 min 0,000 mm 2,0 UV-I 311 W/m 13,0 C 10,9 C 20,9 km/h (4 Bft) 94,34 %
15.07.2017 10:28 14,8 C 21,7 C 89 % 1018,4 hPa 0,0 l/m 12,9 km/h (3 Bft) W 275 0 min 0,000 mm 2,0 UV-I 296 W/m 13,0 C 11,7 C 19,3 km/h (3 Bft) 95,12 %
15.07.2017 10:30 14,9 C 21,7 C 90 % 1018,5 hPa 0,0 l/m 10,1 km/h (2 Bft) W-SW 251 0 min 0,000 mm 2,7 UV-I 360 W/m 13,3 C 13,0 C 16,1 km/h (3 Bft) 96,23 %
15.07.2017 10:32 15,2 C 21,7 C 89 % 1018,4 hPa 0,0 l/m 12,1 km/h (2 Bft) W 259 2 min 0,000 mm 2,6 UV-I 471 W/m 13,4 C 12,5 C 16,1 km/h (3 Bft) 89,47 %
15.07.2017 10:34 15,3 C 21,7 C 88 % 1018,5 hPa 0,0 l/m 13,8 km/h (3 Bft) W 273 0 min 0,000 mm 1,9 UV-I 348 W/m 13,3 C 12,0 C 19,3 km/h (3 Bft) 97,44 %
15.07.2017 10:36 15,4 C 21,7 C 88 % 1018,4 hPa 0,0 l/m 12,0 km/h (2 Bft) W 263 0 min 0,000 mm 2,0 UV-I 374 W/m 13,4 C 12,7 C 19,3 km/h (3 Bft) 94,34 %
15.07.2017 10:38 15,4 C 21,7 C 88 % 1018,4 hPa 0,0 l/m 11,8 km/h (2 Bft) S-SW 199 2 min 0,000 mm 2,6 UV-I 420 W/m 13,4 C 12,8 C 19,3 km/h (3 Bft) 98,00 %
15.07.2017 10:40 15,5 C 21,7 C 87 % 1018,4 hPa 0,0 l/m 16,9 km/h (3 Bft) SW 223 0 min 0,000 mm 2,3 UV-I 344 W/m 13,3 C 11,2 C 27,4 km/h (4 Bft) 96,15 %
15.07.2017 10:42 15,7 C 21,7 C 87 % 1018,5 hPa 0,0 l/m 17,5 km/h (3 Bft) W-SW 252 0 min 0,000 mm 3,4 UV-I 343 W/m 13,5 C 11,3 C 24,1 km/h (4 Bft) 92,31 %
15.07.2017 10:44 15,7 C 21,7 C 85 % 1018,5 hPa 0,0 l/m 14,7 km/h (3 Bft) W-SW 258 0 min 0,000 mm 2,6 UV-I 343 W/m 13,2 C 12,1 C 22,5 km/h (4 Bft) 91,07 %
15.07.2017 10:46 15,7 C 21,7 C 84 % 1018,4 hPa 0,0 l/m 13,2 km/h (3 Bft) W-SW 254 0 min 0,000 mm 1,6 UV-I 301 W/m 13,0 C 12,6 C 20,9 km/h (4 Bft) 100,00 %
15.07.2017 10:48 15,6 C 21,7 C 85 % 1018,4 hPa 0,0 l/m 12,7 km/h (3 Bft) SW 229 0 min 0,000 mm 1,3 UV-I 252 W/m 13,1 C 12,7 C 19,3 km/h (3 Bft) 94,34 %
15.07.2017 10:50 15,6 C 21,7 C 85 % 1018,4 hPa 0,0 l/m 11,5 km/h (2 Bft) S-SW 205 0 min 0,000 mm 1,7 UV-I 202 W/m 13,1 C 13,2 C 17,7 km/h (3 Bft) 92,68 %
15.07.2017 10:52 15,4 C 21,7 C 85 % 1018,3 hPa 0,0 l/m 14,3 km/h (3 Bft) W 265 0 min 0,000 mm 1,8 UV-I 222 W/m 12,9 C 11,9 C 27,4 km/h (4 Bft) 88,00 %
15.07.2017 10:54 15,6 C 21,7 C 87 % 1018,4 hPa 0,0 l/m 11,6 km/h (2 Bft) W 271 2 min 0,000 mm 3,1 UV-I 471 W/m 13,4 C 13,1 C 20,9 km/h (4 Bft) 98,00 %
15.07.2017 10:56 15,8 C 21,7 C 86 % 1018,3 hPa 0,0 l/m 12,8 km/h (3 Bft) S 190 2 min 0,000 mm 4,0 UV-I 941 W/m 13,5 C 12,9 C 20,9 km/h (4 Bft) 92,68 %
15.07.2017 10:58 16,0 C 21,7 C 85 % 1018,2 hPa 0,0 l/m 18,1 km/h (3 Bft) SW 227 2 min 0,000 mm 4,0 UV-I 969 W/m 13,5 C 11,5 C 27,4 km/h (4 Bft) 94,00 %
15.07.2017 11:00 16,1 C 21,7 C 83 % 1018,2 hPa 0,0 l/m 16,3 km/h (3 Bft) W 266 2 min 0,279 mm 3,4 UV-I 969 W/m 13,2 C 12,1 C 27,4 km/h (4 Bft) 92,68 %
15.07.2017 11:02 16,2 C 21,7 C 82 % 1018,3 hPa 0,0 l/m 17,4 km/h (3 Bft) W-SW 249 2 min 0,000 mm 3,9 UV-I 940 W/m 13,1 C 12,0 C 22,5 km/h (4 Bft) 95,74 %
15.07.2017 11:04 16,3 C 21,7 C 80 % 1018,4 hPa 0,0 l/m 20,8 km/h (4 Bft) W-SW 246 2 min 0,000 mm 4,1 UV-I 924 W/m 12,8 C 11,2 C 32,2 km/h (5 Bft) 98,00 %
15.07.2017 11:06 16,3 C 21,7 C 80 % 1018,4 hPa 0,0 l/m 18,7 km/h (3 Bft) SW 234 2 min 0,000 mm 4,0 UV-I 950 W/m 12,8 C 11,7 C 25,7 km/h (4 Bft) 93,18 %
15.07.2017 11:08 16,3 C 21,7 C 78 % 1018,5 hPa 0,0 l/m 18,7 km/h (3 Bft) SW 236 2 min 0,000 mm 4,3 UV-I 1009 W/m 12,5 C 11,7 C 32,2 km/h (5 Bft) 89,80 %
15.07.2017 11:10 16,2 C 21,7 C 77 % 1018,4 hPa 0,0 l/m 23,2 km/h (4 Bft) W 262 2 min 0,000 mm 2,3 UV-I 596 W/m 12,2 C 10,6 C 33,8 km/h (5 Bft) 97,56 %
15.07.2017 11:12 15,9 C 22,2 C 78 % 1018,4 hPa 0,0 l/m 21,4 km/h (4 Bft) NW 315 0 min 0,000 mm 2,5 UV-I 304 W/m 12,1 C 10,6 C 29,0 km/h (5 Bft) 96,23 %
15.07.2017 11:14 15,9 C 21,7 C 80 % 1018,3 hPa 0,0 l/m 18,9 km/h (3 Bft) S-SW 212 0 min 0,000 mm 3,6 UV-I 324 W/m 12,5 C 11,2 C 29,0 km/h (5 Bft) 92,00 %
15.07.2017 11:16 15,9 C 21,7 C 78 % 1018,3 hPa 0,0 l/m 20,1 km/h (4 Bft) W-NW 282 0 min 0,000 mm 3,5 UV-I 320 W/m 12,1 C 10,9 C 35,4 km/h (5 Bft) 88,89 %
15.07.2017 11:18 16,0 C 22,2 C 79 % 1018,4 hPa 0,0 l/m 19,7 km/h (3 Bft) SW 229 0 min 0,000 mm 3,8 UV-I 282 W/m 12,4 C 11,1 C 33,8 km/h (5 Bft) 96,23 %
15.07.2017 11:20 16,2 C 22,2 C 76 % 1018,2 hPa 0,0 l/m 23,3 km/h (4 Bft) SW 223 2 min 0,000 mm 4,6 UV-I 874 W/m 12,0 C 10,6 C 37,0 km/h (5 Bft) 96,00 %
15.07.2017 11:22 16,4 C 22,2 C 76 % 1018,3 hPa 0,0 l/m 24,3 km/h (4 Bft) W-SW 238 2 min 0,000 mm 4,6 UV-I 988 W/m 12,2 C 10,6 C 35,4 km/h (5 Bft) 94,74 %
15.07.2017 11:24 16,6 C 21,7 C 73 % 1018,4 hPa 0,0 l/m 23,7 km/h (4 Bft) W 263 2 min 0,000 mm 3,6 UV-I 1074 W/m 11,7 C 11,0 C 35,4 km/h (5 Bft) 94,92 %
15.07.2017 11:26 16,6 C 21,7 C 73 % 1018,4 hPa 0,0 l/m 20,5 km/h (4 Bft) W-SW 248 0 min 0,000 mm 2,4 UV-I 417 W/m 11,7 C 11,7 C 33,8 km/h (5 Bft) 97,62 %
15.07.2017 11:28 16,4 C 21,7 C 72 % 1018,5 hPa 0,0 l/m 17,9 km/h (3 Bft) SW 223 0 min 0,000 mm 1,6 UV-I 273 W/m 11,3 C 12,1 C 30,6 km/h (5 Bft) 97,56 %
15.07.2017 11:30 16,2 C 21,7 C 74 % 1018,5 hPa 0,0 l/m 14,0 km/h (3 Bft) W-SW 244 0 min 0,000 mm 1,1 UV-I 197 W/m 11,6 C 13,0 C 19,3 km/h (3 Bft) 97,87 %
15.07.2017 11:32 16,1 C 21,7 C 75 % 1018,5 hPa 0,0 l/m 23,3 km/h (4 Bft) W-SW 250 0 min 0,000 mm 1,0 UV-I 169 W/m 11,7 C 10,4 C 40,2 km/h (6 Bft) 93,62 %
15.07.2017 11:34 15,9 C 21,7 C 74 % 1018,5 hPa 0,0 l/m 18,5 km/h (3 Bft) W-NW 284 0 min 0,000 mm 1,0 UV-I 168 W/m 11,3 C 11,3 C 35,4 km/h (5 Bft) 98,00 %
15.07.2017 11:36 15,8 C 21,7 C 76 % 1018,6 hPa 0,0 l/m 15,1 km/h (3 Bft) S-SW 209 0 min 0,000 mm 1,1 UV-I 179 W/m 11,6 C 12,1 C 32,2 km/h (5 Bft) 96,23 %
15.07.2017 11:38 15,8 C 21,7 C 75 % 1018,6 hPa 0,0 l/m 21,7 km/h (4 Bft) W 278 0 min 0,000 mm 1,1 UV-I 174 W/m 11,4 C 10,4 C 38,6 km/h (5 Bft) 92,11 %
15.07.2017 11:40 15,7 C 21,7 C 75 % 1018,7 hPa 0,0 l/m 14,1 km/h (3 Bft) W-SW 244 0 min 0,000 mm 1,7 UV-I 239 W/m 11,3 C 12,3 C 19,3 km/h (3 Bft) 94,34 %
15.07.2017 11:42 15,7 C 21,7 C 73 % 1018,6 hPa 0,0 l/m 17,1 km/h (3 Bft) W-SW 257 0 min 0,000 mm 2,2 UV-I 323 W/m 10,9 C 11,4 C 25,7 km/h (4 Bft) 100,00 %
15.07.2017 11:44 15,7 C 21,7 C 73 % 1018,8 hPa 0,0 l/m 14,5 km/h (3 Bft) NW 325 0 min 0,000 mm 2,4 UV-I 307 W/m 10,9 C 12,2 C 25,7 km/h (4 Bft) 100,00 %
15.07.2017 11:46 15,7 C 21,7 C 73 % 1018,9 hPa 0,0 l/m 13,1 km/h (3 Bft) SW 218 0 min 0,000 mm 2,7 UV-I 315 W/m 10,9 C 12,7 C 20,9 km/h (4 Bft) 95,74 %
15.07.2017 11:48 15,7 C 21,7 C 73 % 1018,9 hPa 0,0 l/m 16,2 km/h (3 Bft) W-SW 242 0 min 0,000 mm 3,2 UV-I 370 W/m 10,9 C 11,7 C 22,5 km/h (4 Bft) 94,00 %
15.07.2017 11:50 15,8 C 21,7 C 73 % 1018,9 hPa 0,0 l/m 15,6 km/h (3 Bft) SW 226 0 min 0,000 mm 3,4 UV-I 420 W/m 11,0 C 12,0 C 27,4 km/h (4 Bft) 98,00 %
15.07.2017 11:52 16,0 C 21,7 C 74 % 1018,8 hPa 0,0 l/m 16,4 km/h (3 Bft) SW 234 2 min 0,000 mm 4,7 UV-I 553 W/m 11,4 C 12,0 C 35,4 km/h (5 Bft) 100,00 %
15.07.2017 11:54 16,3 C 22,2 C 72 % 1018,8 hPa 0,0 l/m 15,9 km/h (3 Bft) W-SW 251 2 min 0,000 mm 5,3 UV-I 1027 W/m 11,2 C 12,5 C 25,7 km/h (4 Bft) 94,55 %
15.07.2017 11:56 16,7 C 22,2 C 71 % 1018,8 hPa 0,0 l/m 15,1 km/h (3 Bft) W 265 2 min 0,000 mm 5,3 UV-I 1073 W/m 11,4 C 13,2 C 24,1 km/h (4 Bft) 90,24 %
15.07.2017 11:58 17,1 C 22,2 C 72 % 1018,9 hPa 0,0 l/m 20,6 km/h (4 Bft) W 265 2 min 0,000 mm 5,2 UV-I 1110 W/m 12,0 C 12,3 C 35,4 km/h (5 Bft) 95,56 %
15.07.2017 12:00 17,4 C 21,7 C 69 % 1018,8 hPa 0,0 l/m 20,7 km/h (4 Bft) W-SW 244 2 min 0,356 mm 4,5 UV-I 1146 W/m 11,7 C 12,7 C 37,0 km/h (5 Bft) 97,87 %
15.07.2017 12:02 17,4 C 21,7 C 70 % 1018,9 hPa 0,0 l/m 16,0 km/h (3 Bft) W-NW 294 2 min 0,000 mm 2,2 UV-I 1005 W/m 11,9 C 13,8 C 24,1 km/h (4 Bft) 97,73 %
15.07.2017 12:04 17,0 C 21,7 C 71 % 1019,1 hPa 0,0 l/m 15,7 km/h (3 Bft) W-SW 246 0 min 0,000 mm 1,1 UV-I 176 W/m 11,7 C 13,4 C 25,7 km/h (4 Bft) 91,07 %
15.07.2017 12:06 16,3 C 21,7 C 74 % 1019,2 hPa 0,0 l/m 14,6 km/h (3 Bft) NW 322 0 min 0,000 mm 1,3 UV-I 184 W/m 11,7 C 12,9 C 25,7 km/h (4 Bft) 95,12 %
15.07.2017 12:08 15,8 C 21,7 C 74 % 1019,2 hPa 0,2 l/m 19,5 km/h (3 Bft) W-SW 257 0 min 0,000 mm 1,6 UV-I 213 W/m 11,2 C 10,9 C 35,4 km/h (5 Bft) 92,68 %
15.07.2017 12:10 15,3 C 21,7 C 74 % 1019,1 hPa 0,0 l/m 18,2 km/h (3 Bft) W 271 0 min 0,000 mm 2,1 UV-I 288 W/m 10,7 C 10,6 C 29,0 km/h (5 Bft) 88,68 %
15.07.2017 12:12 15,1 C 21,7 C 76 % 1019,2 hPa 0,0 l/m 13,9 km/h (3 Bft) W-SW 256 0 min 0,000 mm 2,7 UV-I 369 W/m 10,9 C 11,7 C 22,5 km/h (4 Bft) 95,12 %
15.07.2017 12:14 15,1 C 21,7 C 78 % 1019,2 hPa 0,0 l/m 12,0 km/h (2 Bft) SW 227 2 min 0,000 mm 3,1 UV-I 577 W/m 11,3 C 12,4 C 25,7 km/h (4 Bft) 96,43 %
15.07.2017 12:16 15,2 C 21,7 C 78 % 1019,3 hPa 0,0 l/m 10,5 km/h (2 Bft) W-SW 250 2 min 0,000 mm 3,5 UV-I 495 W/m 11,4 C 13,1 C 19,3 km/h (3 Bft) 97,37 %
15.07.2017 12:18 15,3 C 22,2 C 78 % 1019,2 hPa 0,0 l/m 15,5 km/h (3 Bft) W-SW 256 2 min 0,000 mm 4,9 UV-I 528 W/m 11,5 C 11,4 C 27,4 km/h (4 Bft) 95,12 %
15.07.2017 12:20 15,7 C 21,7 C 78 % 1019,1 hPa 0,0 l/m 17,6 km/h (3 Bft) W-SW 254 2 min 0,000 mm 4,9 UV-I 1111 W/m 11,9 C 11,3 C 29,0 km/h (5 Bft) 96,23 %
15.07.2017 12:22 16,0 C 21,7 C 75 % 1019,2 hPa 0,0 l/m 17,6 km/h (3 Bft) W-SW 254 2 min 0,000 mm 4,3 UV-I 815 W/m 11,6 C 11,7 C 29,0 km/h (5 Bft) 96,43 %
15.07.2017 12:24 16,0 C 21,7 C 74 % 1019,2 hPa 0,0 l/m 18,8 km/h (3 Bft) S-SW 194 0 min 0,000 mm 3,4 UV-I 444 W/m 11,4 C 11,3 C 29,0 km/h (5 Bft) 94,74 %
15.07.2017 12:26 15,9 C 22,2 C 74 % 1019,3 hPa 0,0 l/m 18,1 km/h (3 Bft) NW 309 0 min 0,000 mm 3,9 UV-I 441 W/m 11,3 C 11,4 C 25,7 km/h (4 Bft) 100,00 %
15.07.2017 12:28 16,1 C 22,2 C 75 % 1019,2 hPa 0,0 l/m 12,6 km/h (3 Bft) W 274 0 min 0,000 mm 4,7 UV-I 475 W/m 11,7 C 13,3 C 19,3 km/h (3 Bft) 98,11 %
15.07.2017 12:30 16,4 C 22,2 C 75 % 1019,3 hPa 0,0 l/m 12,5 km/h (3 Bft) W-SW 240 2 min 0,000 mm 5,0 UV-I 604 W/m 12,0 C 13,7 C 22,5 km/h (4 Bft) 97,87 %
15.07.2017 12:32 16,7 C 22,2 C 73 % 1019,3 hPa 0,0 l/m 13,2 km/h (3 Bft) W-NW 284 2 min 0,000 mm 5,8 UV-I 773 W/m 11,8 C 13,8 C 30,6 km/h (5 Bft) 100,00 %
15.07.2017 12:34 16,9 C 22,2 C 70 % 1019,2 hPa 0,0 l/m 16,7 km/h (3 Bft) W-SW 252 2 min 0,000 mm 5,7 UV-I 773 W/m 11,4 C 13,0 C 32,2 km/h (5 Bft) 97,87 %
15.07.2017 12:36 17,1 C 22,2 C 70 % 1019,2 hPa 0,0 l/m 23,6 km/h (4 Bft) W-SW 250 2 min 0,000 mm 6,0 UV-I 861 W/m 11,6 C 11,7 C 33,8 km/h (5 Bft) 100,00 %
15.07.2017 12:38 17,2 C 22,2 C 69 % 1019,2 hPa 0,0 l/m 14,8 km/h (3 Bft) W-SW 240 2 min 0,000 mm 6,0 UV-I 965 W/m 11,5 C 13,9 C 25,7 km/h (4 Bft) 97,56 %
15.07.2017 12:40 17,3 C 22,2 C 70 % 1019,2 hPa 0,0 l/m 15,3 km/h (3 Bft) W-SW 238 2 min 0,000 mm 5,9 UV-I 1081 W/m 11,8 C 13,9 C 20,9 km/h (4 Bft) 96,43 %
15.07.2017 12:42 17,3 C 22,2 C 68 % 1019,1 hPa 0,0 l/m 12,9 km/h (3 Bft) W-SW 252 2 min 0,000 mm 5,5 UV-I 1093 W/m 11,3 C 14,6 C 19,3 km/h (3 Bft) 98,00 %
15.07.2017 12:44 17,5 C 22,2 C 70 % 1019,3 hPa 0,0 l/m 18,2 km/h (3 Bft) SW 221 2 min 0,000 mm 5,6 UV-I 1088 W/m 12,0 C 13,4 C 32,2 km/h (5 Bft) 100,00 %
15.07.2017 12:46 17,6 C 22,2 C 69 % 1019,2 hPa 0,0 l/m 17,0 km/h (3 Bft) SW 234 2 min 0,000 mm 5,3 UV-I 1088 W/m 11,8 C 13,8 C 32,2 km/h (5 Bft) 96,00 %
15.07.2017 12:48 17,6 C 22,2 C 68 % 1019,1 hPa 0,0 l/m 11,4 km/h (2 Bft) S-SW 196 2 min 0,000 mm 3,6 UV-I 525 W/m 11,6 C 15,5 C 24,1 km/h (4 Bft) 97,87 %
15.07.2017 12:50 17,4 C 22,2 C 68 % 1019,2 hPa 0,0 l/m 8,0 km/h (2 Bft) W-SW 246 0 min 0,000 mm 2,4 UV-I 375 W/m 11,4 C 16,6 C 16,1 km/h (3 Bft) 100,00 %
15.07.2017 12:52 17,3 C 22,2 C 69 % 1019,2 hPa 0,0 l/m 14,1 km/h (3 Bft) SW 233 0 min 0,000 mm 1,8 UV-I 281 W/m 11,6 C 14,2 C 20,9 km/h (4 Bft) 100,00 %
15.07.2017 12:54 17,1 C 22,2 C 68 % 1019,2 hPa 0,0 l/m 20,1 km/h (4 Bft) W-SW 242 0 min 0,000 mm 1,5 UV-I 243 W/m 11,1 C 12,4 C 33,8 km/h (5 Bft) 100,00 %
15.07.2017 12:56 16,9 C 22,2 C 68 % 1019,2 hPa 0,0 l/m 12,1 km/h (2 Bft) W-SW 252 0 min 0,000 mm 1,2 UV-I 187 W/m 11,0 C 14,4 C 20,9 km/h (4 Bft) 100,00 %
15.07.2017 12:58 16,8 C 22,2 C 69 % 1019,2 hPa 0,0 l/m 16,2 km/h (3 Bft) SW 229 0 min 0,000 mm 1,2 UV-I 195 W/m 11,1 C 13,0 C 25,7 km/h (4 Bft) 98,00 %
15.07.2017 13:00 16,7 C 22,2 C 68 % 1019,3 hPa 0,0 l/m 14,5 km/h (3 Bft) SW 227 0 min 0,381 mm 1,3 UV-I 208 W/m 10,8 C 13,4 C 32,2 km/h (5 Bft) 100,00 %
15.07.2017 13:02 16,6 C 22,2 C 67 % 1019,3 hPa 0,0 l/m 17,6 km/h (3 Bft) W 270 0 min 0,000 mm 1,3 UV-I 202 W/m 10,4 C 12,4 C 27,4 km/h (4 Bft) 97,56 %
15.07.2017 13:04 16,6 C 22,2 C 66 % 1019,3 hPa 0,0 l/m 15,4 km/h (3 Bft) W 272 0 min 0,000 mm 1,2 UV-I 182 W/m 10,2 C 13,0 C 24,1 km/h (4 Bft) 96,23 %
15.07.2017 13:06 16,5 C 22,2 C 66 % 1019,3 hPa 0,0 l/m 18,6 km/h (3 Bft) W 259 0 min 0,000 mm 0,9 UV-I 140 W/m 10,1 C 12,0 C 29,0 km/h (5 Bft) 100,00 %
15.07.2017 13:08 16,4 C 22,2 C 66 % 1019,4 hPa 0,0 l/m 12,9 km/h (3 Bft) W 269 0 min 0,000 mm 0,6 UV-I 98 W/m 10,0 C 13,6 C 25,7 km/h (4 Bft) 97,87 %
15.07.2017 13:10 16,3 C 22,2 C 66 % 1019,4 hPa 0,0 l/m 13,6 km/h (3 Bft) W 263 0 min 0,000 mm 0,1 UV-I 73 W/m 9,9 C 13,2 C 22,5 km/h (4 Bft) 100,00 %
15.07.2017 13:12 16,2 C 22,2 C 66 % 1019,5 hPa 0,0 l/m 11,6 km/h (2 Bft) SW 231 0 min 0,000 mm 0,0 UV-I 52 W/m 9,8 C 13,8 C 16,1 km/h (3 Bft) 97,22 %
15.07.2017 13:14 16,2 C 22,2 C 67 % 1019,5 hPa 0,0 l/m 14,7 km/h (3 Bft) W 281 0 min 0,000 mm 0,0 UV-I 41 W/m 10,1 C 12,7 C 27,4 km/h (4 Bft) 98,39 %
15.07.2017 13:16 16,1 C 22,2 C 69 % 1019,6 hPa 0,0 l/m 14,6 km/h (3 Bft) SW 232 0 min 0,000 mm 0,0 UV-I 42 W/m 10,4 C 12,6 C 24,1 km/h (4 Bft) 100,00 %
15.07.2017 13:18 15,9 C 22,2 C 71 % 1019,7 hPa 0,0 l/m 8,0 km/h (2 Bft) S-SW 194 0 min 0,000 mm 0,0 UV-I 45 W/m 10,6 C 15,0 C 16,1 km/h (3 Bft) 96,23 %
15.07.2017 13:20 15,7 C 22,2 C 73 % 1019,8 hPa 0,0 l/m 12,6 km/h (3 Bft) W 273 0 min 0,000 mm 0,0 UV-I 50 W/m 10,9 C 12,9 C 22,5 km/h (4 Bft) 97,37 %
15.07.2017 13:22 15,4 C 22,2 C 72 % 1019,8 hPa 0,0 l/m 15,6 km/h (3 Bft) W-SW 245 0 min 0,000 mm 0,0 UV-I 58 W/m 10,4 C 11,5 C 25,7 km/h (4 Bft) 100,00 %
15.07.2017 13:24 15,2 C 22,2 C 73 % 1019,8 hPa 0,0 l/m 11,3 km/h (2 Bft) SW 228 0 min 0,000 mm 0,2 UV-I 74 W/m 10,4 C 12,8 C 17,7 km/h (3 Bft) 97,14 %
15.07.2017 13:26 15,0 C 22,2 C 73 % 1019,8 hPa 0,0 l/m 15,0 km/h (3 Bft) W-NW 297 0 min 0,000 mm 0,6 UV-I 93 W/m 10,2 C 11,2 C 22,5 km/h (4 Bft) 100,00 %
15.07.2017 13:28 14,9 C 22,2 C 72 % 1019,8 hPa 0,0 l/m 16,4 km/h (3 Bft) W 265 0 min 0,000 mm 0,8 UV-I 123 W/m 9,9 C 10,6 C 25,7 km/h (4 Bft) 97,56 %
15.07.2017 13:30 14,9 C 22,2 C 74 % 1019,8 hPa 0,0 l/m 14,4 km/h (3 Bft) W 275 0 min 0,000 mm 1,1 UV-I 165 W/m 10,3 C 11,3 C 22,5 km/h (4 Bft) 100,00 %
15.07.2017 13:32 14,9 C 22,2 C 74 % 1019,8 hPa 0,0 l/m 15,0 km/h (3 Bft) W 262 0 min 0,000 mm 1,5 UV-I 215 W/m 10,3 C 11,1 C 25,7 km/h (4 Bft) 100,00 %
15.07.2017 13:34 14,9 C 22,2 C 76 % 1019,8 hPa 0,0 l/m 17,8 km/h (3 Bft) W 269 0 min 0,000 mm 1,8 UV-I 260 W/m 10,7 C 10,2 C 25,7 km/h (4 Bft) 97,73 %
15.07.2017 13:36 14,9 C 22,2 C 76 % 1019,8 hPa 0,0 l/m 17,1 km/h (3 Bft) W-SW 253 0 min 0,000 mm 2,1 UV-I 315 W/m 10,7 C 10,4 C 27,4 km/h (4 Bft) 100,00 %
15.07.2017 13:38 15,1 C 22,2 C 77 % 1019,8 hPa 0,0 l/m 14,7 km/h (3 Bft) W-SW 252 0 min 0,000 mm 2,5 UV-I 354 W/m 11,1 C 11,4 C 20,9 km/h (4 Bft) 100,00 %
15.07.2017 13:40 15,2 C 22,2 C 77 % 1019,8 hPa 0,0 l/m 15,2 km/h (3 Bft) W-SW 244 0 min 0,000 mm 2,6 UV-I 374 W/m 11,2 C 11,4 C 20,9 km/h (4 Bft) 100,00 %
15.07.2017 13:42 15,4 C 22,2 C 76 % 1019,8 hPa 0,0 l/m 13,3 km/h (3 Bft) SW 226 0 min 0,000 mm 2,8 UV-I 420 W/m 11,2 C 12,3 C 25,7 km/h (4 Bft) 95,74 %
15.07.2017 13:44 15,6 C 22,2 C 75 % 1019,7 hPa 0,0 l/m 14,6 km/h (3 Bft) W-SW 246 0 min 0,000 mm 3,0 UV-I 472 W/m 11,2 C 12,0 C 22,5 km/h (4 Bft) 96,00 %
15.07.2017 13:46 15,8 C 22,2 C 76 % 1019,7 hPa 0,0 l/m 12,5 km/h (3 Bft) W 265 2 min 0,000 mm 3,2 UV-I 504 W/m 11,6 C 13,0 C 17,7 km/h (3 Bft) 98,00 %
15.07.2017 13:48 16,0 C 22,2 C 75 % 1019,7 hPa 0,0 l/m 13,5 km/h (3 Bft) W-SW 240 2 min 0,000 mm 3,2 UV-I 534 W/m 11,6 C 12,9 C 27,4 km/h (4 Bft) 94,74 %
15.07.2017 13:50 16,2 C 22,2 C 75 % 1019,8 hPa 0,0 l/m 14,2 km/h (3 Bft) W 259 2 min 0,000 mm 3,5 UV-I 597 W/m 11,8 C 12,9 C 20,9 km/h (4 Bft) 95,24 %
15.07.2017 13:52 16,4 C 22,2 C 73 % 1019,7 hPa 0,0 l/m 14,2 km/h (3 Bft) W 263 2 min 0,000 mm 3,1 UV-I 499 W/m 11,5 C 13,1 C 25,7 km/h (4 Bft) 95,45 %
15.07.2017 13:54 16,4 C 22,2 C 72 % 1019,7 hPa 0,0 l/m 15,8 km/h (3 Bft) W-SW 238 0 min 0,000 mm 2,6 UV-I 403 W/m 11,3 C 12,7 C 25,7 km/h (4 Bft) 94,34 %
15.07.2017 13:56 16,4 C 22,2 C 71 % 1019,7 hPa 0,0 l/m 15,7 km/h (3 Bft) W-NW 285 0 min 0,000 mm 2,1 UV-I 329 W/m 11,1 C 12,7 C 24,1 km/h (4 Bft) 92,00 %
15.07.2017 13:58 16,4 C 22,2 C 71 % 1019,7 hPa 0,0 l/m 15,8 km/h (3 Bft) SW 223 0 min 0,000 mm 1,5 UV-I 240 W/m 11,1 C 12,7 C 25,7 km/h (4 Bft) 97,87 %
15.07.2017 14:00 16,3 C 22,2 C 70 % 1019,7 hPa 0,0 l/m 18,3 km/h (3 Bft) W-SW 247 0 min 0,178 mm 0,9 UV-I 150 W/m 10,8 C 11,8 C 29,0 km/h (5 Bft) 96,23 %
15.07.2017 14:02 16,2 C 22,2 C 70 % 1019,8 hPa 0,0 l/m 15,7 km/h (3 Bft) W-SW 255 0 min 0,000 mm 0,7 UV-I 116 W/m 10,7 C 12,4 C 22,5 km/h (4 Bft) 94,74 %
15.07.2017 14:04 16,2 C 22,2 C 71 % 1019,8 hPa 0,0 l/m 14,3 km/h (3 Bft) SW 226 0 min 0,000 mm 0,7 UV-I 108 W/m 10,9 C 12,9 C 24,1 km/h (4 Bft) 96,43 %
15.07.2017 14:06 16,1 C 22,2 C 71 % 1019,8 hPa 0,0 l/m 16,4 km/h (3 Bft) W-SW 250 0 min 0,000 mm 0,7 UV-I 114 W/m 10,8 C 12,1 C 22,5 km/h (4 Bft) 93,18 %
15.07.2017 14:08 16,0 C 22,2 C 72 % 1019,9 hPa 0,0 l/m 19,4 km/h (3 Bft) W-SW 255 0 min 0,000 mm 0,9 UV-I 149 W/m 11,0 C 11,2 C 25,7 km/h (4 Bft) 95,12 %
15.07.2017 14:10 15,9 C 22,2 C 71 % 1019,8 hPa 0,0 l/m 17,9 km/h (3 Bft) W-SW 250 0 min 0,000 mm 1,2 UV-I 188 W/m 10,6 C 11,4 C 29,0 km/h (5 Bft) 92,00 %
15.07.2017 14:12 16,0 C 22,2 C 71 % 1019,9 hPa 0,0 l/m 15,1 km/h (3 Bft) SW 235 0 min 0,000 mm 1,3 UV-I 205 W/m 10,7 C 12,4 C 24,1 km/h (4 Bft) 92,45 %
15.07.2017 14:14 16,0 C 22,2 C 71 % 1020,0 hPa 0,0 l/m 16,6 km/h (3 Bft) SW 235 0 min 0,000 mm 1,3 UV-I 216 W/m 10,7 C 11,9 C 24,1 km/h (4 Bft) 95,12 %
15.07.2017 14:16 16,0 C 22,2 C 70 % 1020,0 hPa 0,0 l/m 13,8 km/h (3 Bft) W-SW 237 0 min 0,000 mm 1,3 UV-I 225 W/m 10,5 C 12,8 C 25,7 km/h (4 Bft) 90,24 %
15.07.2017 14:18 15,9 C 22,2 C 71 % 1020,0 hPa 0,0 l/m 11,5 km/h (2 Bft) W-SW 248 0 min 0,000 mm 1,3 UV-I 212 W/m 10,6 C 13,5 C 17,7 km/h (3 Bft) 98,00 %
15.07.2017 14:20 15,8 C 22,2 C 73 % 1020,0 hPa 0,0 l/m 13,6 km/h (3 Bft) W-SW 255 0 min 0,000 mm 1,2 UV-I 194 W/m 11,0 C 12,6 C 22,5 km/h (4 Bft) 97,56 %
15.07.2017 14:22 15,7 C 22,2 C 74 % 1020,0 hPa 0,0 l/m 12,5 km/h (3 Bft) W-SW 248 0 min 0,000 mm 1,1 UV-I 177 W/m 11,1 C 12,9 C 22,5 km/h (4 Bft) 91,49 %
15.07.2017 14:24 15,6 C 22,2 C 73 % 1020,0 hPa 0,0 l/m 10,0 km/h (2 Bft) W 273 0 min 0,000 mm 1,0 UV-I 170 W/m 10,8 C 13,8 C 17,7 km/h (3 Bft) 89,29 %
15.07.2017 14:26 15,6 C 22,2 C 74 % 1020,0 hPa 0,0 l/m 12,1 km/h (2 Bft) W-SW 255 0 min 0,000 mm 1,1 UV-I 175 W/m 11,0 C 12,9 C 20,9 km/h (4 Bft) 97,22 %
15.07.2017 14:28 15,6 C 22,2 C 75 % 1020,0 hPa 0,0 l/m 7,7 km/h (2 Bft) W 273 0 min 0,000 mm 1,1 UV-I 188 W/m 11,2 C 14,9 C 12,9 km/h (3 Bft) 98,11 %
15.07.2017 14:30 15,6 C 22,2 C 74 % 1020,0 hPa 0,0 l/m 11,1 km/h (2 Bft) SW 234 0 min 0,000 mm 1,3 UV-I 203 W/m 11,0 C 13,3 C 16,1 km/h (3 Bft) 97,96 %
15.07.2017 14:32 15,6 C 22,2 C 73 % 1019,9 hPa 0,0 l/m 14,3 km/h (3 Bft) W-SW 249 0 min 0,000 mm 1,3 UV-I 217 W/m 10,8 C 12,1 C 22,5 km/h (4 Bft) 96,00 %
15.07.2017 14:34 15,7 C 22,2 C 73 % 1020,0 hPa 0,0 l/m 11,3 km/h (2 Bft) W 265 0 min 0,000 mm 1,5 UV-I 234 W/m 10,9 C 13,3 C 22,5 km/h (4 Bft) 97,62 %
15.07.2017 14:36 15,8 C 22,2 C 72 % 1020,0 hPa 0,0 l/m 10,9 km/h (2 Bft) S-SW 213 0 min 0,000 mm 1,6 UV-I 245 W/m 10,8 C 13,6 C 16,1 km/h (3 Bft) 89,09 %
15.07.2017 14:38 15,9 C 22,2 C 73 % 1020,0 hPa 0,0 l/m 12,5 km/h (3 Bft) W 274 0 min 0,000 mm 1,7 UV-I 260 W/m 11,1 C 13,1 C 25,7 km/h (4 Bft) 95,24 %
15.07.2017 14:40 15,9 C 22,2 C 73 % 1020,0 hPa 0,0 l/m 15,5 km/h (3 Bft) W-NW 302 0 min 0,000 mm 1,8 UV-I 287 W/m 11,1 C 12,1 C 27,4 km/h (4 Bft) 94,34 %
15.07.2017 14:42 16,1 C 22,2 C 71 % 1020,0 hPa 0,0 l/m 15,0 km/h (3 Bft) W-NW 284 0 min 0,000 mm 2,0 UV-I 304 W/m 10,8 C 12,5 C 24,1 km/h (4 Bft) 97,37 %
15.07.2017 14:44 16,1 C 22,2 C 71 % 1020,1 hPa 0,0 l/m 13,1 km/h (3 Bft) W-SW 248 0 min 0,000 mm 2,0 UV-I 303 W/m 10,8 C 13,1 C 27,4 km/h (4 Bft) 90,57 %
15.07.2017 14:46 16,2 C 22,2 C 71 % 1020,1 hPa 0,0 l/m 13,1 km/h (3 Bft) W 264 0 min 0,000 mm 2,0 UV-I 295 W/m 10,9 C 13,3 C 22,5 km/h (4 Bft) 94,74 %
15.07.2017 14:48 16,2 C 22,2 C 71 % 1020,1 hPa 0,0 l/m 17,5 km/h (3 Bft) SW 226 0 min 0,000 mm 1,9 UV-I 293 W/m 10,9 C 11,9 C 25,7 km/h (4 Bft) 98,11 %
15.07.2017 14:50 16,2 C 22,2 C 70 % 1020,1 hPa 0,0 l/m 15,8 km/h (3 Bft) W 273 0 min 0,000 mm 2,0 UV-I 297 W/m 10,7 C 12,4 C 32,2 km/h (5 Bft) 92,68 %
15.07.2017 14:52 16,1 C 22,2 C 70 % 1020,0 hPa 0,0 l/m 15,9 km/h (3 Bft) W-SW 239 0 min 0,000 mm 2,0 UV-I 315 W/m 10,6 C 12,3 C 24,1 km/h (4 Bft) 96,43 %
15.07.2017 14:54 16,1 C 22,2 C 71 % 1020,1 hPa 0,0 l/m 13,9 km/h (3 Bft) W-SW 258 0 min 0,000 mm 2,2 UV-I 341 W/m 10,8 C 12,9 C 22,5 km/h (4 Bft) 91,49 %
15.07.2017 14:56 16,2 C 22,2 C 70 % 1020,0 hPa 0,0 l/m 18,3 km/h (3 Bft) W-SW 251 0 min 0,000 mm 2,3 UV-I 362 W/m 10,7 C 11,7 C 29,0 km/h (5 Bft) 95,12 %
15.07.2017 14:58 16,2 C 22,2 C 71 % 1020,0 hPa 0,0 l/m 15,5 km/h (3 Bft) W-SW 256 0 min 0,000 mm 2,5 UV-I 389 W/m 10,9 C 12,5 C 20,9 km/h (4 Bft) 98,11 %
15.07.2017 15:00 16,3 C 22,2 C 70 % 1020,1 hPa 0,0 l/m 15,4 km/h (3 Bft) W-SW 256 0 min 0,178 mm 2,5 UV-I 403 W/m 10,8 C 12,6 C 24,1 km/h (4 Bft) 97,56 %
15.07.2017 15:02 16,3 C 22,2 C 71 % 1020,1 hPa 0,0 l/m 13,4 km/h (3 Bft) W 264 0 min 0,000 mm 2,7 UV-I 442 W/m 11,0 C 13,3 C 24,1 km/h (4 Bft) 90,00 %
15.07.2017 15:04 16,6 C 22,2 C 72 % 1020,1 hPa 0,0 l/m 17,0 km/h (3 Bft) W 260 2 min 0,000 mm 2,9 UV-I 492 W/m 11,5 C 12,6 C 25,7 km/h (4 Bft) 92,68 %
15.07.2017 15:06 16,7 C 22,2 C 69 % 1020,1 hPa 0,0 l/m 19,2 km/h (3 Bft) W 264 2 min 0,000 mm 3,4 UV-I 699 W/m 11,0 C 12,1 C 30,6 km/h (5 Bft) 94,34 %
15.07.2017 15:08 16,9 C 22,2 C 70 % 1020,0 hPa 0,0 l/m 14,4 km/h (3 Bft) W 266 2 min 0,000 mm 3,7 UV-I 749 W/m 11,4 C 13,7 C 20,9 km/h (4 Bft) 92,68 %
15.07.2017 15:10 17,3 C 22,2 C 70 % 1020,1 hPa 0,0 l/m 13,6 km/h (3 Bft) W 269 2 min 0,000 mm 3,7 UV-I 713 W/m 11,8 C 14,4 C 22,5 km/h (4 Bft) 94,44 %
15.07.2017 15:12 17,5 C 22,2 C 68 % 1020,1 hPa 0,0 l/m 15,2 km/h (3 Bft) W-SW 243 2 min 0,000 mm 2,9 UV-I 508 W/m 11,5 C 14,2 C 24,1 km/h (4 Bft) 90,62 %
15.07.2017 15:14 17,5 C 22,2 C 67 % 1020,1 hPa 0,0 l/m 13,7 km/h (3 Bft) W-SW 246 2 min 0,000 mm 2,8 UV-I 478 W/m 11,3 C 14,6 C 30,6 km/h (5 Bft) 97,44 %
15.07.2017 15:16 17,4 C 22,2 C 67 % 1020,1 hPa 0,0 l/m 17,7 km/h (3 Bft) W-SW 258 2 min 0,000 mm 3,2 UV-I 476 W/m 11,2 C 13,4 C 27,4 km/h (4 Bft) 96,23 %
15.07.2017 15:18 17,5 C 22,2 C 66 % 1020,0 hPa 0,0 l/m 12,0 km/h (2 Bft) SW 234 2 min 0,000 mm 3,1 UV-I 507 W/m 11,1 C 15,2 C 22,5 km/h (4 Bft) 89,47 %
15.07.2017 15:20 17,5 C 22,2 C 64 % 1020,2 hPa 0,0 l/m 13,0 km/h (3 Bft) W-SW 256 2 min 0,000 mm 2,9 UV-I 514 W/m 10,6 C 14,8 C 19,3 km/h (3 Bft) 94,44 %
15.07.2017 15:22 17,5 C 22,2 C 64 % 1020,2 hPa 0,0 l/m 15,0 km/h (3 Bft) W 266 2 min 0,000 mm 2,7 UV-I 471 W/m 10,6 C 14,2 C 27,4 km/h (4 Bft) 93,18 %
15.07.2017 15:24 17,6 C 22,2 C 64 % 1020,1 hPa 0,0 l/m 13,4 km/h (3 Bft) W-SW 239 2 min 0,000 mm 2,8 UV-I 526 W/m 10,7 C 14,8 C 32,2 km/h (5 Bft) 89,36 %
15.07.2017 15:26 17,6 C 22,2 C 64 % 1020,2 hPa 0,0 l/m 15,2 km/h (3 Bft) W-SW 248 2 min 0,000 mm 2,6 UV-I 460 W/m 10,7 C 14,3 C 25,7 km/h (4 Bft) 90,57 %
15.07.2017 15:28 17,5 C 22,2 C 62 % 1020,3 hPa 0,0 l/m 14,8 km/h (3 Bft) SO 135 2 min 0,000 mm 2,6 UV-I 469 W/m 10,1 C 14,3 C 25,7 km/h (4 Bft) 92,11 %
15.07.2017 15:30 17,4 C 22,2 C 64 % 1020,2 hPa 0,0 l/m 13,6 km/h (3 Bft) W 265 2 min 0,000 mm 2,4 UV-I 432 W/m 10,5 C 14,5 C 24,1 km/h (4 Bft) 88,00 %
15.07.2017 15:32 17,4 C 22,2 C 65 % 1020,3 hPa 0,0 l/m 11,6 km/h (2 Bft) W-SW 241 0 min 0,000 mm 2,3 UV-I 405 W/m 10,8 C 15,2 C 20,9 km/h (4 Bft) 100,00 %
15.07.2017 15:34 17,4 C 22,2 C 64 % 1020,4 hPa 0,0 l/m 18,3 km/h (3 Bft) W 262 0 min 0,000 mm 2,2 UV-I 381 W/m 10,5 C 13,2 C 40,2 km/h (6 Bft) 100,00 %
15.07.2017 15:36 17,4 C 22,2 C 65 % 1020,3 hPa 0,0 l/m 15,9 km/h (3 Bft) W-SW 246 0 min 0,000 mm 2,1 UV-I 352 W/m 10,8 C 13,8 C 22,5 km/h (4 Bft) 94,34 %
15.07.2017 15:38 17,3 C 22,2 C 64 % 1020,3 hPa 0,0 l/m 15,5 km/h (3 Bft) W 260 0 min 0,000 mm 1,9 UV-I 308 W/m 10,4 C 13,8 C 24,1 km/h (4 Bft) 94,74 %
15.07.2017 15:40 17,1 C 22,2 C 64 % 1020,4 hPa 0,0 l/m 12,1 km/h (2 Bft) W-SW 238 0 min 0,000 mm 1,6 UV-I 281 W/m 10,2 C 14,7 C 16,1 km/h (3 Bft) 98,00 %
15.07.2017 15:42 17,1 C 22,2 C 66 % 1020,4 hPa 0,0 l/m 7,7 km/h (2 Bft) W 278 0 min 0,000 mm 1,5 UV-I 271 W/m 10,7 C 16,5 C 14,5 km/h (3 Bft) 96,00 %
15.07.2017 15:44 17,1 C 22,2 C 66 % 1020,4 hPa 0,0 l/m 9,3 km/h (2 Bft) W-SW 249 0 min 0,000 mm 1,4 UV-I 265 W/m 10,7 C 15,7 C 22,5 km/h (4 Bft) 95,45 %
15.07.2017 15:46 17,0 C 22,2 C 65 % 1020,4 hPa 0,0 l/m 13,7 km/h (3 Bft) W-SW 238 0 min 0,000 mm 1,4 UV-I 267 W/m 10,4 C 14,0 C 19,3 km/h (3 Bft) 96,00 %
15.07.2017 15:48 16,9 C 22,2 C 65 % 1020,4 hPa 0,0 l/m 15,0 km/h (3 Bft) W 259 0 min 0,000 mm 1,4 UV-I 273 W/m 10,3 C 13,5 C 25,7 km/h (4 Bft) 97,56 %
15.07.2017 15:50 16,9 C 22,2 C 66 % 1020,4 hPa 0,0 l/m 14,4 km/h (3 Bft) W 262 0 min 0,000 mm 1,5 UV-I 281 W/m 10,5 C 13,7 C 22,5 km/h (4 Bft) 95,45 %
15.07.2017 15:52 16,9 C 22,2 C 66 % 1020,4 hPa 0,0 l/m 18,0 km/h (3 Bft) W-SW 249 0 min 0,000 mm 1,7 UV-I 307 W/m 10,5 C 12,7 C 30,6 km/h (5 Bft) 98,11 %
15.07.2017 15:54 16,9 C 22,2 C 66 % 1020,4 hPa 0,0 l/m 17,0 km/h (3 Bft) W-SW 248 0 min 0,000 mm 1,8 UV-I 338 W/m 10,5 C 12,9 C 27,4 km/h (4 Bft) 97,56 %
15.07.2017 15:56 17,0 C 22,2 C 67 % 1020,4 hPa 0,0 l/m 13,9 km/h (3 Bft) W-SW 238 0 min 0,000 mm 1,9 UV-I 352 W/m 10,8 C 13,9 C 22,5 km/h (4 Bft) 90,57 %
15.07.2017 15:58 16,9 C 22,2 C 65 % 1020,5 hPa 0,0 l/m 11,7 km/h (2 Bft) W-SW 249 0 min 0,000 mm 1,9 UV-I 342 W/m 10,3 C 14,6 C 22,5 km/h (4 Bft) 95,12 %
15.07.2017 16:00 16,9 C 22,2 C 66 % 1020,4 hPa 0,0 l/m 13,5 km/h (3 Bft) W 259 0 min 0,304 mm 1,8 UV-I 334 W/m 10,5 C 14,0 C 22,5 km/h (4 Bft) 92,86 %
15.07.2017 16:02 16,9 C 22,2 C 65 % 1020,4 hPa 0,0 l/m 15,0 km/h (3 Bft) W 267 0 min 0,000 mm 1,8 UV-I 339 W/m 10,3 C 13,5 C 25,7 km/h (4 Bft) 94,74 %
15.07.2017 16:04 17,0 C 22,2 C 66 % 1020,5 hPa 0,0 l/m 13,3 km/h (3 Bft) W 279 0 min 0,000 mm 1,7 UV-I 330 W/m 10,6 C 14,1 C 19,3 km/h (3 Bft) 94,34 %
15.07.2017 16:06 17,0 C 22,2 C 65 % 1020,4 hPa 0,0 l/m 13,2 km/h (3 Bft) W-SW 250 0 min 0,000 mm 1,6 UV-I 316 W/m 10,4 C 14,2 C 20,9 km/h (4 Bft) 97,87 %
15.07.2017 16:08 17,0 C 22,2 C 65 % 1020,5 hPa 0,0 l/m 15,7 km/h (3 Bft) W 259 0 min 0,000 mm 1,6 UV-I 311 W/m 10,4 C 13,4 C 25,7 km/h (4 Bft) 95,74 %
15.07.2017 16:10 17,0 C 22,2 C 65 % 1020,5 hPa 0,0 l/m 20,1 km/h (4 Bft) W 270 0 min 0,000 mm 1,6 UV-I 332 W/m 10,4 C 12,3 C 29,0 km/h (5 Bft) 96,00 %
15.07.2017 16:12 17,0 C 22,2 C 65 % 1020,6 hPa 0,0 l/m 20,1 km/h (4 Bft) W 263 0 min 0,000 mm 1,8 UV-I 375 W/m 10,4 C 12,3 C 29,0 km/h (5 Bft) 95,74 %
15.07.2017 16:14 17,0 C 22,2 C 66 % 1020,5 hPa 0,0 l/m 17,0 km/h (3 Bft) SW 234 0 min 0,000 mm 1,7 UV-I 351 W/m 10,6 C 13,1 C 29,0 km/h (5 Bft) 95,12 %
15.07.2017 16:16 17,0 C 22,2 C 65 % 1020,6 hPa 0,0 l/m 14,4 km/h (3 Bft) W-SW 243 0 min 0,000 mm 1,5 UV-I 300 W/m 10,4 C 13,8 C 22,5 km/h (4 Bft) 94,34 %
15.07.2017 16:18 17,0 C 22,2 C 65 % 1020,5 hPa 0,0 l/m 14,4 km/h (3 Bft) W-NW 288 0 min 0,000 mm 1,4 UV-I 265 W/m 10,4 C 13,8 C 22,5 km/h (4 Bft) 100,00 %
15.07.2017 16:20 16,9 C 22,2 C 65 % 1020,4 hPa 0,0 l/m 13,9 km/h (3 Bft) W 269 0 min 0,000 mm 1,3 UV-I 250 W/m 10,3 C 13,8 C 19,3 km/h (3 Bft) 96,00 %
15.07.2017 16:22 16,9 C 22,2 C 66 % 1020,5 hPa 0,0 l/m 9,7 km/h (2 Bft) W 265 0 min 0,000 mm 1,2 UV-I 252 W/m 10,5 C 15,3 C 19,3 km/h (3 Bft) 97,87 %
15.07.2017 16:24 16,9 C 22,2 C 66 % 1020,5 hPa 0,0 l/m 10,2 km/h (2 Bft) SW 234 0 min 0,000 mm 1,3 UV-I 261 W/m 10,5 C 15,1 C 17,7 km/h (3 Bft) 96,00 %
15.07.2017 16:26 16,9 C 22,2 C 67 % 1020,5 hPa 0,0 l/m 11,0 km/h (2 Bft) W-SW 245 0 min 0,000 mm 1,3 UV-I 268 W/m 10,7 C 14,8 C 17,7 km/h (3 Bft) 97,56 %
15.07.2017 16:28 17,0 C 22,2 C 66 % 1020,5 hPa 0,0 l/m 12,1 km/h (2 Bft) W 260 0 min 0,000 mm 1,2 UV-I 259 W/m 10,6 C 14,5 C 22,5 km/h (4 Bft) 100,00 %
15.07.2017 16:30 16,9 C 22,2 C 66 % 1020,5 hPa 0,0 l/m 14,2 km/h (3 Bft) SW 227 0 min 0,000 mm 1,2 UV-I 244 W/m 10,5 C 13,7 C 24,1 km/h (4 Bft) 100,00 %
15.07.2017 16:32 16,9 C 22,2 C 66 % 1020,4 hPa 0,0 l/m 12,8 km/h (3 Bft) W 267 0 min 0,000 mm 1,1 UV-I 234 W/m 10,5 C 14,2 C 25,7 km/h (4 Bft) 94,55 %
15.07.2017 16:34 16,9 C 22,2 C 68 % 1020,5 hPa 0,0 l/m 6,8 km/h (2 Bft) SW 217 0 min 0,000 mm 1,0 UV-I 230 W/m 11,0 C 16,7 C 12,9 km/h (3 Bft) 100,00 %
15.07.2017 16:36 17,0 C 22,2 C 67 % 1020,5 hPa 0,0 l/m 10,8 km/h (2 Bft) W-SW 243 0 min 0,000 mm 1,0 UV-I 218 W/m 10,8 C 15,0 C 19,3 km/h (3 Bft) 93,62 %
15.07.2017 16:38 17,0 C 22,2 C 66 % 1020,5 hPa 0,0 l/m 10,6 km/h (2 Bft) W-SW 256 0 min 0,000 mm 0,9 UV-I 207 W/m 10,6 C 15,1 C 16,1 km/h (3 Bft) 97,37 %
15.07.2017 16:40 17,0 C 22,2 C 66 % 1020,4 hPa 0,0 l/m 9,7 km/h (2 Bft) W 267 0 min 0,000 mm 0,9 UV-I 205 W/m 10,6 C 15,4 C 14,5 km/h (3 Bft) 96,23 %
15.07.2017 16:42 17,1 C 22,2 C 67 % 1020,5 hPa 0,0 l/m 9,4 km/h (2 Bft) W-SW 243 0 min 0,000 mm 0,9 UV-I 213 W/m 10,9 C 15,7 C 17,7 km/h (3 Bft) 94,00 %
15.07.2017 16:44 17,1 C 22,2 C 66 % 1020,4 hPa 0,0 l/m 7,6 km/h (2 Bft) W-SW 240 0 min 0,000 mm 1,0 UV-I 226 W/m 10,7 C 16,5 C 16,1 km/h (3 Bft) 96,00 %
15.07.2017 16:46 17,1 C 22,2 C 66 % 1020,5 hPa 0,0 l/m 12,9 km/h (3 Bft) W 261 0 min 0,000 mm 1,0 UV-I 230 W/m 10,7 C 14,4 C 19,3 km/h (3 Bft) 100,00 %
15.07.2017 16:48 17,2 C 22,2 C 67 % 1020,4 hPa 0,0 l/m 12,7 km/h (3 Bft) W 277 0 min 0,000 mm 1,0 UV-I 231 W/m 11,0 C 14,6 C 19,3 km/h (3 Bft) 96,00 %
15.07.2017 16:50 17,2 C 22,2 C 66 % 1020,4 hPa 0,0 l/m 10,7 km/h (2 Bft) W-SW 249 0 min 0,000 mm 1,0 UV-I 238 W/m 10,8 C 15,3 C 17,7 km/h (3 Bft) 100,00 %
15.07.2017 16:52 17,3 C 22,2 C 65 % 1020,4 hPa 0,0 l/m 10,9 km/h (2 Bft) W-NW 291 0 min 0,000 mm 1,0 UV-I 244 W/m 10,7 C 15,3 C 22,5 km/h (4 Bft) 93,62 %
15.07.2017 16:54 17,3 C 22,2 C 65 % 1020,5 hPa 0,0 l/m 7,4 km/h (2 Bft) W-SW 254 0 min 0,000 mm 1,0 UV-I 257 W/m 10,7 C 16,8 C 16,1 km/h (3 Bft) 92,68 %
15.07.2017 16:56 17,4 C 22,2 C 65 % 1020,4 hPa 0,0 l/m 14,1 km/h (3 Bft) W 269 0 min 0,000 mm 1,1 UV-I 277 W/m 10,8 C 14,4 C 20,9 km/h (4 Bft) 100,00 %
15.07.2017 16:58 17,4 C 22,2 C 65 % 1020,5 hPa 0,0 l/m 11,1 km/h (2 Bft) W-SW 244 0 min 0,000 mm 1,2 UV-I 295 W/m 10,8 C 15,4 C 17,7 km/h (3 Bft) 95,45 %
15.07.2017 17:00 17,6 C 22,2 C 66 % 1020,4 hPa 0,0 l/m 9,5 km/h (2 Bft) W-SW 245 0 min 0,204 mm 1,2 UV-I 313 W/m 11,2 C 16,2 C 17,7 km/h (3 Bft) 92,45 %
15.07.2017 17:02 17,7 C 22,2 C 63 % 1020,5 hPa 0,0 l/m 13,7 km/h (3 Bft) W-SW 242 2 min 0,000 mm 1,3 UV-I 342 W/m 10,6 C 14,8 C 20,9 km/h (4 Bft) 92,11 %
15.07.2017 17:04 17,7 C 22,2 C 62 % 1020,4 hPa 0,0 l/m 10,5 km/h (2 Bft) W-SW 237 2 min 0,000 mm 1,2 UV-I 327 W/m 10,3 C 15,9 C 14,5 km/h (3 Bft) 93,33 %
15.07.2017 17:06 17,8 C 22,2 C 64 % 1020,4 hPa 0,0 l/m 9,5 km/h (2 Bft) W-SW 251 2 min 0,000 mm 1,2 UV-I 332 W/m 10,9 C 16,4 C 14,5 km/h (3 Bft) 94,83 %
15.07.2017 17:08 17,9 C 22,2 C 62 % 1020,4 hPa 0,0 l/m 11,9 km/h (2 Bft) W 273 0 min 0,000 mm 1,2 UV-I 298 W/m 10,5 C 15,6 C 19,3 km/h (3 Bft) 95,24 %
15.07.2017 17:10 18,0 C 22,2 C 62 % 1020,4 hPa 0,0 l/m 14,6 km/h (3 Bft) W 263 0 min 0,000 mm 1,2 UV-I 295 W/m 10,6 C 14,9 C 24,1 km/h (4 Bft) 97,14 %
15.07.2017 17:12 18,1 C 22,2 C 61 % 1020,4 hPa 0,0 l/m 13,8 km/h (3 Bft) SW 229 0 min 0,000 mm 1,2 UV-I 301 W/m 10,5 C 15,3 C 17,7 km/h (3 Bft) 98,46 %
15.07.2017 17:14 18,1 C 22,2 C 60 % 1020,3 hPa 0,0 l/m 11,2 km/h (2 Bft) W-SW 242 0 min 0,000 mm 1,2 UV-I 307 W/m 10,2 C 16,1 C 24,1 km/h (4 Bft) 97,44 %
15.07.2017 17:16 18,2 C 22,2 C 58 % 1020,3 hPa 0,0 l/m 15,2 km/h (3 Bft) W-SW 254 2 min 0,000 mm 1,2 UV-I 312 W/m 9,8 C 15,0 C 24,1 km/h (4 Bft) 94,00 %
15.07.2017 17:18 18,2 C 22,2 C 57 % 1020,4 hPa 0,0 l/m 10,2 km/h (2 Bft) SW 230 0 min 0,000 mm 1,2 UV-I 299 W/m 9,5 C 16,6 C 14,5 km/h (3 Bft) 100,00 %
15.07.2017 17:20 18,2 C 22,2 C 60 % 1020,4 hPa 0,0 l/m 7,6 km/h (2 Bft) W-SW 247 0 min 0,000 mm 1,2 UV-I 298 W/m 10,3 C 17,6 C 17,7 km/h (3 Bft) 100,00 %
15.07.2017 17:22 18,3 C 22,2 C 58 % 1020,4 hPa 0,0 l/m 11,4 km/h (2 Bft) W-SW 251 0 min 0,000 mm 1,2 UV-I 298 W/m 9,9 C 16,3 C 19,3 km/h (3 Bft) 94,00 %
15.07.2017 17:24 18,3 C 22,2 C 58 % 1020,4 hPa 0,0 l/m 12,2 km/h (2 Bft) W 259 2 min 0,000 mm 1,2 UV-I 316 W/m 9,9 C 16,0 C 17,7 km/h (3 Bft) 95,12 %
15.07.2017 17:26 18,3 C 22,2 C 58 % 1020,4 hPa 0,0 l/m 10,7 km/h (2 Bft) W-SW 246 2 min 0,000 mm 1,4 UV-I 325 W/m 9,9 C 16,5 C 17,7 km/h (3 Bft) 98,00 %
15.07.2017 17:28 18,5 C 22,2 C 57 % 1020,4 hPa 0,0 l/m 10,4 km/h (2 Bft) NW 304 2 min 0,000 mm 1,4 UV-I 452 W/m 9,8 C 16,8 C 19,3 km/h (3 Bft) 100,00 %
15.07.2017 17:30 18,6 C 22,2 C 55 % 1020,4 hPa 0,0 l/m 11,4 km/h (2 Bft) NW 304 2 min 0,000 mm 1,4 UV-I 367 W/m 9,4 C 16,6 C 22,5 km/h (4 Bft) 95,74 %
15.07.2017 17:32 18,7 C 22,2 C 55 % 1020,4 hPa 0,0 l/m 10,5 km/h (2 Bft) W 261 2 min 0,000 mm 1,3 UV-I 351 W/m 9,5 C 17,0 C 19,3 km/h (3 Bft) 94,74 %
15.07.2017 17:34 18,7 C 22,2 C 53 % 1020,4 hPa 0,0 l/m 14,7 km/h (3 Bft) W-SW 257 2 min 0,000 mm 1,2 UV-I 306 W/m 8,9 C 15,8 C 22,5 km/h (4 Bft) 96,23 %
15.07.2017 17:36 18,7 C 22,2 C 52 % 1020,4 hPa 0,0 l/m 13,3 km/h (3 Bft) W 263 2 min 0,000 mm 1,2 UV-I 365 W/m 8,6 C 16,1 C 19,3 km/h (3 Bft) 92,00 %
15.07.2017 17:38 18,7 C 22,2 C 53 % 1020,3 hPa 0,0 l/m 10,0 km/h (2 Bft) W-SW 250 2 min 0,000 mm 1,2 UV-I 335 W/m 8,9 C 17,2 C 14,5 km/h (3 Bft) 91,67 %
15.07.2017 17:40 18,7 C 22,2 C 52 % 1020,3 hPa 0,0 l/m 12,2 km/h (2 Bft) W-SW 244 2 min 0,000 mm 1,1 UV-I 360 W/m 8,6 C 16,5 C 24,1 km/h (4 Bft) 91,80 %
15.07.2017 17:42 18,7 C 22,2 C 51 % 1020,4 hPa 0,0 l/m 16,6 km/h (3 Bft) W-SW 243 2 min 0,000 mm 1,1 UV-I 356 W/m 8,4 C 15,3 C 24,1 km/h (4 Bft) 98,00 %
15.07.2017 17:44 18,7 C 22,2 C 52 % 1020,4 hPa 0,0 l/m 11,2 km/h (2 Bft) SW 234 2 min 0,000 mm 1,1 UV-I 374 W/m 8,6 C 16,8 C 20,9 km/h (4 Bft) 94,00 %
15.07.2017 17:46 18,8 C 22,2 C 53 % 1020,4 hPa 0,0 l/m 8,0 km/h (2 Bft) W 279 2 min 0,000 mm 1,0 UV-I 277 W/m 9,0 C 18,1 C 11,3 km/h (2 Bft) 92,31 %
15.07.2017 17:48 18,9 C 22,2 C 54 % 1020,4 hPa 0,0 l/m 6,8 km/h (2 Bft) W 262 0 min 0,000 mm 0,9 UV-I 253 W/m 9,4 C 18,7 C 12,9 km/h (3 Bft) 96,36 %
15.07.2017 17:50 18,8 C 22,2 C 51 % 1020,4 hPa 0,0 l/m 7,4 km/h (2 Bft) SW 228 0 min 0,000 mm 0,8 UV-I 232 W/m 8,4 C 18,4 C 14,5 km/h (3 Bft) 97,87 %
15.07.2017 17:52 18,7 C 22,2 C 52 % 1020,4 hPa 0,0 l/m 13,8 km/h (3 Bft) NW 306 0 min 0,000 mm 0,8 UV-I 204 W/m 8,6 C 16,0 C 22,5 km/h (4 Bft) 90,48 %
15.07.2017 17:54 18,6 C 22,2 C 52 % 1020,4 hPa 0,0 l/m 10,2 km/h (2 Bft) W-SW 238 0 min 0,000 mm 0,7 UV-I 189 W/m 8,5 C 17,0 C 16,1 km/h (3 Bft) 90,00 %
15.07.2017 17:56 18,4 C 22,2 C 52 % 1020,4 hPa 0,0 l/m 12,4 km/h (3 Bft) SW 220 0 min 0,000 mm 0,7 UV-I 186 W/m 8,4 C 16,1 C 24,1 km/h (4 Bft) 97,37 %
15.07.2017 17:58 18,3 C 22,2 C 53 % 1020,4 hPa 0,0 l/m 9,4 km/h (2 Bft) W-SW 242 0 min 0,000 mm 0,7 UV-I 180 W/m 8,6 C 17,0 C 16,1 km/h (3 Bft) 94,00 %
15.07.2017 18:00 18,3 C 22,2 C 54 % 1020,3 hPa 0,0 l/m 6,4 km/h (2 Bft) W-SW 246 0 min 0,254 mm 0,6 UV-I 172 W/m 8,8 C 18,3 C 11,3 km/h (2 Bft) 97,73 %
15.07.2017 18:02 18,3 C 22,2 C 54 % 1020,4 hPa 0,0 l/m 7,1 km/h (2 Bft) W-SW 247 0 min 0,000 mm 0,6 UV-I 179 W/m 8,8 C 18,0 C 16,1 km/h (3 Bft) 92,45 %
15.07.2017 18:04 18,3 C 22,2 C 54 % 1020,4 hPa 0,0 l/m 12,1 km/h (2 Bft) W-SW 244 0 min 0,000 mm 0,6 UV-I 189 W/m 8,8 C 16,0 C 20,9 km/h (4 Bft) 97,56 %
15.07.2017 18:06 18,3 C 22,2 C 55 % 1020,3 hPa 0,0 l/m 7,2 km/h (2 Bft) W-NW 290 0 min 0,000 mm 0,6 UV-I 220 W/m 9,1 C 17,9 C 12,9 km/h (3 Bft) 98,21 %
15.07.2017 18:08 18,3 C 22,2 C 54 % 1020,3 hPa 0,0 l/m 9,7 km/h (2 Bft) W 267 0 min 0,000 mm 0,7 UV-I 229 W/m 8,8 C 16,9 C 20,9 km/h (4 Bft) 100,00 %
15.07.2017 18:10 18,4 C 22,2 C 55 % 1020,4 hPa 0,0 l/m 8,8 km/h (2 Bft) SW 224 0 min 0,000 mm 0,7 UV-I 219 W/m 9,2 C 17,3 C 12,9 km/h (3 Bft) 94,64 %
15.07.2017 18:12 18,4 C 22,2 C 56 % 1020,4 hPa 0,0 l/m 11,1 km/h (2 Bft) W 274 0 min 0,000 mm 0,7 UV-I 204 W/m 9,5 C 16,5 C 24,1 km/h (4 Bft) 96,43 %
15.07.2017 18:14 18,4 C 22,2 C 54 % 1020,4 hPa 0,0 l/m 14,2 km/h (3 Bft) W-SW 250 0 min 0,000 mm 0,7 UV-I 201 W/m 8,9 C 15,5 C 27,4 km/h (4 Bft) 100,00 %
15.07.2017 18:16 18,4 C 22,2 C 54 % 1020,4 hPa 0,0 l/m 13,2 km/h (3 Bft) W-SW 244 0 min 0,000 mm 0,6 UV-I 198 W/m 8,9 C 15,8 C 19,3 km/h (3 Bft) 100,00 %
15.07.2017 18:18 18,3 C 22,2 C 54 % 1020,4 hPa 0,0 l/m 13,1 km/h (3 Bft) SW 232 0 min 0,000 mm 0,6 UV-I 193 W/m 8,8 C 15,7 C 20,9 km/h (4 Bft) 98,00 %
15.07.2017 18:20 18,3 C 22,2 C 54 % 1020,4 hPa 0,0 l/m 10,6 km/h (2 Bft) W 265 0 min 0,000 mm 0,5 UV-I 186 W/m 8,8 C 16,5 C 20,9 km/h (4 Bft) 95,74 %
15.07.2017 18:22 18,3 C 22,2 C 54 % 1020,4 hPa 0,0 l/m 8,3 km/h (2 Bft) W 269 0 min 0,000 mm 0,5 UV-I 168 W/m 8,8 C 17,4 C 16,1 km/h (3 Bft) 97,73 %
15.07.2017 18:24 18,3 C 22,2 C 54 % 1020,4 hPa 0,0 l/m 13,1 km/h (3 Bft) W 267 0 min 0,000 mm 0,2 UV-I 157 W/m 8,8 C 15,7 C 20,9 km/h (4 Bft) 100,00 %
15.07.2017 18:26 18,2 C 22,2 C 55 % 1020,4 hPa 0,0 l/m 7,7 km/h (2 Bft) NW 323 0 min 0,000 mm 0,0 UV-I 147 W/m 9,0 C 17,6 C 17,7 km/h (3 Bft) 97,87 %
15.07.2017 18:28 18,2 C 22,2 C 55 % 1020,5 hPa 0,0 l/m 8,9 km/h (2 Bft) W-SW 238 0 min 0,000 mm 0,0 UV-I 131 W/m 9,0 C 17,1 C 14,5 km/h (3 Bft) 98,18 %
15.07.2017 18:30 18,2 C 22,2 C 55 % 1020,4 hPa 0,0 l/m 12,5 km/h (3 Bft) W 277 0 min 0,000 mm 0,0 UV-I 118 W/m 9,0 C 15,8 C 19,3 km/h (3 Bft) 100,00 %
15.07.2017 18:32 18,2 C 22,2 C 55 % 1020,5 hPa 0,0 l/m 15,1 km/h (3 Bft) W-SW 244 0 min 0,000 mm 0,0 UV-I 105 W/m 9,0 C 15,0 C 25,7 km/h (4 Bft) 98,11 %
15.07.2017 18:34 18,1 C 22,2 C 55 % 1020,5 hPa 0,0 l/m 17,5 km/h (3 Bft) W-SW 250 0 min 0,000 mm 0,0 UV-I 95 W/m 8,9 C 14,3 C 25,7 km/h (4 Bft) 97,87 %
15.07.2017 18:36 18,1 C 22,2 C 56 % 1020,5 hPa 0,0 l/m 11,6 km/h (2 Bft) W 265 0 min 0,000 mm 0,0 UV-I 86 W/m 9,2 C 16,0 C 19,3 km/h (3 Bft) 100,00 %
15.07.2017 18:38 18,0 C 22,2 C 56 % 1020,6 hPa 0,0 l/m 11,4 km/h (2 Bft) W-SW 252 0 min 0,000 mm 0,0 UV-I 81 W/m 9,1 C 15,9 C 20,9 km/h (4 Bft) 97,14 %
15.07.2017 18:40 17,9 C 22,2 C 57 % 1020,6 hPa 0,0 l/m 15,0 km/h (3 Bft) W-SW 258 0 min 0,000 mm 0,0 UV-I 77 W/m 9,3 C 14,7 C 20,9 km/h (4 Bft) 96,43 %
15.07.2017 18:42 17,9 C 22,2 C 57 % 1020,6 hPa 0,0 l/m 12,8 km/h (3 Bft) W 262 0 min 0,000 mm 0,0 UV-I 73 W/m 9,3 C 15,4 C 19,3 km/h (3 Bft) 96,15 %
15.07.2017 18:44 17,8 C 22,2 C 57 % 1020,7 hPa 0,0 l/m 9,3 km/h (2 Bft) W-SW 242 0 min 0,000 mm 0,0 UV-I 70 W/m 9,2 C 16,5 C 17,7 km/h (3 Bft) 97,18 %
15.07.2017 18:46 17,8 C 22,2 C 57 % 1020,6 hPa 0,0 l/m 12,2 km/h (2 Bft) W 278 0 min 0,000 mm 0,0 UV-I 64 W/m 9,2 C 15,4 C 24,1 km/h (4 Bft) 94,74 %
15.07.2017 18:48 17,8 C 22,2 C 57 % 1020,6 hPa 0,0 l/m 10,2 km/h (2 Bft) N-NW 332 0 min 0,000 mm 0,0 UV-I 58 W/m 9,2 C 16,1 C 19,3 km/h (3 Bft) 98,00 %
15.07.2017 18:50 17,7 C 22,2 C 56 % 1020,6 hPa 0,0 l/m 10,7 km/h (2 Bft) W-SW 238 0 min 0,000 mm 0,0 UV-I 51 W/m 8,8 C 15,8 C 16,1 km/h (3 Bft) 96,00 %
15.07.2017 18:52 17,7 C 22,2 C 57 % 1020,7 hPa 0,0 l/m 8,1 km/h (2 Bft) W-SW 244 0 min 0,000 mm 0,0 UV-I 47 W/m 9,1 C 16,9 C 12,9 km/h (3 Bft) 95,74 %
15.07.2017 18:54 17,7 C 22,2 C 57 % 1020,7 hPa 0,0 l/m 13,6 km/h (3 Bft) W 261 0 min 0,000 mm 0,0 UV-I 46 W/m 9,1 C 14,9 C 19,3 km/h (3 Bft) 94,00 %
15.07.2017 18:56 17,7 C 21,7 C 57 % 1020,7 hPa 0,0 l/m 15,6 km/h (3 Bft) W-SW 254 0 min 0,000 mm 0,0 UV-I 46 W/m 9,1 C 14,3 C 25,7 km/h (4 Bft) 95,35 %
15.07.2017 18:59 17,7 C 21,7 C 57 % 1020,8 hPa 0,0 l/m 14,6 km/h (3 Bft) W 259 0 min 0,000 mm 0,0 UV-I 48 W/m 9,1 C 14,6 C 29,0 km/h (5 Bft) 95,59 %
15.07.2017 19:00 17,7 C 21,7 C 57 % 1020,8 hPa 0,0 l/m 6,7 km/h (2 Bft) W-SW 237 0 min 0,000 mm 0,0 UV-I 49 W/m 9,1 C 17,6 C 11,3 km/h (2 Bft) 96,15 %
15.07.2017 19:02 17,7 C 21,7 C 57 % 1020,7 hPa 0,0 l/m 10,2 km/h (2 Bft) W-SW 254 0 min 0,152 mm 0,0 UV-I 51 W/m 9,1 C 16,0 C 16,1 km/h (3 Bft) 94,87 %
15.07.2017 19:04 17,7 C 21,7 C 58 % 1020,8 hPa 0,0 l/m 7,8 km/h (2 Bft) W 279 0 min 0,000 mm 0,0 UV-I 54 W/m 9,3 C 17,0 C 19,3 km/h (3 Bft) 94,00 %
15.07.2017 19:06 17,7 C 21,7 C 57 % 1020,8 hPa 0,0 l/m 6,7 km/h (2 Bft) W-SW 258 0 min 0,000 mm 0,0 UV-I 58 W/m 9,1 C 17,6 C 14,5 km/h (3 Bft) 96,30 %
15.07.2017 19:08 17,7 C 21,7 C 58 % 1020,8 hPa 0,0 l/m 7,0 km/h (2 Bft) W 269 0 min 0,000 mm 0,0 UV-I 62 W/m 9,3 C 17,4 C 14,5 km/h (3 Bft) 95,56 %
15.07.2017 19:10 17,7 C 21,7 C 58 % 1020,8 hPa 0,0 l/m 6,2 km/h (2 Bft) W-SW 242 0 min 0,000 mm 0,0 UV-I 63 W/m 9,3 C 17,7 C 11,3 km/h (2 Bft) 97,73 %
15.07.2017 19:12 17,7 C 21,7 C 56 % 1020,8 hPa 0,0 l/m 12,1 km/h (2 Bft) SW 221 0 min 0,000 mm 0,0 UV-I 63 W/m 8,8 C 15,3 C 20,9 km/h (4 Bft) 96,23 %
15.07.2017 19:14 17,7 C 21,7 C 55 % 1020,9 hPa 0,0 l/m 8,7 km/h (2 Bft) W-NW 296 0 min 0,000 mm 0,0 UV-I 62 W/m 8,5 C 16,6 C 12,9 km/h (3 Bft) 97,56 %
15.07.2017 19:16 17,7 C 21,7 C 55 % 1020,8 hPa 0,0 l/m 7,5 km/h (2 Bft) W 259 0 min 0,000 mm 0,0 UV-I 60 W/m 8,5 C 17,2 C 11,3 km/h (2 Bft) 97,73 %
15.07.2017 19:18 17,7 C 21,7 C 55 % 1020,9 hPa 0,0 l/m 6,4 km/h (2 Bft) W-SW 242 0 min 0,000 mm 0,0 UV-I 60 W/m 8,5 C 17,7 C 12,9 km/h (3 Bft) 98,00 %
15.07.2017 19:20 17,7 C 21,7 C 56 % 1021,0 hPa 0,0 l/m 7,2 km/h (2 Bft) N-NW 345 0 min 0,000 mm 0,0 UV-I 60 W/m 8,8 C 17,3 C 12,9 km/h (3 Bft) 95,45 %
15.07.2017 19:22 17,7 C 21,7 C 57 % 1021,0 hPa 0,0 l/m 9,1 km/h (2 Bft) SW 221 0 min 0,000 mm 0,0 UV-I 60 W/m 9,1 C 16,5 C 16,1 km/h (3 Bft) 96,00 %
15.07.2017 19:24 17,6 C 21,7 C 56 % 1020,9 hPa 0,0 l/m 9,0 km/h (2 Bft) SW 217 0 min 0,000 mm 0,0 UV-I 60 W/m 8,7 C 16,4 C 14,5 km/h (3 Bft) 96,15 %
15.07.2017 19:26 17,6 C 21,7 C 57 % 1021,1 hPa 0,0 l/m 10,6 km/h (2 Bft) W 262 0 min 0,000 mm 0,0 UV-I 57 W/m 9,0 C 15,8 C 20,9 km/h (4 Bft) 94,74 %
15.07.2017 19:28 17,6 C 21,7 C 57 % 1021,0 hPa 0,0 l/m 9,6 km/h (2 Bft) W-NW 283 0 min 0,000 mm 0,0 UV-I 55 W/m 9,0 C 16,1 C 16,1 km/h (3 Bft) 96,00 %
15.07.2017 19:30 17,6 C 21,7 C 57 % 1021,0 hPa 0,0 l/m 10,8 km/h (2 Bft) W-NW 293 0 min 0,000 mm 0,0 UV-I 52 W/m 9,0 C 15,7 C 20,9 km/h (4 Bft) 97,56 %
15.07.2017 19:32 17,6 C 21,7 C 56 % 1021,0 hPa 0,0 l/m 8,9 km/h (2 Bft) W-SW 253 0 min 0,000 mm 0,0 UV-I 49 W/m 8,7 C 16,4 C 20,9 km/h (4 Bft) 96,00 %
15.07.2017 19:34 17,6 C 21,7 C 56 % 1021,0 hPa 0,0 l/m 6,7 km/h (2 Bft) W-SW 247 0 min 0,000 mm 0,0 UV-I 47 W/m 8,7 C 17,5 C 12,9 km/h (3 Bft) 96,00 %
15.07.2017 19:36 17,5 C 21,7 C 56 % 1021,0 hPa 0,0 l/m 8,1 km/h (2 Bft) W-NW 288 0 min 0,000 mm 0,0 UV-I 47 W/m 8,6 C 16,7 C 14,5 km/h (3 Bft) 95,74 %
15.07.2017 19:38 17,5 C 21,7 C 56 % 1021,1 hPa 0,0 l/m 9,1 km/h (2 Bft) W-NW 286 0 min 0,000 mm 0,0 UV-I 46 W/m 8,6 C 16,2 C 19,3 km/h (3 Bft) 92,11 %
15.07.2017 19:40 17,5 C 21,7 C 56 % 1021,1 hPa 0,0 l/m 8,7 km/h (2 Bft) N-NW 334 0 min 0,000 mm 0,0 UV-I 47 W/m 8,6 C 16,4 C 17,7 km/h (3 Bft) 94,64 %
15.07.2017 19:42 17,4 C 21,7 C 56 % 1021,1 hPa 0,0 l/m 7,8 km/h (2 Bft) W 273 0 min 0,000 mm 0,0 UV-I 47 W/m 8,5 C 16,7 C 16,1 km/h (3 Bft) 89,74 %
15.07.2017 19:44 17,4 C 21,7 C 56 % 1021,1 hPa 0,0 l/m 6,7 km/h (2 Bft) W-SW 242 0 min 0,000 mm 0,0 UV-I 47 W/m 8,5 C 17,3 C 12,9 km/h (3 Bft) 94,34 %
15.07.2017 19:46 17,4 C 21,7 C 56 % 1021,1 hPa 0,0 l/m 4,5 km/h (1 Bft) W 263 0 min 0,000 mm 0,0 UV-I 47 W/m 8,5 C 17,4 C 11,3 km/h (2 Bft) 94,00 %
15.07.2017 19:48 17,3 C 21,7 C 57 % 1021,2 hPa 0,0 l/m 4,4 km/h (1 Bft) SW 227 0 min 0,000 mm 0,0 UV-I 47 W/m 8,7 C 17,3 C 6,4 km/h (2 Bft) 95,74 %
15.07.2017 19:50 17,3 C 21,7 C 57 % 1021,2 hPa 0,0 l/m 4,9 km/h (1 Bft) SW 236 0 min 0,000 mm 0,0 UV-I 47 W/m 8,7 C 17,3 C 8,0 km/h (2 Bft) 95,45 %
15.07.2017 19:52 17,3 C 21,7 C 58 % 1021,2 hPa 0,0 l/m 5,2 km/h (1 Bft) W-SW 247 0 min 0,000 mm 0,0 UV-I 47 W/m 9,0 C 17,3 C 9,7 km/h (2 Bft) 92,45 %
15.07.2017 19:54 17,3 C 21,7 C 58 % 1021,2 hPa 0,0 l/m 6,4 km/h (2 Bft) W 261 0 min 0,000 mm 0,0 UV-I 47 W/m 9,0 C 17,3 C 14,5 km/h (3 Bft) 92,11 %
15.07.2017 19:56 17,2 C 21,7 C 58 % 1021,3 hPa 0,0 l/m 6,1 km/h (2 Bft) W-SW 257 0 min 0,000 mm 0,0 UV-I 45 W/m 8,9 C 17,2 C 11,3 km/h (2 Bft) 94,64 %
15.07.2017 19:58 17,2 C 21,7 C 59 % 1021,3 hPa 0,0 l/m 6,8 km/h (2 Bft) W-SW 252 0 min 0,000 mm 0,0 UV-I 42 W/m 9,1 C 17,0 C 16,1 km/h (3 Bft) 94,74 %
15.07.2017 20:00 17,2 C 21,7 C 57 % 1021,2 hPa 0,0 l/m 6,7 km/h (2 Bft) W 274 0 min 0,000 mm 0,0 UV-I 39 W/m 8,6 C 17,1 C 14,5 km/h (3 Bft) 96,00 %
15.07.2017 20:02 17,2 C 21,7 C 57 % 1021,3 hPa 0,0 l/m 7,2 km/h (2 Bft) W 267 0 min 0,076 mm 0,0 UV-I 35 W/m 8,6 C 16,8 C 14,5 km/h (3 Bft) 97,56 %
15.07.2017 20:04 17,1 C 21,7 C 58 % 1021,3 hPa 0,0 l/m 8,0 km/h (2 Bft) SW 230 0 min 0,000 mm 0,0 UV-I 33 W/m 8,8 C 16,3 C 11,3 km/h (2 Bft) 95,12 %
15.07.2017 20:06 17,1 C 21,7 C 58 % 1021,3 hPa 0,0 l/m 7,1 km/h (2 Bft) NW 325 0 min 0,000 mm 0,0 UV-I 30 W/m 8,8 C 16,7 C 12,9 km/h (3 Bft) 100,00 %
15.07.2017 20:08 17,1 C 21,7 C 58 % 1021,3 hPa 0,0 l/m 4,5 km/h (1 Bft) W 259 0 min 0,000 mm 0,0 UV-I 28 W/m 8,8 C 17,1 C 9,7 km/h (2 Bft) 94,64 %
15.07.2017 20:10 17,1 C 21,7 C 57 % 1021,3 hPa 0,0 l/m 8,0 km/h (2 Bft) W-SW 244 0 min 0,000 mm 0,0 UV-I 27 W/m 8,5 C 16,3 C 17,7 km/h (3 Bft) 97,37 %
15.07.2017 20:12 17,1 C 21,7 C 58 % 1021,3 hPa 0,0 l/m 4,3 km/h (1 Bft) W-SW 258 0 min 0,000 mm 0,0 UV-I 24 W/m 8,8 C 17,1 C 6,4 km/h (2 Bft) 100,00 %
15.07.2017 20:14 17,0 C 21,7 C 58 % 1021,4 hPa 0,0 l/m 6,1 km/h (2 Bft) W 281 0 min 0,000 mm 0,0 UV-I 22 W/m 8,7 C 17,0 C 12,9 km/h (3 Bft) 96,43 %
15.07.2017 20:16 17,0 C 21,7 C 58 % 1021,4 hPa 0,0 l/m 3,4 km/h (1 Bft) W-SW 254 0 min 0,000 mm 0,0 UV-I 19 W/m 8,7 C 17,0 C 9,7 km/h (2 Bft) 97,87 %
15.07.2017 20:18 16,9 C 21,7 C 58 % 1021,5 hPa 0,0 l/m 6,1 km/h (2 Bft) S-SW 206 0 min 0,000 mm 0,0 UV-I 18 W/m 8,6 C 16,9 C 9,7 km/h (2 Bft) 97,56 %
15.07.2017 20:20 16,9 C 21,7 C 58 % 1021,6 hPa 0,0 l/m 6,3 km/h (2 Bft) W 269 0 min 0,000 mm 0,0 UV-I 17 W/m 8,6 C 16,9 C 11,3 km/h (2 Bft) 100,00 %
15.07.2017 20:22 16,9 C 21,7 C 58 % 1021,6 hPa 0,0 l/m 3,7 km/h (1 Bft) N-NW 343 0 min 0,000 mm 0,0 UV-I 15 W/m 8,6 C 16,9 C 9,7 km/h (2 Bft) 100,00 %
15.07.2017 20:24 16,9 C 21,7 C 59 % 1021,6 hPa 0,0 l/m 5,1 km/h (1 Bft) SW 232 0 min 0,000 mm 0,0 UV-I 14 W/m 8,8 C 16,9 C 11,3 km/h (2 Bft) 97,73 %
15.07.2017 20:26 16,9 C 21,7 C 59 % 1021,6 hPa 0,0 l/m 7,6 km/h (2 Bft) W-SW 245 0 min 0,000 mm 0,0 UV-I 12 W/m 8,8 C 16,3 C 12,9 km/h (3 Bft) 100,00 %
15.07.2017 20:28 16,8 C 21,7 C 60 % 1021,6 hPa 0,0 l/m 4,2 km/h (1 Bft) W-NW 291 0 min 0,000 mm 0,0 UV-I 12 W/m 9,0 C 16,8 C 4,8 km/h (1 Bft) 97,56 %
15.07.2017 20:30 16,8 C 21,7 C 59 % 1021,6 hPa 0,0 l/m 4,1 km/h (1 Bft) W 259 0 min 0,000 mm 0,0 UV-I 12 W/m 8,7 C 16,8 C 6,4 km/h (2 Bft) 98,00 %
15.07.2017 20:32 16,8 C 21,7 C 60 % 1021,6 hPa 0,0 l/m 3,7 km/h (1 Bft) W-NW 294 0 min 0,000 mm 0,0 UV-I 11 W/m 9,0 C 16,8 C 6,4 km/h (2 Bft) 98,00 %
15.07.2017 20:34 16,8 C 21,7 C 59 % 1021,6 hPa 0,0 l/m 3,5 km/h (1 Bft) W-NW 287 0 min 0,000 mm 0,0 UV-I 11 W/m 8,7 C 16,8 C 6,4 km/h (2 Bft) 97,56 %
15.07.2017 20:36 16,8 C 21,7 C 60 % 1021,6 hPa 0,0 l/m 3,5 km/h (1 Bft) W 265 0 min 0,000 mm 0,0 UV-I 11 W/m 9,0 C 16,8 C 4,8 km/h (1 Bft) 92,00 %
15.07.2017 20:38 16,8 C 21,7 C 60 % 1021,6 hPa 0,0 l/m 4,6 km/h (1 Bft) W 281 0 min 0,000 mm 0,0 UV-I 11 W/m 9,0 C 16,8 C 8,0 km/h (2 Bft) 100,00 %
15.07.2017 20:40 16,7 C 21,7 C 60 % 1021,6 hPa 0,0 l/m 4,4 km/h (1 Bft) W-SW 253 0 min 0,000 mm 0,0 UV-I 11 W/m 8,9 C 16,7 C 6,4 km/h (2 Bft) 98,11 %
15.07.2017 20:42 16,7 C 21,7 C 60 % 1021,6 hPa 0,0 l/m 3,3 km/h (1 Bft) W-NW 286 0 min 0,000 mm 0,0 UV-I 10 W/m 8,9 C 16,7 C 6,4 km/h (2 Bft) 100,00 %
15.07.2017 20:44 16,7 C 21,7 C 60 % 1021,6 hPa 0,0 l/m 4,8 km/h (1 Bft) W 269 0 min 0,000 mm 0,0 UV-I 9 W/m 8,9 C 16,7 C 11,3 km/h (2 Bft) 97,37 %
15.07.2017 20:46 16,7 C 21,7 C 61 % 1021,6 hPa 0,0 l/m 3,2 km/h (1 Bft) W-SW 256 0 min 0,000 mm 0,0 UV-I 8 W/m 9,1 C 16,7 C 6,4 km/h (2 Bft) 100,00 %
15.07.2017 20:48 16,6 C 21,7 C 61 % 1021,7 hPa 0,0 l/m 3,1 km/h (1 Bft) W-SW 257 0 min 0,000 mm 0,0 UV-I 7 W/m 9,0 C 16,6 C 4,8 km/h (1 Bft) 96,00 %
15.07.2017 20:50 16,6 C 21,7 C 61 % 1021,7 hPa 0,0 l/m 3,8 km/h (1 Bft) W-SW 257 0 min 0,000 mm 0,0 UV-I 7 W/m 9,0 C 16,6 C 6,4 km/h (2 Bft) 98,00 %
15.07.2017 20:52 16,5 C 21,7 C 62 % 1021,7 hPa 0,0 l/m 3,4 km/h (1 Bft) W-SW 257 0 min 0,000 mm 0,0 UV-I 5 W/m 9,2 C 16,5 C 4,8 km/h (1 Bft) 100,00 %
15.07.2017 20:54 16,5 C 21,7 C 61 % 1021,7 hPa 0,0 l/m 3,7 km/h (1 Bft) W-SW 257 0 min 0,000 mm 0,0 UV-I 5 W/m 9,0 C 16,5 C 4,8 km/h (1 Bft) 96,23 %
15.07.2017 20:56 16,4 C 21,7 C 62 % 1021,8 hPa 0,0 l/m 4,1 km/h (1 Bft) W-NW 284 0 min 0,000 mm 0,0 UV-I 5 W/m 9,1 C 16,4 C 6,4 km/h (2 Bft) 97,37 %
15.07.2017 20:58 16,4 C 21,7 C 62 % 1021,8 hPa 0,0 l/m 4,8 km/h (1 Bft) W 268 0 min 0,000 mm 0,0 UV-I 5 W/m 9,1 C 16,4 C 9,7 km/h (2 Bft) 98,00 %
15.07.2017 21:00 16,4 C 21,7 C 62 % 1021,8 hPa 0,0 l/m 4,1 km/h (1 Bft) W 268 0 min 0,051 mm 0,0 UV-I 5 W/m 9,1 C 16,4 C 4,8 km/h (1 Bft) 97,92 %
15.07.2017 21:02 16,4 C 21,7 C 62 % 1021,7 hPa 0,0 l/m 4,7 km/h (1 Bft) W 267 0 min 0,000 mm 0,0 UV-I 5 W/m 9,1 C 16,4 C 6,4 km/h (2 Bft) 98,08 %
15.07.2017 21:04 16,3 C 21,7 C 63 % 1021,8 hPa 0,0 l/m 5,5 km/h (1 Bft) W-SW 254 0 min 0,000 mm 0,0 UV-I 3 W/m 9,2 C 16,3 C 9,7 km/h (2 Bft) 100,00 %
15.07.2017 21:06 16,3 C 21,7 C 62 % 1021,8 hPa 0,0 l/m 5,7 km/h (1 Bft) W-SW 251 0 min 0,000 mm 0,0 UV-I 0 W/m 9,0 C 16,3 C 8,0 km/h (2 Bft) 100,00 %
15.07.2017 21:08 16,3 C 21,7 C 63 % 1021,8 hPa 0,0 l/m 5,5 km/h (1 Bft) W 265 0 min 0,000 mm 0,0 UV-I 0 W/m 9,2 C 16,3 C 9,7 km/h (2 Bft) 100,00 %
15.07.2017 21:10 16,3 C 21,7 C 63 % 1021,8 hPa 0,0 l/m 5,6 km/h (1 Bft) W 261 0 min 0,000 mm 0,0 UV-I 0 W/m 9,2 C 16,3 C 6,4 km/h (2 Bft) 97,73 %
15.07.2017 21:12 16,2 C 21,7 C 63 % 1021,9 hPa 0,0 l/m 5,7 km/h (1 Bft) W-SW 257 0 min 0,000 mm 0,0 UV-I 0 W/m 9,1 C 16,2 C 6,4 km/h (2 Bft) 98,00 %
15.07.2017 21:14 16,2 C 21,7 C 64 % 1021,9 hPa 0,0 l/m 6,1 km/h (2 Bft) W 271 0 min 0,000 mm 0,0 UV-I 0 W/m 9,4 C 16,2 C 9,7 km/h (2 Bft) 100,00 %
15.07.2017 21:16 16,2 C 21,7 C 64 % 1021,9 hPa 0,0 l/m 6,1 km/h (2 Bft) W-SW 256 0 min 0,000 mm 0,0 UV-I 0 W/m 9,4 C 16,2 C 9,7 km/h (2 Bft) 96,00 %
15.07.2017 21:18 16,2 C 21,7 C 64 % 1022,0 hPa 0,0 l/m 6,3 km/h (2 Bft) W-SW 250 0 min 0,000 mm 0,0 UV-I 0 W/m 9,4 C 16,2 C 9,7 km/h (2 Bft) 94,74 %
15.07.2017 21:20 16,2 C 21,7 C 63 % 1022,0 hPa 0,0 l/m 7,0 km/h (2 Bft) W-SW 250 0 min 0,000 mm 0,0 UV-I 0 W/m 9,1 C 15,9 C 11,3 km/h (2 Bft) 98,31 %
15.07.2017 21:22 16,1 C 21,7 C 64 % 1022,0 hPa 0,0 l/m 6,9 km/h (2 Bft) W 261 0 min 0,000 mm 0,0 UV-I 0 W/m 9,3 C 15,8 C 11,3 km/h (2 Bft) 97,37 %
15.07.2017 21:24 16,1 C 21,7 C 64 % 1022,0 hPa 0,0 l/m 7,9 km/h (2 Bft) W-SW 243 0 min 0,000 mm 0,0 UV-I 0 W/m 9,3 C 15,3 C 11,3 km/h (2 Bft) 100,00 %
15.07.2017 21:26 16,1 C 21,7 C 64 % 1022,1 hPa 0,0 l/m 6,2 km/h (2 Bft) W 265 0 min 0,000 mm 0,0 UV-I 0 W/m 9,3 C 16,1 C 11,3 km/h (2 Bft) 97,56 %
15.07.2017 21:28 16,1 C 21,7 C 64 % 1022,1 hPa 0,0 l/m 7,5 km/h (2 Bft) W-SW 246 0 min 0,000 mm 0,0 UV-I 0 W/m 9,3 C 15,5 C 9,7 km/h (2 Bft) 97,87 %
15.07.2017 21:30 16,1 C 21,7 C 64 % 1022,1 hPa 0,0 l/m 7,6 km/h (2 Bft) W-SW 253 0 min 0,000 mm 0,0 UV-I 0 W/m 9,3 C 15,5 C 11,3 km/h (2 Bft) 96,00 %
15.07.2017 21:33 16,1 C 21,7 C 65 % 1022,1 hPa 0,0 l/m 7,9 km/h (2 Bft) W-SW 238 0 min 0,000 mm 0,0 UV-I 0 W/m 9,5 C 15,3 C 12,9 km/h (3 Bft) 95,95 %
15.07.2017 21:34 16,1 C 21,7 C 65 % 1022,1 hPa 0,0 l/m 8,0 km/h (2 Bft) W 280 0 min 0,000 mm 0,0 UV-I 0 W/m 9,5 C 15,3 C 11,3 km/h (2 Bft) 95,65 %
15.07.2017 21:36 16,1 C 21,7 C 65 % 1022,1 hPa 0,0 l/m 7,3 km/h (2 Bft) W-SW 257 0 min 0,000 mm 0,0 UV-I 0 W/m 9,5 C 15,6 C 11,3 km/h (2 Bft) 97,37 %
15.07.2017 21:38 16,0 C 21,7 C 64 % 1022,1 hPa 0,0 l/m 7,9 km/h (2 Bft) W-SW 244 0 min 0,000 mm 0,0 UV-I 0 W/m 9,2 C 15,2 C 14,5 km/h (3 Bft) 98,00 %
15.07.2017 21:40 16,0 C 21,7 C 64 % 1022,1 hPa 0,0 l/m 8,6 km/h (2 Bft) W-SW 254 0 min 0,000 mm 0,0 UV-I 0 W/m 9,2 C 14,9 C 11,3 km/h (2 Bft) 93,33 %
15.07.2017 21:44 16,1 C 21,7 C 65 % 1022,2 hPa 0,0 l/m 8,2 km/h (2 Bft) W-SW 258 0 min 0,000 mm 0,0 UV-I 0 W/m 9,5 C 15,2 C 11,3 km/h (2 Bft) 98,20 %
15.07.2017 21:46 16,1 C 21,7 C 65 % 1022,2 hPa 0,0 l/m 7,5 km/h (2 Bft) W-SW 254 0 min 0,000 mm 0,0 UV-I 0 W/m 9,5 C 15,5 C 11,3 km/h (2 Bft) 92,86 %
15.07.2017 21:48 16,0 C 21,7 C 65 % 1022,2 hPa 0,0 l/m 7,1 km/h (2 Bft) W-SW 242 0 min 0,000 mm 0,0 UV-I 0 W/m 9,4 C 15,6 C 9,7 km/h (2 Bft) 94,64 %
15.07.2017 21:50 16,0 C 21,7 C 65 % 1022,3 hPa 0,0 l/m 7,4 km/h (2 Bft) W-SW 249 0 min 0,000 mm 0,0 UV-I 0 W/m 9,4 C 15,5 C 12,9 km/h (3 Bft) 95,12 %
15.07.2017 21:52 15,9 C 21,7 C 65 % 1022,3 hPa 0,0 l/m 7,4 km/h (2 Bft) W-SW 256 0 min 0,000 mm 0,0 UV-I 0 W/m 9,3 C 15,4 C 11,3 km/h (2 Bft) 98,11 %
15.07.2017 21:54 15,9 C 21,7 C 65 % 1022,3 hPa 0,0 l/m 7,6 km/h (2 Bft) W 268 0 min 0,000 mm 0,0 UV-I 0 W/m 9,3 C 15,3 C 11,3 km/h (2 Bft) 96,00 %
15.07.2017 21:56 15,9 C 21,7 C 66 % 1022,3 hPa 0,0 l/m 7,5 km/h (2 Bft) W 259 0 min 0,000 mm 0,0 UV-I 0 W/m 9,6 C 15,3 C 9,7 km/h (2 Bft) 97,37 %
15.07.2017 21:58 15,9 C 21,7 C 66 % 1022,2 hPa 0,0 l/m 7,8 km/h (2 Bft) W-SW 240 0 min 0,000 mm 0,0 UV-I 0 W/m 9,6 C 15,1 C 11,3 km/h (2 Bft) 94,00 %
15.07.2017 22:00 15,9 C 21,7 C 66 % 1022,3 hPa 0,0 l/m 7,6 km/h (2 Bft) W-SW 252 0 min 0,051 mm 0,0 UV-I 0 W/m 9,6 C 15,3 C 11,3 km/h (2 Bft) 95,74 %
15.07.2017 22:02 15,9 C 21,7 C 66 % 1022,3 hPa 0,0 l/m 7,3 km/h (2 Bft) W 261 0 min 0,000 mm 0,0 UV-I 0 W/m 9,6 C 15,4 C 11,3 km/h (2 Bft) 95,12 %
15.07.2017 22:04 15,8 C 21,7 C 66 % 1022,2 hPa 0,0 l/m 7,3 km/h (2 Bft) W-SW 242 0 min 0,000 mm 0,0 UV-I 0 W/m 9,5 C 15,3 C 11,3 km/h (2 Bft) 95,74 %
15.07.2017 22:06 15,8 C 21,7 C 66 % 1022,2 hPa 0,0 l/m 7,3 km/h (2 Bft) W-SW 241 0 min 0,000 mm 0,0 UV-I 0 W/m 9,5 C 15,3 C 12,9 km/h (3 Bft) 100,00 %
15.07.2017 22:08 15,8 C 21,7 C 66 % 1022,2 hPa 0,0 l/m 6,2 km/h (2 Bft) W 265 0 min 0,000 mm 0,0 UV-I 0 W/m 9,5 C 15,8 C 11,3 km/h (2 Bft) 98,11 %
15.07.2017 22:10 15,8 C 21,7 C 66 % 1022,3 hPa 0,0 l/m 8,5 km/h (2 Bft) W-SW 251 0 min 0,000 mm 0,0 UV-I 0 W/m 9,5 C 14,7 C 12,9 km/h (3 Bft) 98,00 %
15.07.2017 22:12 15,8 C 21,7 C 66 % 1022,3 hPa 0,0 l/m 8,4 km/h (2 Bft) W-SW 257 0 min 0,000 mm 0,0 UV-I 0 W/m 9,5 C 14,7 C 12,9 km/h (3 Bft) 100,00 %
15.07.2017 22:14 15,8 C 21,7 C 65 % 1022,4 hPa 0,0 l/m 8,3 km/h (2 Bft) W-SW 246 0 min 0,000 mm 0,0 UV-I 0 W/m 9,2 C 14,8 C 12,9 km/h (3 Bft) 95,45 %
15.07.2017 22:16 15,8 C 21,7 C 66 % 1022,5 hPa 0,0 l/m 5,9 km/h (2 Bft) W-SW 254 0 min 0,000 mm 0,0 UV-I 0 W/m 9,5 C 15,8 C 12,9 km/h (3 Bft) 100,00 %
15.07.2017 22:18 15,8 C 21,7 C 66 % 1022,5 hPa 0,0 l/m 6,6 km/h (2 Bft) W-SW 255 0 min 0,000 mm 0,0 UV-I 0 W/m 9,5 C 15,7 C 11,3 km/h (2 Bft) 96,30 %
15.07.2017 22:20 15,8 C 21,7 C 66 % 1022,5 hPa 0,0 l/m 7,1 km/h (2 Bft) W-SW 243 0 min 0,000 mm 0,0 UV-I 0 W/m 9,5 C 15,4 C 11,3 km/h (2 Bft) 100,00 %
15.07.2017 22:22 15,8 C 21,7 C 66 % 1022,5 hPa 0,0 l/m 4,8 km/h (1 Bft) W-SW 249 0 min 0,000 mm 0,0 UV-I 0 W/m 9,5 C 15,8 C 8,0 km/h (2 Bft) 95,83 %
15.07.2017 22:24 15,8 C 21,7 C 65 % 1022,5 hPa 0,0 l/m 5,5 km/h (1 Bft) W-SW 248 0 min 0,000 mm 0,0 UV-I 0 W/m 9,2 C 15,8 C 6,4 km/h (2 Bft) 97,56 %
15.07.2017 22:26 15,8 C 21,7 C 66 % 1022,5 hPa 0,0 l/m 5,2 km/h (1 Bft) W-SW 248 0 min 0,000 mm 0,0 UV-I 0 W/m 9,5 C 15,8 C 6,4 km/h (2 Bft) 98,11 %
15.07.2017 22:28 15,8 C 21,7 C 66 % 1022,5 hPa 0,0 l/m 4,2 km/h (1 Bft) W-SW 248 0 min 0,000 mm 0,0 UV-I 0 W/m 9,5 C 15,8 C 6,4 km/h (2 Bft) 100,00 %
15.07.2017 22:30 15,7 C 21,7 C 66 % 1022,5 hPa 0,0 l/m 4,7 km/h (1 Bft) W-SW 249 0 min 0,000 mm 0,0 UV-I 0 W/m 9,4 C 15,7 C 8,0 km/h (2 Bft) 98,00 %
15.07.2017 22:32 15,7 C 21,7 C 66 % 1022,5 hPa 0,0 l/m 4,2 km/h (1 Bft) W-SW 248 0 min 0,000 mm 0,0 UV-I 0 W/m 9,4 C 15,7 C 6,4 km/h (2 Bft) 100,00 %
15.07.2017 22:34 15,7 C 21,7 C 67 % 1022,5 hPa 0,0 l/m 6,4 km/h (2 Bft) W-SW 248 0 min 0,000 mm 0,0 UV-I 0 W/m 9,6 C 15,7 C 9,7 km/h (2 Bft) 98,11 %
15.07.2017 22:36 15,6 C 21,7 C 68 % 1022,5 hPa 0,0 l/m 6,2 km/h (2 Bft) SW 233 0 min 0,000 mm 0,0 UV-I 0 W/m 9,7 C 15,6 C 9,7 km/h (2 Bft) 95,12 %
15.07.2017 22:38 15,6 C 21,7 C 68 % 1022,6 hPa 0,0 l/m 5,0 km/h (1 Bft) SW 233 0 min 0,000 mm 0,0 UV-I 0 W/m 9,7 C 15,6 C 6,4 km/h (2 Bft) 100,00 %
15.07.2017 22:40 15,5 C 21,7 C 68 % 1022,6 hPa 0,0 l/m 4,8 km/h (1 Bft) SW 233 0 min 0,000 mm 0,0 UV-I 0 W/m 9,6 C 15,5 C 6,4 km/h (2 Bft) 96,23 %
15.07.2017 22:42 15,4 C 21,7 C 68 % 1022,6 hPa 0,0 l/m 4,7 km/h (1 Bft) SW 233 0 min 0,000 mm 0,0 UV-I 0 W/m 9,5 C 15,4 C 6,4 km/h (2 Bft) 97,87 %
15.07.2017 22:44 15,4 C 21,7 C 69 % 1022,6 hPa 0,0 l/m 4,2 km/h (1 Bft) SW 233 0 min 0,000 mm 0,0 UV-I 0 W/m 9,7 C 15,4 C 6,4 km/h (2 Bft) 95,12 %
15.07.2017 22:46 15,3 C 21,7 C 69 % 1022,6 hPa 0,0 l/m 5,5 km/h (1 Bft) S-SW 211 0 min 0,000 mm 0,0 UV-I 0 W/m 9,6 C 15,3 C 9,7 km/h (2 Bft) 97,73 %
15.07.2017 22:48 15,3 C 21,7 C 69 % 1022,6 hPa 0,0 l/m 5,0 km/h (1 Bft) S-SW 211 0 min 0,000 mm 0,0 UV-I 0 W/m 9,6 C 15,3 C 8,0 km/h (2 Bft) 94,34 %
15.07.2017 22:50 15,3 C 21,7 C 69 % 1022,5 hPa 0,0 l/m 7,4 km/h (2 Bft) S-SW 211 0 min 0,000 mm 0,0 UV-I 0 W/m 9,6 C 14,7 C 9,7 km/h (2 Bft) 97,73 %
15.07.2017 22:52 15,3 C 21,7 C 69 % 1022,6 hPa 0,0 l/m 7,0 km/h (2 Bft) S-SW 208 0 min 0,000 mm 0,0 UV-I 0 W/m 9,6 C 15,0 C 11,3 km/h (2 Bft) 93,62 %
15.07.2017 22:54 15,2 C 21,7 C 69 % 1022,6 hPa 0,0 l/m 6,8 km/h (2 Bft) SW 214 0 min 0,000 mm 0,0 UV-I 0 W/m 9,6 C 15,0 C 9,7 km/h (2 Bft) 96,00 %
15.07.2017 22:56 15,2 C 21,7 C 70 % 1022,6 hPa 0,0 l/m 5,3 km/h (1 Bft) SW 214 0 min 0,000 mm 0,0 UV-I 0 W/m 9,8 C 15,2 C 8,0 km/h (2 Bft) 97,44 %
15.07.2017 22:58 15,2 C 21,7 C 70 % 1022,6 hPa 0,0 l/m 6,0 km/h (2 Bft) W-SW 244 0 min 0,000 mm 0,0 UV-I 0 W/m 9,8 C 15,2 C 8,0 km/h (2 Bft) 94,55 %
15.07.2017 23:00 15,2 C 21,1 C 70 % 1022,6 hPa 0,0 l/m 5,3 km/h (1 Bft) SW 229 0 min 0,000 mm 0,0 UV-I 0 W/m 9,8 C 15,2 C 8,0 km/h (2 Bft) 98,00 %
15.07.2017 23:02 15,1 C 21,1 C 71 % 1022,6 hPa 0,0 l/m 5,4 km/h (1 Bft) SW 219 0 min 0,025 mm 0,0 UV-I 0 W/m 9,9 C 15,1 C 8,0 km/h (2 Bft) 95,74 %
15.07.2017 23:04 15,1 C 21,1 C 71 % 1022,6 hPa 0,0 l/m 6,0 km/h (2 Bft) SW 229 0 min 0,000 mm 0,0 UV-I 0 W/m 9,9 C 15,1 C 8,0 km/h (2 Bft) 95,24 %
15.07.2017 23:06 15,1 C 21,1 C 72 % 1022,6 hPa 0,0 l/m 5,7 km/h (1 Bft) SW 225 0 min 0,000 mm 0,0 UV-I 0 W/m 10,1 C 15,1 C 8,0 km/h (2 Bft) 98,00 %
15.07.2017 23:08 15,0 C 21,1 C 72 % 1022,6 hPa 0,0 l/m 6,3 km/h (2 Bft) SW 225 0 min 0,000 mm 0,0 UV-I 0 W/m 10,0 C 15,0 C 9,7 km/h (2 Bft) 97,14 %
15.07.2017 23:10 14,9 C 21,1 C 73 % 1022,6 hPa 0,0 l/m 6,1 km/h (2 Bft) SW 223 0 min 0,000 mm 0,0 UV-I 0 W/m 10,1 C 14,9 C 9,7 km/h (2 Bft) 96,77 %
15.07.2017 23:12 14,8 C 21,1 C 73 % 1022,7 hPa 0,0 l/m 5,2 km/h (1 Bft) SW 236 0 min 0,000 mm 0,0 UV-I 0 W/m 10,0 C 14,8 C 8,0 km/h (2 Bft) 94,74 %
15.07.2017 23:14 14,8 C 21,1 C 73 % 1022,6 hPa 0,0 l/m 6,5 km/h (2 Bft) SW 233 0 min 0,000 mm 0,0 UV-I 0 W/m 10,0 C 14,8 C 11,3 km/h (2 Bft) 97,87 %
15.07.2017 23:16 14,8 C 21,1 C 73 % 1022,6 hPa 0,0 l/m 7,0 km/h (2 Bft) W-SW 237 0 min 0,000 mm 0,0 UV-I 0 W/m 10,0 C 14,5 C 11,3 km/h (2 Bft) 97,14 %
15.07.2017 23:18 14,8 C 21,1 C 73 % 1022,6 hPa 0,0 l/m 8,2 km/h (2 Bft) SW 230 0 min 0,000 mm 0,0 UV-I 0 W/m 10,0 C 13,8 C 12,9 km/h (3 Bft) 94,92 %
15.07.2017 23:20 14,8 C 21,1 C 74 % 1022,6 hPa 0,0 l/m 7,8 km/h (2 Bft) SW 232 0 min 0,000 mm 0,0 UV-I 0 W/m 10,2 C 14,0 C 9,7 km/h (2 Bft) 94,34 %
15.07.2017 23:22 14,7 C 21,1 C 74 % 1022,6 hPa 0,0 l/m 7,9 km/h (2 Bft) SW 222 0 min 0,000 mm 0,0 UV-I 0 W/m 10,1 C 13,8 C 11,3 km/h (2 Bft) 97,56 %
15.07.2017 23:24 14,7 C 21,1 C 74 % 1022,6 hPa 0,0 l/m 7,5 km/h (2 Bft) SW 218 0 min 0,000 mm 0,0 UV-I 0 W/m 10,1 C 14,1 C 9,7 km/h (2 Bft) 93,62 %
15.07.2017 23:26 14,7 C 21,1 C 74 % 1022,6 hPa 0,0 l/m 7,8 km/h (2 Bft) SW 221 0 min 0,000 mm 0,0 UV-I 0 W/m 10,1 C 13,9 C 11,3 km/h (2 Bft) 94,74 %
15.07.2017 23:28 14,7 C 21,1 C 74 % 1022,6 hPa 0,0 l/m 7,7 km/h (2 Bft) SW 229 0 min 0,000 mm 0,0 UV-I 0 W/m 10,1 C 14,0 C 9,7 km/h (2 Bft) 95,16 %
15.07.2017 23:30 14,7 C 21,1 C 74 % 1022,7 hPa 0,0 l/m 6,5 km/h (2 Bft) SW 229 0 min 0,000 mm 0,0 UV-I 0 W/m 10,1 C 14,7 C 9,7 km/h (2 Bft) 94,74 %
15.07.2017 23:32 14,7 C 21,1 C 74 % 1022,7 hPa 0,0 l/m 6,6 km/h (2 Bft) SW 233 0 min 0,000 mm 0,0 UV-I 0 W/m 10,1 C 14,6 C 9,7 km/h (2 Bft) 98,00 %
15.07.2017 23:34 14,7 C 21,1 C 74 % 1022,6 hPa 0,0 l/m 7,7 km/h (2 Bft) SW 228 0 min 0,000 mm 0,0 UV-I 0 W/m 10,1 C 14,0 C 9,7 km/h (2 Bft) 94,00 %
15.07.2017 23:36 14,6 C 21,1 C 74 % 1022,6 hPa 0,0 l/m 7,2 km/h (2 Bft) SW 227 0 min 0,000 mm 0,0 UV-I 0 W/m 10,0 C 14,1 C 12,9 km/h (3 Bft) 95,45 %
15.07.2017 23:38 14,6 C 21,1 C 74 % 1022,7 hPa 0,0 l/m 7,4 km/h (2 Bft) SW 229 0 min 0,000 mm 0,0 UV-I 0 W/m 10,0 C 14,0 C 9,7 km/h (2 Bft) 90,00 %
15.07.2017 23:40 14,6 C 21,1 C 75 % 1022,7 hPa 0,0 l/m 9,5 km/h (2 Bft) SW 236 0 min 0,000 mm 0,0 UV-I 0 W/m 10,2 C 12,9 C 12,9 km/h (3 Bft) 92,00 %
15.07.2017 23:42 14,6 C 21,1 C 75 % 1022,7 hPa 0,0 l/m 8,4 km/h (2 Bft) S-SW 202 0 min 0,000 mm 0,0 UV-I 0 W/m 10,2 C 13,5 C 12,9 km/h (3 Bft) 95,74 %
15.07.2017 23:44 14,6 C 21,1 C 75 % 1022,7 hPa 0,0 l/m 8,0 km/h (2 Bft) SW 227 0 min 0,000 mm 0,0 UV-I 0 W/m 10,2 C 13,7 C 12,9 km/h (3 Bft) 94,87 %
15.07.2017 23:46 14,5 C 21,1 C 75 % 1022,7 hPa 0,0 l/m 10,0 km/h (2 Bft) SW 216 0 min 0,000 mm 0,0 UV-I 0 W/m 10,1 C 12,6 C 16,1 km/h (3 Bft) 96,00 %
15.07.2017 23:48 14,5 C 21,1 C 75 % 1022,8 hPa 0,0 l/m 10,4 km/h (2 Bft) W-SW 238 0 min 0,000 mm 0,0 UV-I 0 W/m 10,1 C 12,4 C 16,1 km/h (3 Bft) 98,00 %
15.07.2017 23:50 14,4 C 21,1 C 75 % 1022,7 hPa 0,0 l/m 8,4 km/h (2 Bft) SW 217 0 min 0,000 mm 0,0 UV-I 0 W/m 10,0 C 13,3 C 11,3 km/h (2 Bft) 92,31 %
15.07.2017 23:52 14,4 C 21,1 C 76 % 1022,7 hPa 0,0 l/m 9,3 km/h (2 Bft) S-SW 208 0 min 0,000 mm 0,0 UV-I 0 W/m 10,2 C 12,8 C 12,9 km/h (3 Bft) 95,45 %
15.07.2017 23:54 14,4 C 21,1 C 76 % 1022,7 hPa 0,0 l/m 8,5 km/h (2 Bft) SW 224 0 min 0,000 mm 0,0 UV-I 0 W/m 10,2 C 13,2 C 11,3 km/h (2 Bft) 97,73 %
15.07.2017 23:56 14,4 C 21,1 C 76 % 1022,8 hPa 0,0 l/m 9,0 km/h (2 Bft) SW 220 0 min 0,000 mm 0,0 UV-I 0 W/m 10,2 C 12,9 C 14,5 km/h (3 Bft) 98,00 %
15.07.2017 23:58 14,3 C 21,1 C 76 % 1022,8 hPa 0,0 l/m 9,7 km/h (2 Bft) SW 236 0 min 0,000 mm 0,0 UV-I 0 W/m 10,1 C 12,5 C 14,5 km/h (3 Bft) 97,56 %
_ Min-Zeit 08:10 23:00 17:42 02:32 - 02:38 - - - - - - 17:42 08:44 02:38 06:22
Minimum _ 12,5 C 21,1 C 51 % 1015,2 hPa - 0,0 km/h (0 Bft) - - - - - - 8,4 C 7,5 C 0,0 km/h (0 Bft) 86,36 %
_ Max-Zeit 17:48 00:00 08:18 23:48 04:46 11:22 - - 09:58 13:00 12:36 12:00 10:42 17:48 11:32 00:28
Maximum _ 18,9 C 22,8 C 95 % 1022,8 hPa 1,0 l/m 24,3 km/h
W-SW (4 Bft)
- - 8 min 0,381 mm 6,0 UV-I 1146 W/m 13,5 C 18,7 C 40,2 km/h
SW (6 Bft)
100,00 %
Durchschnitt _ 15,1 C 22,0 C 78 % 1018,8 hPa #6,2 l/m 10,2 km/h (2 Bft) W-SW - #2:36 h #2,743 mm 1,9 UV-I 230 W/m 11,0 C 13,3 C 16,5 km/h (3 Bft) 96,53 %